﻿<?xml version="1.0" encoding="UTF-8"?>
<gpx version="v1.1.5" creator="iTravel Tech Inc. - http://www.itravel-tech.com" xmlns:xsi="http://www.w3.org/2001/XMLSchema-instance" xmlns="http://www.topografix.com/GPX/1/1" xsi:schemaLocation="http://www.topografix.com/GPX/1/1 http://www.topografix.com/GPX/1/1/gpx.xsd http://www.topografix.com/GPX/gpx_overlay/0/3 http://www.topografix.com/GPX/gpx_overlay/0/3/gpx_overlay.xsd http://www.topografix.com/GPX/gpx_modified/0/1 http://www.topografix.com/GPX/gpx_modified/0/1/gpx_modified.xsd">
<trk>
<name>Holux2011/10/12_17:18</name>
<trkseg>
<trkpt lat="44.538822" lon="34.271732">
<ele>119.237366</ele>
<time>2011-10-12T14:18:07Z</time>
<desc>lat.=44.538822, lon.=34.271732, Alt.=119.237366m. Speed=0.936000m/h.</desc>
<speed>0.260000</speed>
</trkpt>
<trkpt lat="44.538853" lon="34.271702">
<ele>119.225647</ele>
<time>2011-10-12T14:18:12Z</time>
<desc>lat.=44.538853, lon.=34.271702, Alt.=119.225647m. Speed=2.160000m/h.</desc>
<speed>0.600000</speed>
</trkpt>
<trkpt lat="44.538841" lon="34.271809">
<ele>119.065491</ele>
<time>2011-10-12T14:18:17Z</time>
<desc>lat.=44.538841, lon.=34.271809, Alt.=119.065491m. Speed=3.924000m/h.</desc>
<speed>1.090000</speed>
</trkpt>
<trkpt lat="44.538898" lon="34.271877">
<ele>118.852600</ele>
<time>2011-10-12T14:18:22Z</time>
<desc>lat.=44.538898, lon.=34.271877, Alt.=118.852600m. Speed=6.264000m/h.</desc>
<speed>1.740000</speed>
</trkpt>
<trkpt lat="44.538975" lon="34.272018">
<ele>118.649475</ele>
<time>2011-10-12T14:18:27Z</time>
<desc>lat.=44.538975, lon.=34.272018, Alt.=118.649475m. Speed=8.388000m/h.</desc>
<speed>2.330000</speed>
</trkpt>
<trkpt lat="44.539036" lon="34.272038">
<ele>118.409241</ele>
<time>2011-10-12T14:18:32Z</time>
<desc>lat.=44.539036, lon.=34.272038, Alt.=118.409241m. Speed=4.068000m/h.</desc>
<speed>1.130000</speed>
</trkpt>
<trkpt lat="44.539074" lon="34.272106">
<ele>118.782288</ele>
<time>2011-10-12T14:18:37Z</time>
<desc>lat.=44.539074, lon.=34.272106, Alt.=118.782288m. Speed=4.860000m/h.</desc>
<speed>1.350000</speed>
</trkpt>
<trkpt lat="44.539238" lon="34.272232">
<ele>118.610413</ele>
<time>2011-10-12T14:18:42Z</time>
<desc>lat.=44.539238, lon.=34.272232, Alt.=118.610413m. Speed=9.432000m/h.</desc>
<speed>2.620000</speed>
</trkpt>
<trkpt lat="44.539257" lon="34.272411">
<ele>118.424866</ele>
<time>2011-10-12T14:18:47Z</time>
<desc>lat.=44.539257, lon.=34.272411, Alt.=118.424866m. Speed=8.532000m/h.</desc>
<speed>2.370000</speed>
</trkpt>
<trkpt lat="44.539364" lon="34.272511">
<ele>118.245178</ele>
<time>2011-10-12T14:18:52Z</time>
<desc>lat.=44.539364, lon.=34.272511, Alt.=118.245178m. Speed=11.016000m/h.</desc>
<speed>3.060000</speed>
</trkpt>
<trkpt lat="44.539646" lon="34.272526">
<ele>118.147522</ele>
<time>2011-10-12T14:18:57Z</time>
<desc>lat.=44.539646, lon.=34.272526, Alt.=118.147522m. Speed=9.108000m/h.</desc>
<speed>2.530000</speed>
</trkpt>
<trkpt lat="44.539833" lon="34.272461">
<ele>117.971741</ele>
<time>2011-10-12T14:19:02Z</time>
<desc>lat.=44.539833, lon.=34.272461, Alt.=117.971741m. Speed=9.324000m/h.</desc>
<speed>2.590000</speed>
</trkpt>
<trkpt lat="44.540138" lon="34.272274">
<ele>117.776428</ele>
<time>2011-10-12T14:19:07Z</time>
<desc>lat.=44.540138, lon.=34.272274, Alt.=117.776428m. Speed=11.916000m/h.</desc>
<speed>3.310000</speed>
</trkpt>
<trkpt lat="44.540401" lon="34.272072">
<ele>117.551819</ele>
<time>2011-10-12T14:19:12Z</time>
<desc>lat.=44.540401, lon.=34.272072, Alt.=117.551819m. Speed=13.932000m/h.</desc>
<speed>3.870000</speed>
</trkpt>
<trkpt lat="44.540474" lon="34.271896">
<ele>117.295959</ele>
<time>2011-10-12T14:19:17Z</time>
<desc>lat.=44.540474, lon.=34.271896, Alt.=117.295959m. Speed=13.464000m/h.</desc>
<speed>3.740000</speed>
</trkpt>
<trkpt lat="44.540607" lon="34.271675">
<ele>117.081116</ele>
<time>2011-10-12T14:19:22Z</time>
<desc>lat.=44.540607, lon.=34.271675, Alt.=117.081116m. Speed=14.004000m/h.</desc>
<speed>3.890000</speed>
</trkpt>
<trkpt lat="44.540771" lon="34.271397">
<ele>116.840881</ele>
<time>2011-10-12T14:19:27Z</time>
<desc>lat.=44.540771, lon.=34.271397, Alt.=116.840881m. Speed=14.544000m/h.</desc>
<speed>4.040000</speed>
</trkpt>
<trkpt lat="44.540783" lon="34.271286">
<ele>116.508850</ele>
<time>2011-10-12T14:19:32Z</time>
<desc>lat.=44.540783, lon.=34.271286, Alt.=116.508850m. Speed=12.420000m/h.</desc>
<speed>3.450000</speed>
</trkpt>
<trkpt lat="44.540810" lon="34.271267">
<ele>116.262756</ele>
<time>2011-10-12T14:19:37Z</time>
<desc>lat.=44.540810, lon.=34.271267, Alt.=116.262756m. Speed=10.944000m/h.</desc>
<speed>3.040000</speed>
</trkpt>
<trkpt lat="44.540955" lon="34.271198">
<ele>116.014709</ele>
<time>2011-10-12T14:19:42Z</time>
<desc>lat.=44.540955, lon.=34.271198, Alt.=116.014709m. Speed=10.440000m/h.</desc>
<speed>2.900000</speed>
</trkpt>
<trkpt lat="44.540905" lon="34.271278">
<ele>115.723694</ele>
<time>2011-10-12T14:19:47Z</time>
<desc>lat.=44.540905, lon.=34.271278, Alt.=115.723694m. Speed=6.516000m/h.</desc>
<speed>1.810000</speed>
</trkpt>
<trkpt lat="44.540607" lon="34.271450">
<ele>113.704163</ele>
<time>2011-10-12T14:19:52Z</time>
<desc>lat.=44.540607, lon.=34.271450, Alt.=113.704163m. Speed=2.160000m/h.</desc>
<speed>0.600000</speed>
</trkpt>
<trkpt lat="44.540558" lon="34.271450">
<ele>114.381897</ele>
<time>2011-10-12T14:19:57Z</time>
<desc>lat.=44.540558, lon.=34.271450, Alt.=114.381897m. Speed=0.576000m/h.</desc>
<speed>0.160000</speed>
</trkpt>
<trkpt lat="44.540543" lon="34.271454">
<ele>114.440491</ele>
<time>2011-10-12T14:20:02Z</time>
<desc>lat.=44.540543, lon.=34.271454, Alt.=114.440491m. Speed=0.864000m/h.</desc>
<speed>0.240000</speed>
</trkpt>
<trkpt lat="44.539448" lon="34.272327">
<ele>52.466339</ele>
<time>2011-10-12T14:20:07Z</time>
<desc>lat.=44.539448, lon.=34.272327, Alt.=52.466339m. Speed=4.428000m/h.</desc>
<speed>1.230000</speed>
</trkpt>
<trkpt lat="44.539478" lon="34.272499">
<ele>52.841339</ele>
<time>2011-10-12T14:20:12Z</time>
<desc>lat.=44.539478, lon.=34.272499, Alt.=52.841339m. Speed=16.056000m/h.</desc>
<speed>4.460000</speed>
</trkpt>
<trkpt lat="44.539654" lon="34.272873">
<ele>53.080597</ele>
<time>2011-10-12T14:20:17Z</time>
<desc>lat.=44.539654, lon.=34.272873, Alt.=53.080597m. Speed=22.608000m/h.</desc>
<speed>6.280000</speed>
</trkpt>
<trkpt lat="44.539776" lon="34.273113">
<ele>52.731964</ele>
<time>2011-10-12T14:20:22Z</time>
<desc>lat.=44.539776, lon.=34.273113, Alt.=52.731964m. Speed=5.652000m/h.</desc>
<speed>1.570000</speed>
</trkpt>
<trkpt lat="44.539742" lon="34.273205">
<ele>52.880402</ele>
<time>2011-10-12T14:20:27Z</time>
<desc>lat.=44.539742, lon.=34.273205, Alt.=52.880402m. Speed=6.804000m/h.</desc>
<speed>1.890000</speed>
</trkpt>
<trkpt lat="44.539631" lon="34.273102">
<ele>51.820831</ele>
<time>2011-10-12T14:20:32Z</time>
<desc>lat.=44.539631, lon.=34.273102, Alt.=51.820831m. Speed=13.068000m/h.</desc>
<speed>3.630000</speed>
</trkpt>
<trkpt lat="44.539494" lon="34.272991">
<ele>50.107941</ele>
<time>2011-10-12T14:20:37Z</time>
<desc>lat.=44.539494, lon.=34.272991, Alt.=50.107941m. Speed=11.736000m/h.</desc>
<speed>3.260000</speed>
</trkpt>
<trkpt lat="44.539268" lon="34.272972">
<ele>49.427277</ele>
<time>2011-10-12T14:20:42Z</time>
<desc>lat.=44.539268, lon.=34.272972, Alt.=49.427277m. Speed=16.992001m/h.</desc>
<speed>4.720000</speed>
</trkpt>
<trkpt lat="44.539181" lon="34.273045">
<ele>49.818878</ele>
<time>2011-10-12T14:20:47Z</time>
<desc>lat.=44.539181, lon.=34.273045, Alt.=49.818878m. Speed=6.120000m/h.</desc>
<speed>1.700000</speed>
</trkpt>
<trkpt lat="44.539139" lon="34.273247">
<ele>50.032745</ele>
<time>2011-10-12T14:20:52Z</time>
<desc>lat.=44.539139, lon.=34.273247, Alt.=50.032745m. Speed=13.896000m/h.</desc>
<speed>3.860000</speed>
</trkpt>
<trkpt lat="44.538982" lon="34.273510">
<ele>48.898956</ele>
<time>2011-10-12T14:20:57Z</time>
<desc>lat.=44.538982, lon.=34.273510, Alt.=48.898956m. Speed=18.792000m/h.</desc>
<speed>5.220000</speed>
</trkpt>
<trkpt lat="44.538815" lon="34.273769">
<ele>48.177277</ele>
<time>2011-10-12T14:21:02Z</time>
<desc>lat.=44.538815, lon.=34.273769, Alt.=48.177277m. Speed=23.184000m/h.</desc>
<speed>6.440000</speed>
</trkpt>
<trkpt lat="44.538616" lon="34.274025">
<ele>47.257355</ele>
<time>2011-10-12T14:21:07Z</time>
<desc>lat.=44.538616, lon.=34.274025, Alt.=47.257355m. Speed=12.060000m/h.</desc>
<speed>3.350000</speed>
</trkpt>
<trkpt lat="44.538399" lon="34.274212">
<ele>46.780792</ele>
<time>2011-10-12T14:21:12Z</time>
<desc>lat.=44.538399, lon.=34.274212, Alt.=46.780792m. Speed=13.752000m/h.</desc>
<speed>3.820000</speed>
</trkpt>
<trkpt lat="44.538147" lon="34.274200">
<ele>45.082550</ele>
<time>2011-10-12T14:21:17Z</time>
<desc>lat.=44.538147, lon.=34.274200, Alt.=45.082550m. Speed=22.212000m/h.</desc>
<speed>6.170000</speed>
</trkpt>
<trkpt lat="44.537842" lon="34.274067">
<ele>42.676300</ele>
<time>2011-10-12T14:21:22Z</time>
<desc>lat.=44.537842, lon.=34.274067, Alt.=42.676300m. Speed=19.764000m/h.</desc>
<speed>5.490000</speed>
</trkpt>
<trkpt lat="44.537563" lon="34.273922">
<ele>40.924347</ele>
<time>2011-10-12T14:21:27Z</time>
<desc>lat.=44.537563, lon.=34.273922, Alt.=40.924347m. Speed=20.375999m/h.</desc>
<speed>5.660000</speed>
</trkpt>
<trkpt lat="44.537289" lon="34.273994">
<ele>40.131378</ele>
<time>2011-10-12T14:21:32Z</time>
<desc>lat.=44.537289, lon.=34.273994, Alt.=40.131378m. Speed=4.356000m/h.</desc>
<speed>1.210000</speed>
</trkpt>
<trkpt lat="44.537247" lon="34.274158">
<ele>39.168488</ele>
<time>2011-10-12T14:21:37Z</time>
<desc>lat.=44.537247, lon.=34.274158, Alt.=39.168488m. Speed=11.232000m/h.</desc>
<speed>3.120000</speed>
</trkpt>
<trkpt lat="44.537342" lon="34.274315">
<ele>37.790558</ele>
<time>2011-10-12T14:21:42Z</time>
<desc>lat.=44.537342, lon.=34.274315, Alt.=37.790558m. Speed=19.728001m/h.</desc>
<speed>5.480000</speed>
</trkpt>
<trkpt lat="44.537533" lon="34.274414">
<ele>38.886261</ele>
<time>2011-10-12T14:21:47Z</time>
<desc>lat.=44.537533, lon.=34.274414, Alt.=38.886261m. Speed=14.076000m/h.</desc>
<speed>3.910000</speed>
</trkpt>
<trkpt lat="44.537693" lon="34.274502">
<ele>38.297394</ele>
<time>2011-10-12T14:21:52Z</time>
<desc>lat.=44.537693, lon.=34.274502, Alt.=38.297394m. Speed=10.296000m/h.</desc>
<speed>2.860000</speed>
</trkpt>
<trkpt lat="44.537712" lon="34.274597">
<ele>37.961456</ele>
<time>2011-10-12T14:21:57Z</time>
<desc>lat.=44.537712, lon.=34.274597, Alt.=37.961456m. Speed=2.700000m/h.</desc>
<speed>0.750000</speed>
</trkpt>
<trkpt lat="44.537552" lon="34.274612">
<ele>31.989029</ele>
<time>2011-10-12T14:22:02Z</time>
<desc>lat.=44.537552, lon.=34.274612, Alt.=31.989029m. Speed=7.668000m/h.</desc>
<speed>2.130000</speed>
</trkpt>
<trkpt lat="44.537426" lon="34.274525">
<ele>28.064713</ele>
<time>2011-10-12T14:22:07Z</time>
<desc>lat.=44.537426, lon.=34.274525, Alt.=28.064713m. Speed=3.312000m/h.</desc>
<speed>0.920000</speed>
</trkpt>
<trkpt lat="44.537395" lon="34.274559">
<ele>26.521744</ele>
<time>2011-10-12T14:22:12Z</time>
<desc>lat.=44.537395, lon.=34.274559, Alt.=26.521744m. Speed=3.024000m/h.</desc>
<speed>0.840000</speed>
</trkpt>
<trkpt lat="44.537350" lon="34.274563">
<ele>26.329361</ele>
<time>2011-10-12T14:22:17Z</time>
<desc>lat.=44.537350, lon.=34.274563, Alt.=26.329361m. Speed=4.716000m/h.</desc>
<speed>1.310000</speed>
</trkpt>
<trkpt lat="44.537346" lon="34.274578">
<ele>25.479752</ele>
<time>2011-10-12T14:22:22Z</time>
<desc>lat.=44.537346, lon.=34.274578, Alt.=25.479752m. Speed=0.792000m/h.</desc>
<speed>0.220000</speed>
</trkpt>
<trkpt lat="44.537334" lon="34.274590">
<ele>25.161392</ele>
<time>2011-10-12T14:22:27Z</time>
<desc>lat.=44.537334, lon.=34.274590, Alt.=25.161392m. Speed=1.368000m/h.</desc>
<speed>0.380000</speed>
</trkpt>
<trkpt lat="44.537327" lon="34.274582">
<ele>24.894302</ele>
<time>2011-10-12T14:22:32Z</time>
<desc>lat.=44.537327, lon.=34.274582, Alt.=24.894302m. Speed=0.396000m/h.</desc>
<speed>0.110000</speed>
</trkpt>
<trkpt lat="44.537319" lon="34.274586">
<ele>24.754166</ele>
<time>2011-10-12T14:22:37Z</time>
<desc>lat.=44.537319, lon.=34.274586, Alt.=24.754166m. Speed=0.828000m/h.</desc>
<speed>0.230000</speed>
</trkpt>
<trkpt lat="44.537312" lon="34.274593">
<ele>24.809341</ele>
<time>2011-10-12T14:22:42Z</time>
<desc>lat.=44.537312, lon.=34.274593, Alt.=24.809341m. Speed=0.036000m/h.</desc>
<speed>0.010000</speed>
</trkpt>
<trkpt lat="44.537312" lon="34.274593">
<ele>24.834244</ele>
<time>2011-10-12T14:22:47Z</time>
<desc>lat.=44.537312, lon.=34.274593, Alt.=24.834244m. Speed=0.144000m/h.</desc>
<speed>0.040000</speed>
</trkpt>
<trkpt lat="44.537312" lon="34.274593">
<ele>24.762955</ele>
<time>2011-10-12T14:22:52Z</time>
<desc>lat.=44.537312, lon.=34.274593, Alt.=24.762955m. Speed=0.252000m/h.</desc>
<speed>0.070000</speed>
</trkpt>
<trkpt lat="44.537308" lon="34.274593">
<ele>24.741959</ele>
<time>2011-10-12T14:22:57Z</time>
<desc>lat.=44.537308, lon.=34.274593, Alt.=24.741959m. Speed=0.396000m/h.</desc>
<speed>0.110000</speed>
</trkpt>
<trkpt lat="44.537308" lon="34.274582">
<ele>24.701920</ele>
<time>2011-10-12T14:23:02Z</time>
<desc>lat.=44.537308, lon.=34.274582, Alt.=24.701920m. Speed=0.684000m/h.</desc>
<speed>0.190000</speed>
</trkpt>
<trkpt lat="44.537308" lon="34.274574">
<ele>24.650650</ele>
<time>2011-10-12T14:23:07Z</time>
<desc>lat.=44.537308, lon.=34.274574, Alt.=24.650650m. Speed=0.648000m/h.</desc>
<speed>0.180000</speed>
</trkpt>
<trkpt lat="44.537308" lon="34.274570">
<ele>24.595963</ele>
<time>2011-10-12T14:23:12Z</time>
<desc>lat.=44.537308, lon.=34.274570, Alt.=24.595963m. Speed=0.216000m/h.</desc>
<speed>0.060000</speed>
</trkpt>
<trkpt lat="44.537308" lon="34.274570">
<ele>24.528091</ele>
<time>2011-10-12T14:23:17Z</time>
<desc>lat.=44.537308, lon.=34.274570, Alt.=24.528091m. Speed=0.288000m/h.</desc>
<speed>0.080000</speed>
</trkpt>
<trkpt lat="44.537304" lon="34.274578">
<ele>24.474869</ele>
<time>2011-10-12T14:23:22Z</time>
<desc>lat.=44.537304, lon.=34.274578, Alt.=24.474869m. Speed=0.648000m/h.</desc>
<speed>0.180000</speed>
</trkpt>
<trkpt lat="44.537304" lon="34.274582">
<ele>24.411392</ele>
<time>2011-10-12T14:23:27Z</time>
<desc>lat.=44.537304, lon.=34.274582, Alt.=24.411392m. Speed=0.540000m/h.</desc>
<speed>0.150000</speed>
</trkpt>
<trkpt lat="44.537308" lon="34.274582">
<ele>24.298599</ele>
<time>2011-10-12T14:23:32Z</time>
<desc>lat.=44.537308, lon.=34.274582, Alt.=24.298599m. Speed=0.216000m/h.</desc>
<speed>0.060000</speed>
</trkpt>
<trkpt lat="44.537300" lon="34.274574">
<ele>23.897720</ele>
<time>2011-10-12T14:23:37Z</time>
<desc>lat.=44.537300, lon.=34.274574, Alt.=23.897720m. Speed=0.288000m/h.</desc>
<speed>0.080000</speed>
</trkpt>
<trkpt lat="44.537304" lon="34.274574">
<ele>23.831802</ele>
<time>2011-10-12T14:23:42Z</time>
<desc>lat.=44.537304, lon.=34.274574, Alt.=23.831802m. Speed=1.476000m/h.</desc>
<speed>0.410000</speed>
</trkpt>
<trkpt lat="44.537296" lon="34.274570">
<ele>21.920670</ele>
<time>2011-10-12T14:23:47Z</time>
<desc>lat.=44.537296, lon.=34.274570, Alt.=21.920670m. Speed=0.252000m/h.</desc>
<speed>0.070000</speed>
</trkpt>
<trkpt lat="44.537296" lon="34.274570">
<ele>21.954849</ele>
<time>2011-10-12T14:23:52Z</time>
<desc>lat.=44.537296, lon.=34.274570, Alt.=21.954849m. Speed=0.540000m/h.</desc>
<speed>0.150000</speed>
</trkpt>
<trkpt lat="44.537300" lon="34.274574">
<ele>21.932877</ele>
<time>2011-10-12T14:23:57Z</time>
<desc>lat.=44.537300, lon.=34.274574, Alt.=21.932877m. Speed=0.504000m/h.</desc>
<speed>0.140000</speed>
</trkpt>
<trkpt lat="44.537296" lon="34.274578">
<ele>21.895767</ele>
<time>2011-10-12T14:24:02Z</time>
<desc>lat.=44.537296, lon.=34.274578, Alt.=21.895767m. Speed=0.180000m/h.</desc>
<speed>0.050000</speed>
</trkpt>
<trkpt lat="44.537296" lon="34.274582">
<ele>21.864029</ele>
<time>2011-10-12T14:24:07Z</time>
<desc>lat.=44.537296, lon.=34.274582, Alt.=21.864029m. Speed=0.684000m/h.</desc>
<speed>0.190000</speed>
</trkpt>
<trkpt lat="44.537300" lon="34.274590">
<ele>21.905533</ele>
<time>2011-10-12T14:24:12Z</time>
<desc>lat.=44.537300, lon.=34.274590, Alt.=21.905533m. Speed=0.504000m/h.</desc>
<speed>0.140000</speed>
</trkpt>
<trkpt lat="44.537300" lon="34.274593">
<ele>21.872818</ele>
<time>2011-10-12T14:24:17Z</time>
<desc>lat.=44.537300, lon.=34.274593, Alt.=21.872818m. Speed=0.792000m/h.</desc>
<speed>0.220000</speed>
</trkpt>
<trkpt lat="44.537296" lon="34.274597">
<ele>21.785416</ele>
<time>2011-10-12T14:24:22Z</time>
<desc>lat.=44.537296, lon.=34.274597, Alt.=21.785416m. Speed=0.108000m/h.</desc>
<speed>0.030000</speed>
</trkpt>
<trkpt lat="44.537292" lon="34.274593">
<ele>21.700455</ele>
<time>2011-10-12T14:24:27Z</time>
<desc>lat.=44.537292, lon.=34.274593, Alt.=21.700455m. Speed=1.116000m/h.</desc>
<speed>0.310000</speed>
</trkpt>
<trkpt lat="44.537258" lon="34.274601">
<ele>21.094009</ele>
<time>2011-10-12T14:24:32Z</time>
<desc>lat.=44.537258, lon.=34.274601, Alt.=21.094009m. Speed=1.548000m/h.</desc>
<speed>0.430000</speed>
</trkpt>
<trkpt lat="44.537270" lon="34.274593">
<ele>20.725357</ele>
<time>2011-10-12T14:24:37Z</time>
<desc>lat.=44.537270, lon.=34.274593, Alt.=20.725357m. Speed=0.576000m/h.</desc>
<speed>0.160000</speed>
</trkpt>
<trkpt lat="44.537266" lon="34.274586">
<ele>20.629654</ele>
<time>2011-10-12T14:24:42Z</time>
<desc>lat.=44.537266, lon.=34.274586, Alt.=20.629654m. Speed=0.504000m/h.</desc>
<speed>0.140000</speed>
</trkpt>
<trkpt lat="44.537254" lon="34.274609">
<ele>19.640396</ele>
<time>2011-10-12T14:24:47Z</time>
<desc>lat.=44.537254, lon.=34.274609, Alt.=19.640396m. Speed=0.756000m/h.</desc>
<speed>0.210000</speed>
</trkpt>
<trkpt lat="44.537243" lon="34.274624">
<ele>18.927994</ele>
<time>2011-10-12T14:24:52Z</time>
<desc>lat.=44.537243, lon.=34.274624, Alt.=18.927994m. Speed=0.324000m/h.</desc>
<speed>0.090000</speed>
</trkpt>
<trkpt lat="44.537247" lon="34.274628">
<ele>18.788345</ele>
<time>2011-10-12T14:24:57Z</time>
<desc>lat.=44.537247, lon.=34.274628, Alt.=18.788345m. Speed=0.936000m/h.</desc>
<speed>0.260000</speed>
</trkpt>
<trkpt lat="44.537254" lon="34.274632">
<ele>18.656509</ele>
<time>2011-10-12T14:25:02Z</time>
<desc>lat.=44.537254, lon.=34.274632, Alt.=18.656509m. Speed=0.396000m/h.</desc>
<speed>0.110000</speed>
</trkpt>
<trkpt lat="44.537254" lon="34.274632">
<ele>18.433365</ele>
<time>2011-10-12T14:25:07Z</time>
<desc>lat.=44.537254, lon.=34.274632, Alt.=18.433365m. Speed=0.252000m/h.</desc>
<speed>0.070000</speed>
</trkpt>
<trkpt lat="44.537258" lon="34.274628">
<ele>18.297134</ele>
<time>2011-10-12T14:25:12Z</time>
<desc>lat.=44.537258, lon.=34.274628, Alt.=18.297134m. Speed=0.288000m/h.</desc>
<speed>0.080000</speed>
</trkpt>
<trkpt lat="44.537262" lon="34.274624">
<ele>18.183365</ele>
<time>2011-10-12T14:25:17Z</time>
<desc>lat.=44.537262, lon.=34.274624, Alt.=18.183365m. Speed=0.684000m/h.</desc>
<speed>0.190000</speed>
</trkpt>
<trkpt lat="44.537262" lon="34.274628">
<ele>18.069595</ele>
<time>2011-10-12T14:25:22Z</time>
<desc>lat.=44.537262, lon.=34.274628, Alt.=18.069595m. Speed=0.216000m/h.</desc>
<speed>0.060000</speed>
</trkpt>
<trkpt lat="44.537262" lon="34.274632">
<ele>18.035904</ele>
<time>2011-10-12T14:25:27Z</time>
<desc>lat.=44.537262, lon.=34.274632, Alt.=18.035904m. Speed=0.252000m/h.</desc>
<speed>0.070000</speed>
</trkpt>
<trkpt lat="44.537266" lon="34.274632">
<ele>17.994888</ele>
<time>2011-10-12T14:25:32Z</time>
<desc>lat.=44.537266, lon.=34.274632, Alt.=17.994888m. Speed=0.612000m/h.</desc>
<speed>0.170000</speed>
</trkpt>
<trkpt lat="44.537277" lon="34.274639">
<ele>17.938248</ele>
<time>2011-10-12T14:25:37Z</time>
<desc>lat.=44.537277, lon.=34.274639, Alt.=17.938248m. Speed=1.152000m/h.</desc>
<speed>0.320000</speed>
</trkpt>
<trkpt lat="44.537308" lon="34.274597">
<ele>17.552505</ele>
<time>2011-10-12T14:25:42Z</time>
<desc>lat.=44.537308, lon.=34.274597, Alt.=17.552505m. Speed=1.368000m/h.</desc>
<speed>0.380000</speed>
</trkpt>
<trkpt lat="44.537205" lon="34.274616">
<ele>16.617447</ele>
<time>2011-10-12T14:25:47Z</time>
<desc>lat.=44.537205, lon.=34.274616, Alt.=16.617447m. Speed=0.396000m/h.</desc>
<speed>0.110000</speed>
</trkpt>
<trkpt lat="44.537201" lon="34.274605">
<ele>16.331314</ele>
<time>2011-10-12T14:25:52Z</time>
<desc>lat.=44.537201, lon.=34.274605, Alt.=16.331314m. Speed=1.476000m/h.</desc>
<speed>0.410000</speed>
</trkpt>
<trkpt lat="44.537193" lon="34.274563">
<ele>16.223892</ele>
<time>2011-10-12T14:25:57Z</time>
<desc>lat.=44.537193, lon.=34.274563, Alt.=16.223892m. Speed=0.108000m/h.</desc>
<speed>0.030000</speed>
</trkpt>
<trkpt lat="44.537178" lon="34.274567">
<ele>15.803596</ele>
<time>2011-10-12T14:26:02Z</time>
<desc>lat.=44.537178, lon.=34.274567, Alt.=15.803596m. Speed=0.180000m/h.</desc>
<speed>0.050000</speed>
</trkpt>
<trkpt lat="44.537182" lon="34.274567">
<ele>15.608040</ele>
<time>2011-10-12T14:26:07Z</time>
<desc>lat.=44.537182, lon.=34.274567, Alt.=15.608040m. Speed=0.180000m/h.</desc>
<speed>0.050000</speed>
</trkpt>
<trkpt lat="44.537186" lon="34.274574">
<ele>15.174202</ele>
<time>2011-10-12T14:26:12Z</time>
<desc>lat.=44.537186, lon.=34.274574, Alt.=15.174202m. Speed=0.900000m/h.</desc>
<speed>0.250000</speed>
</trkpt>
<trkpt lat="44.537216" lon="34.274590">
<ele>14.119026</ele>
<time>2011-10-12T14:26:17Z</time>
<desc>lat.=44.537216, lon.=34.274590, Alt.=14.119026m. Speed=1.728000m/h.</desc>
<speed>0.480000</speed>
</trkpt>
<trkpt lat="44.537224" lon="34.274582">
<ele>13.470345</ele>
<time>2011-10-12T14:26:22Z</time>
<desc>lat.=44.537224, lon.=34.274582, Alt.=13.470345m. Speed=1.080000m/h.</desc>
<speed>0.300000</speed>
</trkpt>
<trkpt lat="44.537220" lon="34.274582">
<ele>13.412971</ele>
<time>2011-10-12T14:26:27Z</time>
<desc>lat.=44.537220, lon.=34.274582, Alt.=13.412971m. Speed=0.576000m/h.</desc>
<speed>0.160000</speed>
</trkpt>
<trkpt lat="44.537224" lon="34.274590">
<ele>13.204964</ele>
<time>2011-10-12T14:26:32Z</time>
<desc>lat.=44.537224, lon.=34.274590, Alt.=13.204964m. Speed=0.252000m/h.</desc>
<speed>0.070000</speed>
</trkpt>
<trkpt lat="44.537228" lon="34.274593">
<ele>13.065315</ele>
<time>2011-10-12T14:26:37Z</time>
<desc>lat.=44.537228, lon.=34.274593, Alt.=13.065315m. Speed=0.504000m/h.</desc>
<speed>0.140000</speed>
</trkpt>
<trkpt lat="44.537231" lon="34.274601">
<ele>12.900276</ele>
<time>2011-10-12T14:26:42Z</time>
<desc>lat.=44.537231, lon.=34.274601, Alt.=12.900276m. Speed=0.396000m/h.</desc>
<speed>0.110000</speed>
</trkpt>
<trkpt lat="44.537224" lon="34.274597">
<ele>12.805061</ele>
<time>2011-10-12T14:26:47Z</time>
<desc>lat.=44.537224, lon.=34.274597, Alt.=12.805061m. Speed=1.008000m/h.</desc>
<speed>0.280000</speed>
</trkpt>
<trkpt lat="44.537216" lon="34.274586">
<ele>12.836311</ele>
<time>2011-10-12T14:26:52Z</time>
<desc>lat.=44.537216, lon.=34.274586, Alt.=12.836311m. Speed=0.756000m/h.</desc>
<speed>0.210000</speed>
</trkpt>
<trkpt lat="44.537209" lon="34.274590">
<ele>12.804573</ele>
<time>2011-10-12T14:26:57Z</time>
<desc>lat.=44.537209, lon.=34.274590, Alt.=12.804573m. Speed=1.296000m/h.</desc>
<speed>0.360000</speed>
</trkpt>
<trkpt lat="44.537197" lon="34.274601">
<ele>12.680305</ele>
<time>2011-10-12T14:27:02Z</time>
<desc>lat.=44.537197, lon.=34.274601, Alt.=12.680305m. Speed=1.152000m/h.</desc>
<speed>0.320000</speed>
</trkpt>
<trkpt lat="44.537205" lon="34.274612">
<ele>12.653938</ele>
<time>2011-10-12T14:27:07Z</time>
<desc>lat.=44.537205, lon.=34.274612, Alt.=12.653938m. Speed=0.612000m/h.</desc>
<speed>0.170000</speed>
</trkpt>
<trkpt lat="44.537205" lon="34.274620">
<ele>12.548714</ele>
<time>2011-10-12T14:27:12Z</time>
<desc>lat.=44.537205, lon.=34.274620, Alt.=12.548714m. Speed=0.612000m/h.</desc>
<speed>0.170000</speed>
</trkpt>
<trkpt lat="44.537197" lon="34.274628">
<ele>12.432991</ele>
<time>2011-10-12T14:27:17Z</time>
<desc>lat.=44.537197, lon.=34.274628, Alt.=12.432991m. Speed=0.432000m/h.</desc>
<speed>0.120000</speed>
</trkpt>
<trkpt lat="44.537193" lon="34.274632">
<ele>12.315559</ele>
<time>2011-10-12T14:27:22Z</time>
<desc>lat.=44.537193, lon.=34.274632, Alt.=12.315559m. Speed=0.360000m/h.</desc>
<speed>0.100000</speed>
</trkpt>
<trkpt lat="44.537193" lon="34.274647">
<ele>12.117317</ele>
<time>2011-10-12T14:27:27Z</time>
<desc>lat.=44.537193, lon.=34.274647, Alt.=12.117317m. Speed=1.620000m/h.</desc>
<speed>0.450000</speed>
</trkpt>
<trkpt lat="44.537258" lon="34.274723">
<ele>9.705940</ele>
<time>2011-10-12T14:27:32Z</time>
<desc>lat.=44.537258, lon.=34.274723, Alt.=9.705940m. Speed=4.248000m/h.</desc>
<speed>1.180000</speed>
</trkpt>
<trkpt lat="44.537373" lon="34.274765">
<ele>6.798771</ele>
<time>2011-10-12T14:27:37Z</time>
<desc>lat.=44.537373, lon.=34.274765, Alt.=6.798771m. Speed=7.488000m/h.</desc>
<speed>2.080000</speed>
</trkpt>
<trkpt lat="44.537491" lon="34.274807">
<ele>5.000065</ele>
<time>2011-10-12T14:27:42Z</time>
<desc>lat.=44.537491, lon.=34.274807, Alt.=5.000065m. Speed=10.584000m/h.</desc>
<speed>2.940000</speed>
</trkpt>
<trkpt lat="44.537582" lon="34.274834">
<ele>2.902254</ele>
<time>2011-10-12T14:27:47Z</time>
<desc>lat.=44.537582, lon.=34.274834, Alt.=2.902254m. Speed=0.972000m/h.</desc>
<speed>0.270000</speed>
</trkpt>
<trkpt lat="44.537609" lon="34.274860">
<ele>2.149019</ele>
<time>2011-10-12T14:27:52Z</time>
<desc>lat.=44.537609, lon.=34.274860, Alt.=2.149019m. Speed=5.796000m/h.</desc>
<speed>1.610000</speed>
</trkpt>
<trkpt lat="44.537685" lon="34.274906">
<ele>0.061385</ele>
<time>2011-10-12T14:27:57Z</time>
<desc>lat.=44.537685, lon.=34.274906, Alt.=0.061385m. Speed=4.284000m/h.</desc>
<speed>1.190000</speed>
</trkpt>
<trkpt lat="44.537785" lon="34.274960">
<ele>-2.568270</ele>
<time>2011-10-12T14:28:02Z</time>
<desc>lat.=44.537785, lon.=34.274960, Alt.=-2.568270m. Speed=11.304000m/h.</desc>
<speed>3.140000</speed>
</trkpt>
<trkpt lat="44.537914" lon="34.275009">
<ele>-5.726017</ele>
<time>2011-10-12T14:28:07Z</time>
<desc>lat.=44.537914, lon.=34.275009, Alt.=-5.726017m. Speed=9.432000m/h.</desc>
<speed>2.620000</speed>
</trkpt>
<trkpt lat="44.537994" lon="34.275066">
<ele>-9.098274</ele>
<time>2011-10-12T14:28:12Z</time>
<desc>lat.=44.537994, lon.=34.275066, Alt.=-9.098274m. Speed=7.200000m/h.</desc>
<speed>2.000000</speed>
</trkpt>
<trkpt lat="44.538094" lon="34.275101">
<ele>-12.302132</ele>
<time>2011-10-12T14:28:17Z</time>
<desc>lat.=44.538094, lon.=34.275101, Alt.=-12.302132m. Speed=9.108000m/h.</desc>
<speed>2.530000</speed>
</trkpt>
<trkpt lat="44.538204" lon="34.275181">
<ele>-14.172005</ele>
<time>2011-10-12T14:28:22Z</time>
<desc>lat.=44.538204, lon.=34.275181, Alt.=-14.172005m. Speed=10.836000m/h.</desc>
<speed>3.010000</speed>
</trkpt>
<trkpt lat="44.538322" lon="34.275261">
<ele>-16.465103</ele>
<time>2011-10-12T14:28:27Z</time>
<desc>lat.=44.538322, lon.=34.275261, Alt.=-16.465103m. Speed=11.124000m/h.</desc>
<speed>3.090000</speed>
</trkpt>
<trkpt lat="44.538452" lon="34.275330">
<ele>-18.810806</ele>
<time>2011-10-12T14:28:32Z</time>
<desc>lat.=44.538452, lon.=34.275330, Alt.=-18.810806m. Speed=11.376000m/h.</desc>
<speed>3.160000</speed>
</trkpt>
<trkpt lat="44.538589" lon="34.275402">
<ele>-21.874283</ele>
<time>2011-10-12T14:28:37Z</time>
<desc>lat.=44.538589, lon.=34.275402, Alt.=-21.874283m. Speed=9.864000m/h.</desc>
<speed>2.740000</speed>
</trkpt>
<trkpt lat="44.538715" lon="34.275471">
<ele>-24.165787</ele>
<time>2011-10-12T14:28:42Z</time>
<desc>lat.=44.538715, lon.=34.275471, Alt.=-24.165787m. Speed=10.728000m/h.</desc>
<speed>2.980000</speed>
</trkpt>
<trkpt lat="44.538849" lon="34.275555">
<ele>-26.123306</ele>
<time>2011-10-12T14:28:47Z</time>
<desc>lat.=44.538849, lon.=34.275555, Alt.=-26.123306m. Speed=10.512000m/h.</desc>
<speed>2.920000</speed>
</trkpt>
<trkpt lat="44.539001" lon="34.275616">
<ele>-25.801529</ele>
<time>2011-10-12T14:28:52Z</time>
<desc>lat.=44.539001, lon.=34.275616, Alt.=-25.801529m. Speed=11.232000m/h.</desc>
<speed>3.120000</speed>
</trkpt>
<trkpt lat="44.539120" lon="34.275681">
<ele>-27.555435</ele>
<time>2011-10-12T14:28:57Z</time>
<desc>lat.=44.539120, lon.=34.275681, Alt.=-27.555435m. Speed=5.652000m/h.</desc>
<speed>1.570000</speed>
</trkpt>
<trkpt lat="44.539177" lon="34.275715">
<ele>-29.057388</ele>
<time>2011-10-12T14:29:02Z</time>
<desc>lat.=44.539177, lon.=34.275715, Alt.=-29.057388m. Speed=6.804000m/h.</desc>
<speed>1.890000</speed>
</trkpt>
<trkpt lat="44.539284" lon="34.275784">
<ele>-30.493912</ele>
<time>2011-10-12T14:29:07Z</time>
<desc>lat.=44.539284, lon.=34.275784, Alt.=-30.493912m. Speed=9.792000m/h.</desc>
<speed>2.720000</speed>
</trkpt>
<trkpt lat="44.539375" lon="34.275864">
<ele>-31.159439</ele>
<time>2011-10-12T14:29:12Z</time>
<desc>lat.=44.539375, lon.=34.275864, Alt.=-31.159439m. Speed=7.200000m/h.</desc>
<speed>2.000000</speed>
</trkpt>
<trkpt lat="44.539467" lon="34.275921">
<ele>-30.886002</ele>
<time>2011-10-12T14:29:17Z</time>
<desc>lat.=44.539467, lon.=34.275921, Alt.=-30.886002m. Speed=7.272000m/h.</desc>
<speed>2.020000</speed>
</trkpt>
<trkpt lat="44.539562" lon="34.275963">
<ele>-29.884537</ele>
<time>2011-10-12T14:29:22Z</time>
<desc>lat.=44.539562, lon.=34.275963, Alt.=-29.884537m. Speed=5.328000m/h.</desc>
<speed>1.480000</speed>
</trkpt>
<trkpt lat="44.539642" lon="34.276031">
<ele>-29.746353</ele>
<time>2011-10-12T14:29:27Z</time>
<desc>lat.=44.539642, lon.=34.276031, Alt.=-29.746353m. Speed=9.828000m/h.</desc>
<speed>2.730000</speed>
</trkpt>
<trkpt lat="44.539742" lon="34.276142">
<ele>-29.013443</ele>
<time>2011-10-12T14:29:32Z</time>
<desc>lat.=44.539742, lon.=34.276142, Alt.=-29.013443m. Speed=8.352000m/h.</desc>
<speed>2.320000</speed>
</trkpt>
<trkpt lat="44.539845" lon="34.276222">
<ele>-27.681900</ele>
<time>2011-10-12T14:29:37Z</time>
<desc>lat.=44.539845, lon.=34.276222, Alt.=-27.681900m. Speed=8.568000m/h.</desc>
<speed>2.380000</speed>
</trkpt>
<trkpt lat="44.539944" lon="34.276299">
<ele>-26.532486</ele>
<time>2011-10-12T14:29:42Z</time>
<desc>lat.=44.539944, lon.=34.276299, Alt.=-26.532486m. Speed=7.920000m/h.</desc>
<speed>2.200000</speed>
</trkpt>
<trkpt lat="44.540028" lon="34.276367">
<ele>-25.920670</ele>
<time>2011-10-12T14:29:47Z</time>
<desc>lat.=44.540028, lon.=34.276367, Alt.=-25.920670m. Speed=9.036000m/h.</desc>
<speed>2.510000</speed>
</trkpt>
<trkpt lat="44.540123" lon="34.276463">
<ele>-24.828384</ele>
<time>2011-10-12T14:29:52Z</time>
<desc>lat.=44.540123, lon.=34.276463, Alt.=-24.828384m. Speed=9.000000m/h.</desc>
<speed>2.500000</speed>
</trkpt>
<trkpt lat="44.540207" lon="34.276573">
<ele>-24.272232</ele>
<time>2011-10-12T14:29:57Z</time>
<desc>lat.=44.540207, lon.=34.276573, Alt.=-24.272232m. Speed=8.892000m/h.</desc>
<speed>2.470000</speed>
</trkpt>
<trkpt lat="44.540298" lon="34.276676">
<ele>-23.794205</ele>
<time>2011-10-12T14:30:02Z</time>
<desc>lat.=44.540298, lon.=34.276676, Alt.=-23.794205m. Speed=8.424000m/h.</desc>
<speed>2.340000</speed>
</trkpt>
<trkpt lat="44.540379" lon="34.276779">
<ele>-23.459732</ele>
<time>2011-10-12T14:30:07Z</time>
<desc>lat.=44.540379, lon.=34.276779, Alt.=-23.459732m. Speed=8.712000m/h.</desc>
<speed>2.420000</speed>
</trkpt>
<trkpt lat="44.540459" lon="34.276859">
<ele>-23.045181</ele>
<time>2011-10-12T14:30:12Z</time>
<desc>lat.=44.540459, lon.=34.276859, Alt.=-23.045181m. Speed=7.812000m/h.</desc>
<speed>2.170000</speed>
</trkpt>
<trkpt lat="44.540527" lon="34.276947">
<ele>-22.153091</ele>
<time>2011-10-12T14:30:17Z</time>
<desc>lat.=44.540527, lon.=34.276947, Alt.=-22.153091m. Speed=9.468000m/h.</desc>
<speed>2.630000</speed>
</trkpt>
<trkpt lat="44.540607" lon="34.277069">
<ele>-21.001236</ele>
<time>2011-10-12T14:30:22Z</time>
<desc>lat.=44.540607, lon.=34.277069, Alt.=-21.001236m. Speed=8.532000m/h.</desc>
<speed>2.370000</speed>
</trkpt>
<trkpt lat="44.540691" lon="34.277172">
<ele>-20.167252</ele>
<time>2011-10-12T14:30:27Z</time>
<desc>lat.=44.540691, lon.=34.277172, Alt.=-20.167252m. Speed=9.972000m/h.</desc>
<speed>2.770000</speed>
</trkpt>
<trkpt lat="44.540779" lon="34.277287">
<ele>-19.304947</ele>
<time>2011-10-12T14:30:32Z</time>
<desc>lat.=44.540779, lon.=34.277287, Alt.=-19.304947m. Speed=8.964000m/h.</desc>
<speed>2.490000</speed>
</trkpt>
<trkpt lat="44.540848" lon="34.277378">
<ele>-18.703384</ele>
<time>2011-10-12T14:30:37Z</time>
<desc>lat.=44.540848, lon.=34.277378, Alt.=-18.703384m. Speed=3.816000m/h.</desc>
<speed>1.060000</speed>
</trkpt>
<trkpt lat="44.540905" lon="34.277355">
<ele>-17.633560</ele>
<time>2011-10-12T14:30:42Z</time>
<desc>lat.=44.540905, lon.=34.277355, Alt.=-17.633560m. Speed=4.896000m/h.</desc>
<speed>1.360000</speed>
</trkpt>
<trkpt lat="44.540932" lon="34.277336">
<ele>-17.092056</ele>
<time>2011-10-12T14:30:47Z</time>
<desc>lat.=44.540932, lon.=34.277336, Alt.=-17.092056m. Speed=1.008000m/h.</desc>
<speed>0.280000</speed>
</trkpt>
<trkpt lat="44.540936" lon="34.277336">
<ele>-16.849869</ele>
<time>2011-10-12T14:30:52Z</time>
<desc>lat.=44.540936, lon.=34.277336, Alt.=-16.849869m. Speed=0.324000m/h.</desc>
<speed>0.090000</speed>
</trkpt>
<trkpt lat="44.540936" lon="34.277332">
<ele>-16.759537</ele>
<time>2011-10-12T14:30:57Z</time>
<desc>lat.=44.540936, lon.=34.277332, Alt.=-16.759537m. Speed=0.396000m/h.</desc>
<speed>0.110000</speed>
</trkpt>
<trkpt lat="44.540943" lon="34.277332">
<ele>-16.625748</ele>
<time>2011-10-12T14:31:02Z</time>
<desc>lat.=44.540943, lon.=34.277332, Alt.=-16.625748m. Speed=0.684000m/h.</desc>
<speed>0.190000</speed>
</trkpt>
<trkpt lat="44.540939" lon="34.277294">
<ele>-16.449478</ele>
<time>2011-10-12T14:31:07Z</time>
<desc>lat.=44.540939, lon.=34.277294, Alt.=-16.449478m. Speed=1.944000m/h.</desc>
<speed>0.540000</speed>
</trkpt>
<trkpt lat="44.540943" lon="34.277267">
<ele>-16.280533</ele>
<time>2011-10-12T14:31:12Z</time>
<desc>lat.=44.540943, lon.=34.277267, Alt.=-16.280533m. Speed=1.908000m/h.</desc>
<speed>0.530000</speed>
</trkpt>
<trkpt lat="44.540932" lon="34.277225">
<ele>-16.128677</ele>
<time>2011-10-12T14:31:17Z</time>
<desc>lat.=44.540932, lon.=34.277225, Alt.=-16.128677m. Speed=4.608000m/h.</desc>
<speed>1.280000</speed>
</trkpt>
<trkpt lat="44.540993" lon="34.277210">
<ele>-13.982796</ele>
<time>2011-10-12T14:31:22Z</time>
<desc>lat.=44.540993, lon.=34.277210, Alt.=-13.982796m. Speed=9.108000m/h.</desc>
<speed>2.530000</speed>
</trkpt>
<trkpt lat="44.541073" lon="34.277363">
<ele>-11.664192</ele>
<time>2011-10-12T14:31:27Z</time>
<desc>lat.=44.541073, lon.=34.277363, Alt.=-11.664192m. Speed=14.040000m/h.</desc>
<speed>3.900000</speed>
</trkpt>
<trkpt lat="44.541187" lon="34.277527">
<ele>-11.080208</ele>
<time>2011-10-12T14:31:32Z</time>
<desc>lat.=44.541187, lon.=34.277527, Alt.=-11.080208m. Speed=12.960000m/h.</desc>
<speed>3.600000</speed>
</trkpt>
<trkpt lat="44.541306" lon="34.277691">
<ele>-10.595345</ele>
<time>2011-10-12T14:31:37Z</time>
<desc>lat.=44.541306, lon.=34.277691, Alt.=-10.595345m. Speed=12.060000m/h.</desc>
<speed>3.350000</speed>
</trkpt>
<trkpt lat="44.541393" lon="34.277817">
<ele>-9.983284</ele>
<time>2011-10-12T14:31:42Z</time>
<desc>lat.=44.541393, lon.=34.277817, Alt.=-9.983284m. Speed=7.740000m/h.</desc>
<speed>2.150000</speed>
</trkpt>
<trkpt lat="44.541462" lon="34.277939">
<ele>-9.698128</ele>
<time>2011-10-12T14:31:47Z</time>
<desc>lat.=44.541462, lon.=34.277939, Alt.=-9.698128m. Speed=10.116000m/h.</desc>
<speed>2.810000</speed>
</trkpt>
<trkpt lat="44.541569" lon="34.278111">
<ele>-9.214973</ele>
<time>2011-10-12T14:31:52Z</time>
<desc>lat.=44.541569, lon.=34.278111, Alt.=-9.214973m. Speed=10.080000m/h.</desc>
<speed>2.800000</speed>
</trkpt>
<trkpt lat="44.541622" lon="34.278229">
<ele>-9.088753</ele>
<time>2011-10-12T14:31:57Z</time>
<desc>lat.=44.541622, lon.=34.278229, Alt.=-9.088753m. Speed=6.948000m/h.</desc>
<speed>1.930000</speed>
</trkpt>
<trkpt lat="44.541668" lon="34.278328">
<ele>-8.481331</ele>
<time>2011-10-12T14:32:02Z</time>
<desc>lat.=44.541668, lon.=34.278328, Alt.=-8.481331m. Speed=9.612000m/h.</desc>
<speed>2.670000</speed>
</trkpt>
<trkpt lat="44.541763" lon="34.278454">
<ele>-8.238411</ele>
<time>2011-10-12T14:32:07Z</time>
<desc>lat.=44.541763, lon.=34.278454, Alt.=-8.238411m. Speed=10.512000m/h.</desc>
<speed>2.920000</speed>
</trkpt>
<trkpt lat="44.541862" lon="34.278561">
<ele>-5.641056</ele>
<time>2011-10-12T14:32:12Z</time>
<desc>lat.=44.541862, lon.=34.278561, Alt.=-5.641056m. Speed=7.380000m/h.</desc>
<speed>2.050000</speed>
</trkpt>
<trkpt lat="44.541924" lon="34.278664">
<ele>-5.524967</ele>
<time>2011-10-12T14:32:17Z</time>
<desc>lat.=44.541924, lon.=34.278664, Alt.=-5.524967m. Speed=8.928000m/h.</desc>
<speed>2.480000</speed>
</trkpt>
<trkpt lat="44.541996" lon="34.278751">
<ele>-4.580387</ele>
<time>2011-10-12T14:32:22Z</time>
<desc>lat.=44.541996, lon.=34.278751, Alt.=-4.580387m. Speed=8.064000m/h.</desc>
<speed>2.240000</speed>
</trkpt>
<trkpt lat="44.542088" lon="34.278877">
<ele>-3.283663</ele>
<time>2011-10-12T14:32:27Z</time>
<desc>lat.=44.542088, lon.=34.278877, Alt.=-3.283663m. Speed=11.520000m/h.</desc>
<speed>3.200000</speed>
</trkpt>
<trkpt lat="44.542175" lon="34.279003">
<ele>-2.269869</ele>
<time>2011-10-12T14:32:32Z</time>
<desc>lat.=44.542175, lon.=34.279003, Alt.=-2.269869m. Speed=7.884000m/h.</desc>
<speed>2.190000</speed>
</trkpt>
<trkpt lat="44.542244" lon="34.279106">
<ele>-1.270005</ele>
<time>2011-10-12T14:32:37Z</time>
<desc>lat.=44.542244, lon.=34.279106, Alt.=-1.270005m. Speed=7.056000m/h.</desc>
<speed>1.960000</speed>
</trkpt>
<trkpt lat="44.542332" lon="34.279228">
<ele>0.564095</ele>
<time>2011-10-12T14:32:42Z</time>
<desc>lat.=44.542332, lon.=34.279228, Alt.=0.564095m. Speed=10.656000m/h.</desc>
<speed>2.960000</speed>
</trkpt>
<trkpt lat="44.542389" lon="34.279438">
<ele>2.813326</ele>
<time>2011-10-12T14:32:47Z</time>
<desc>lat.=44.542389, lon.=34.279438, Alt.=2.813326m. Speed=10.872000m/h.</desc>
<speed>3.020000</speed>
</trkpt>
<trkpt lat="44.542500" lon="34.279552">
<ele>5.112858</ele>
<time>2011-10-12T14:32:52Z</time>
<desc>lat.=44.542500, lon.=34.279552, Alt.=5.112858m. Speed=4.824000m/h.</desc>
<speed>1.340000</speed>
</trkpt>
<trkpt lat="44.542564" lon="34.279499">
<ele>6.846378</ele>
<time>2011-10-12T14:32:57Z</time>
<desc>lat.=44.542564, lon.=34.279499, Alt.=6.846378m. Speed=6.300000m/h.</desc>
<speed>1.750000</speed>
</trkpt>
<trkpt lat="44.542576" lon="34.279362">
<ele>8.755989</ele>
<time>2011-10-12T14:33:02Z</time>
<desc>lat.=44.542576, lon.=34.279362, Alt.=8.755989m. Speed=5.652000m/h.</desc>
<speed>1.570000</speed>
</trkpt>
<trkpt lat="44.542625" lon="34.279205">
<ele>11.060432</ele>
<time>2011-10-12T14:33:07Z</time>
<desc>lat.=44.542625, lon.=34.279205, Alt.=11.060432m. Speed=8.316000m/h.</desc>
<speed>2.310000</speed>
</trkpt>
<trkpt lat="44.542686" lon="34.279110">
<ele>13.449593</ele>
<time>2011-10-12T14:33:12Z</time>
<desc>lat.=44.542686, lon.=34.279110, Alt.=13.449593m. Speed=7.956000m/h.</desc>
<speed>2.210000</speed>
</trkpt>
<trkpt lat="44.542709" lon="34.279079">
<ele>15.778450</ele>
<time>2011-10-12T14:33:17Z</time>
<desc>lat.=44.542709, lon.=34.279079, Alt.=15.778450m. Speed=6.408000m/h.</desc>
<speed>1.780000</speed>
</trkpt>
<trkpt lat="44.542774" lon="34.279167">
<ele>16.551041</ele>
<time>2011-10-12T14:33:22Z</time>
<desc>lat.=44.542774, lon.=34.279167, Alt.=16.551041m. Speed=7.560000m/h.</desc>
<speed>2.100000</speed>
</trkpt>
<trkpt lat="44.542824" lon="34.279240">
<ele>17.547623</ele>
<time>2011-10-12T14:33:27Z</time>
<desc>lat.=44.542824, lon.=34.279240, Alt.=17.547623m. Speed=7.020000m/h.</desc>
<speed>1.950000</speed>
</trkpt>
<trkpt lat="44.542885" lon="34.279350">
<ele>18.897720</ele>
<time>2011-10-12T14:33:32Z</time>
<desc>lat.=44.542885, lon.=34.279350, Alt.=18.897720m. Speed=7.020000m/h.</desc>
<speed>1.950000</speed>
</trkpt>
<trkpt lat="44.542927" lon="34.279415">
<ele>21.144791</ele>
<time>2011-10-12T14:33:37Z</time>
<desc>lat.=44.542927, lon.=34.279415, Alt.=21.144791m. Speed=3.888000m/h.</desc>
<speed>1.080000</speed>
</trkpt>
<trkpt lat="44.542950" lon="34.279461">
<ele>23.858658</ele>
<time>2011-10-12T14:33:42Z</time>
<desc>lat.=44.542950, lon.=34.279461, Alt.=23.858658m. Speed=3.456000m/h.</desc>
<speed>0.960000</speed>
</trkpt>
<trkpt lat="44.542976" lon="34.279572">
<ele>26.264420</ele>
<time>2011-10-12T14:33:47Z</time>
<desc>lat.=44.542976, lon.=34.279572, Alt.=26.264420m. Speed=7.560000m/h.</desc>
<speed>2.100000</speed>
</trkpt>
<trkpt lat="44.543056" lon="34.279671">
<ele>28.801041</ele>
<time>2011-10-12T14:33:52Z</time>
<desc>lat.=44.543056, lon.=34.279671, Alt.=28.801041m. Speed=6.048000m/h.</desc>
<speed>1.680000</speed>
</trkpt>
<trkpt lat="44.543068" lon="34.279720">
<ele>30.593033</ele>
<time>2011-10-12T14:33:57Z</time>
<desc>lat.=44.543068, lon.=34.279720, Alt.=30.593033m. Speed=1.944000m/h.</desc>
<speed>0.540000</speed>
</trkpt>
<trkpt lat="44.543076" lon="34.279667">
<ele>32.426300</ele>
<time>2011-10-12T14:34:02Z</time>
<desc>lat.=44.543076, lon.=34.279667, Alt.=32.426300m. Speed=4.860000m/h.</desc>
<speed>1.350000</speed>
</trkpt>
<trkpt lat="44.543068" lon="34.279556">
<ele>33.475128</ele>
<time>2011-10-12T14:34:07Z</time>
<desc>lat.=44.543068, lon.=34.279556, Alt.=33.475128m. Speed=5.076000m/h.</desc>
<speed>1.410000</speed>
</trkpt>
<trkpt lat="44.543064" lon="34.279453">
<ele>34.622589</ele>
<time>2011-10-12T14:34:12Z</time>
<desc>lat.=44.543064, lon.=34.279453, Alt.=34.622589m. Speed=4.896000m/h.</desc>
<speed>1.360000</speed>
</trkpt>
<trkpt lat="44.543041" lon="34.279362">
<ele>35.753448</ele>
<time>2011-10-12T14:34:17Z</time>
<desc>lat.=44.543041, lon.=34.279362, Alt.=35.753448m. Speed=4.428000m/h.</desc>
<speed>1.230000</speed>
</trkpt>
<trkpt lat="44.543007" lon="34.279305">
<ele>36.339386</ele>
<time>2011-10-12T14:34:22Z</time>
<desc>lat.=44.543007, lon.=34.279305, Alt.=36.339386m. Speed=4.536000m/h.</desc>
<speed>1.260000</speed>
</trkpt>
<trkpt lat="44.543045" lon="34.279255">
<ele>32.770050</ele>
<time>2011-10-12T14:34:27Z</time>
<desc>lat.=44.543045, lon.=34.279255, Alt.=32.770050m. Speed=5.616000m/h.</desc>
<speed>1.560000</speed>
</trkpt>
<trkpt lat="44.543076" lon="34.279266">
<ele>32.911652</ele>
<time>2011-10-12T14:34:32Z</time>
<desc>lat.=44.543076, lon.=34.279266, Alt.=32.911652m. Speed=2.520000m/h.</desc>
<speed>0.700000</speed>
</trkpt>
<trkpt lat="44.543079" lon="34.279297">
<ele>33.637238</ele>
<time>2011-10-12T14:34:37Z</time>
<desc>lat.=44.543079, lon.=34.279297, Alt.=33.637238m. Speed=3.888000m/h.</desc>
<speed>1.080000</speed>
</trkpt>
<trkpt lat="44.543068" lon="34.279263">
<ele>33.324738</ele>
<time>2011-10-12T14:34:42Z</time>
<desc>lat.=44.543068, lon.=34.279263, Alt.=33.324738m. Speed=1.908000m/h.</desc>
<speed>0.530000</speed>
</trkpt>
<trkpt lat="44.543095" lon="34.279190">
<ele>32.101105</ele>
<time>2011-10-12T14:34:47Z</time>
<desc>lat.=44.543095, lon.=34.279190, Alt.=32.101105m. Speed=3.492000m/h.</desc>
<speed>0.970000</speed>
</trkpt>
<trkpt lat="44.543148" lon="34.279202">
<ele>32.416534</ele>
<time>2011-10-12T14:34:52Z</time>
<desc>lat.=44.543148, lon.=34.279202, Alt.=32.416534m. Speed=7.020000m/h.</desc>
<speed>1.950000</speed>
</trkpt>
<trkpt lat="44.543133" lon="34.279255">
<ele>33.272003</ele>
<time>2011-10-12T14:34:57Z</time>
<desc>lat.=44.543133, lon.=34.279255, Alt.=33.272003m. Speed=3.312000m/h.</desc>
<speed>0.920000</speed>
</trkpt>
<trkpt lat="44.543110" lon="34.279247">
<ele>29.612564</ele>
<time>2011-10-12T14:35:02Z</time>
<desc>lat.=44.543110, lon.=34.279247, Alt.=29.612564m. Speed=0.864000m/h.</desc>
<speed>0.240000</speed>
</trkpt>
<trkpt lat="44.543102" lon="34.279236">
<ele>28.949478</ele>
<time>2011-10-12T14:35:07Z</time>
<desc>lat.=44.543102, lon.=34.279236, Alt.=28.949478m. Speed=0.108000m/h.</desc>
<speed>0.030000</speed>
</trkpt>
<trkpt lat="44.543102" lon="34.279236">
<ele>29.055923</ele>
<time>2011-10-12T14:35:12Z</time>
<desc>lat.=44.543102, lon.=34.279236, Alt.=29.055923m. Speed=0.360000m/h.</desc>
<speed>0.100000</speed>
</trkpt>
<trkpt lat="44.543102" lon="34.279232">
<ele>29.253677</ele>
<time>2011-10-12T14:35:17Z</time>
<desc>lat.=44.543102, lon.=34.279232, Alt.=29.253677m. Speed=0.252000m/h.</desc>
<speed>0.070000</speed>
</trkpt>
<trkpt lat="44.543102" lon="34.279232">
<ele>29.325455</ele>
<time>2011-10-12T14:35:22Z</time>
<desc>lat.=44.543102, lon.=34.279232, Alt.=29.325455m. Speed=0.324000m/h.</desc>
<speed>0.090000</speed>
</trkpt>
<trkpt lat="44.543129" lon="34.279190">
<ele>29.054947</ele>
<time>2011-10-12T14:35:27Z</time>
<desc>lat.=44.543129, lon.=34.279190, Alt.=29.054947m. Speed=3.528000m/h.</desc>
<speed>0.980000</speed>
</trkpt>
<trkpt lat="44.543148" lon="34.279179">
<ele>28.935806</ele>
<time>2011-10-12T14:35:32Z</time>
<desc>lat.=44.543148, lon.=34.279179, Alt.=28.935806m. Speed=2.628000m/h.</desc>
<speed>0.730000</speed>
</trkpt>
<trkpt lat="44.543140" lon="34.279217">
<ele>28.480728</ele>
<time>2011-10-12T14:35:37Z</time>
<desc>lat.=44.543140, lon.=34.279217, Alt.=28.480728m. Speed=0.432000m/h.</desc>
<speed>0.120000</speed>
</trkpt>
<trkpt lat="44.543137" lon="34.279217">
<ele>28.463638</ele>
<time>2011-10-12T14:35:42Z</time>
<desc>lat.=44.543137, lon.=34.279217, Alt.=28.463638m. Speed=0.612000m/h.</desc>
<speed>0.170000</speed>
</trkpt>
<trkpt lat="44.543129" lon="34.279243">
<ele>28.537857</ele>
<time>2011-10-12T14:35:47Z</time>
<desc>lat.=44.543129, lon.=34.279243, Alt.=28.537857m. Speed=2.664000m/h.</desc>
<speed>0.740000</speed>
</trkpt>
<trkpt lat="44.543140" lon="34.279327">
<ele>28.733170</ele>
<time>2011-10-12T14:35:52Z</time>
<desc>lat.=44.543140, lon.=34.279327, Alt.=28.733170m. Speed=6.624000m/h.</desc>
<speed>1.840000</speed>
</trkpt>
<trkpt lat="44.543144" lon="34.279438">
<ele>28.333755</ele>
<time>2011-10-12T14:35:57Z</time>
<desc>lat.=44.543144, lon.=34.279438, Alt.=28.333755m. Speed=7.596000m/h.</desc>
<speed>2.110000</speed>
</trkpt>
<trkpt lat="44.543140" lon="34.279572">
<ele>28.240494</ele>
<time>2011-10-12T14:36:02Z</time>
<desc>lat.=44.543140, lon.=34.279572, Alt.=28.240494m. Speed=8.100000m/h.</desc>
<speed>2.250000</speed>
</trkpt>
<trkpt lat="44.543110" lon="34.279728">
<ele>28.273209</ele>
<time>2011-10-12T14:36:07Z</time>
<desc>lat.=44.543110, lon.=34.279728, Alt.=28.273209m. Speed=9.900000m/h.</desc>
<speed>2.750000</speed>
</trkpt>
<trkpt lat="44.543129" lon="34.279877">
<ele>28.813736</ele>
<time>2011-10-12T14:36:12Z</time>
<desc>lat.=44.543129, lon.=34.279877, Alt.=28.813736m. Speed=8.676000m/h.</desc>
<speed>2.410000</speed>
</trkpt>
<trkpt lat="44.543129" lon="34.280064">
<ele>28.885513</ele>
<time>2011-10-12T14:36:17Z</time>
<desc>lat.=44.543129, lon.=34.280064, Alt.=28.885513m. Speed=8.532000m/h.</desc>
<speed>2.370000</speed>
</trkpt>
<trkpt lat="44.543129" lon="34.280216">
<ele>28.874283</ele>
<time>2011-10-12T14:36:22Z</time>
<desc>lat.=44.543129, lon.=34.280216, Alt.=28.874283m. Speed=8.856000m/h.</desc>
<speed>2.460000</speed>
</trkpt>
<trkpt lat="44.543118" lon="34.280376">
<ele>29.069107</ele>
<time>2011-10-12T14:36:27Z</time>
<desc>lat.=44.543118, lon.=34.280376, Alt.=29.069107m. Speed=8.352000m/h.</desc>
<speed>2.320000</speed>
</trkpt>
<trkpt lat="44.543118" lon="34.280502">
<ele>27.939224</ele>
<time>2011-10-12T14:36:32Z</time>
<desc>lat.=44.543118, lon.=34.280502, Alt.=27.939224m. Speed=7.020000m/h.</desc>
<speed>1.950000</speed>
</trkpt>
<trkpt lat="44.543137" lon="34.280643">
<ele>28.076920</ele>
<time>2011-10-12T14:36:37Z</time>
<desc>lat.=44.543137, lon.=34.280643, Alt.=28.076920m. Speed=8.820000m/h.</desc>
<speed>2.450000</speed>
</trkpt>
<trkpt lat="44.543137" lon="34.280807">
<ele>27.654068</ele>
<time>2011-10-12T14:36:42Z</time>
<desc>lat.=44.543137, lon.=34.280807, Alt.=27.654068m. Speed=6.228000m/h.</desc>
<speed>1.730000</speed>
</trkpt>
<trkpt lat="44.543118" lon="34.280945">
<ele>28.329361</ele>
<time>2011-10-12T14:36:47Z</time>
<desc>lat.=44.543118, lon.=34.280945, Alt.=28.329361m. Speed=6.120000m/h.</desc>
<speed>1.700000</speed>
</trkpt>
<trkpt lat="44.543125" lon="34.281094">
<ele>28.747818</ele>
<time>2011-10-12T14:36:52Z</time>
<desc>lat.=44.543125, lon.=34.281094, Alt.=28.747818m. Speed=7.308000m/h.</desc>
<speed>2.030000</speed>
</trkpt>
<trkpt lat="44.543121" lon="34.281265">
<ele>30.199966</ele>
<time>2011-10-12T14:36:57Z</time>
<desc>lat.=44.543121, lon.=34.281265, Alt.=30.199966m. Speed=9.288000m/h.</desc>
<speed>2.580000</speed>
</trkpt>
<trkpt lat="44.543091" lon="34.281445">
<ele>33.463409</ele>
<time>2011-10-12T14:37:02Z</time>
<desc>lat.=44.543091, lon.=34.281445, Alt.=33.463409m. Speed=7.776000m/h.</desc>
<speed>2.160000</speed>
</trkpt>
<trkpt lat="44.543079" lon="34.281601">
<ele>34.997589</ele>
<time>2011-10-12T14:37:07Z</time>
<desc>lat.=44.543079, lon.=34.281601, Alt.=34.997589m. Speed=8.856000m/h.</desc>
<speed>2.460000</speed>
</trkpt>
<trkpt lat="44.543064" lon="34.281746">
<ele>36.261261</ele>
<time>2011-10-12T14:37:12Z</time>
<desc>lat.=44.543064, lon.=34.281746, Alt.=36.261261m. Speed=4.068000m/h.</desc>
<speed>1.130000</speed>
</trkpt>
<trkpt lat="44.543045" lon="34.281872">
<ele>38.236847</ele>
<time>2011-10-12T14:37:17Z</time>
<desc>lat.=44.543045, lon.=34.281872, Alt.=38.236847m. Speed=10.548000m/h.</desc>
<speed>2.930000</speed>
</trkpt>
<trkpt lat="44.543072" lon="34.282024">
<ele>40.453644</ele>
<time>2011-10-12T14:37:22Z</time>
<desc>lat.=44.543072, lon.=34.282024, Alt.=40.453644m. Speed=9.144000m/h.</desc>
<speed>2.540000</speed>
</trkpt>
<trkpt lat="44.543121" lon="34.282139">
<ele>43.142120</ele>
<time>2011-10-12T14:37:27Z</time>
<desc>lat.=44.543121, lon.=34.282139, Alt.=43.142120m. Speed=8.136000m/h.</desc>
<speed>2.260000</speed>
</trkpt>
<trkpt lat="44.543186" lon="34.282280">
<ele>44.571808</ele>
<time>2011-10-12T14:37:32Z</time>
<desc>lat.=44.543186, lon.=34.282280, Alt.=44.571808m. Speed=9.504000m/h.</desc>
<speed>2.640000</speed>
</trkpt>
<trkpt lat="44.543259" lon="34.282448">
<ele>44.806183</ele>
<time>2011-10-12T14:37:37Z</time>
<desc>lat.=44.543259, lon.=34.282448, Alt.=44.806183m. Speed=8.712000m/h.</desc>
<speed>2.420000</speed>
</trkpt>
<trkpt lat="44.543362" lon="34.282543">
<ele>44.772980</ele>
<time>2011-10-12T14:37:42Z</time>
<desc>lat.=44.543362, lon.=34.282543, Alt.=44.772980m. Speed=11.232000m/h.</desc>
<speed>3.120000</speed>
</trkpt>
<trkpt lat="44.543438" lon="34.282715">
<ele>43.514191</ele>
<time>2011-10-12T14:37:47Z</time>
<desc>lat.=44.543438, lon.=34.282715, Alt.=43.514191m. Speed=11.952000m/h.</desc>
<speed>3.320000</speed>
</trkpt>
<trkpt lat="44.543571" lon="34.282829">
<ele>43.269073</ele>
<time>2011-10-12T14:37:52Z</time>
<desc>lat.=44.543571, lon.=34.282829, Alt.=43.269073m. Speed=11.412000m/h.</desc>
<speed>3.170000</speed>
</trkpt>
<trkpt lat="44.543682" lon="34.282936">
<ele>39.723175</ele>
<time>2011-10-12T14:37:57Z</time>
<desc>lat.=44.543682, lon.=34.282936, Alt.=39.723175m. Speed=9.684000m/h.</desc>
<speed>2.690000</speed>
</trkpt>
<trkpt lat="44.543713" lon="34.282986">
<ele>37.919464</ele>
<time>2011-10-12T14:38:02Z</time>
<desc>lat.=44.543713, lon.=34.282986, Alt.=37.919464m. Speed=0.720000m/h.</desc>
<speed>0.200000</speed>
</trkpt>
<trkpt lat="44.543720" lon="34.283009">
<ele>37.956573</ele>
<time>2011-10-12T14:38:07Z</time>
<desc>lat.=44.543720, lon.=34.283009, Alt.=37.956573m. Speed=0.612000m/h.</desc>
<speed>0.170000</speed>
</trkpt>
<trkpt lat="44.543720" lon="34.283012">
<ele>37.992706</ele>
<time>2011-10-12T14:38:12Z</time>
<desc>lat.=44.543720, lon.=34.283012, Alt.=37.992706m. Speed=0.324000m/h.</desc>
<speed>0.090000</speed>
</trkpt>
<trkpt lat="44.543716" lon="34.283016">
<ele>38.029816</ele>
<time>2011-10-12T14:38:17Z</time>
<desc>lat.=44.543716, lon.=34.283016, Alt.=38.029816m. Speed=0.324000m/h.</desc>
<speed>0.090000</speed>
</trkpt>
<trkpt lat="44.543716" lon="34.283016">
<ele>38.025909</ele>
<time>2011-10-12T14:38:22Z</time>
<desc>lat.=44.543716, lon.=34.283016, Alt.=38.025909m. Speed=0.288000m/h.</desc>
<speed>0.080000</speed>
</trkpt>
<trkpt lat="44.543716" lon="34.283012">
<ele>38.011261</ele>
<time>2011-10-12T14:38:27Z</time>
<desc>lat.=44.543716, lon.=34.283012, Alt.=38.011261m. Speed=0.072000m/h.</desc>
<speed>0.020000</speed>
</trkpt>
<trkpt lat="44.543716" lon="34.283012">
<ele>38.021027</ele>
<time>2011-10-12T14:38:32Z</time>
<desc>lat.=44.543716, lon.=34.283012, Alt.=38.021027m. Speed=0.180000m/h.</desc>
<speed>0.050000</speed>
</trkpt>
<trkpt lat="44.543716" lon="34.283016">
<ele>38.057159</ele>
<time>2011-10-12T14:38:37Z</time>
<desc>lat.=44.543716, lon.=34.283016, Alt.=38.057159m. Speed=0.360000m/h.</desc>
<speed>0.100000</speed>
</trkpt>
<trkpt lat="44.543716" lon="34.283012">
<ele>38.152863</ele>
<time>2011-10-12T14:38:42Z</time>
<desc>lat.=44.543716, lon.=34.283012, Alt.=38.152863m. Speed=0.180000m/h.</desc>
<speed>0.050000</speed>
</trkpt>
<trkpt lat="44.543716" lon="34.283012">
<ele>38.107941</ele>
<time>2011-10-12T14:38:47Z</time>
<desc>lat.=44.543716, lon.=34.283012, Alt.=38.107941m. Speed=0.072000m/h.</desc>
<speed>0.020000</speed>
</trkpt>
<trkpt lat="44.543728" lon="34.283031">
<ele>37.751495</ele>
<time>2011-10-12T14:38:52Z</time>
<desc>lat.=44.543728, lon.=34.283031, Alt.=37.751495m. Speed=7.632000m/h.</desc>
<speed>2.120000</speed>
</trkpt>
<trkpt lat="44.543869" lon="34.283165">
<ele>37.702667</ele>
<time>2011-10-12T14:38:57Z</time>
<desc>lat.=44.543869, lon.=34.283165, Alt.=37.702667m. Speed=13.500000m/h.</desc>
<speed>3.750000</speed>
</trkpt>
<trkpt lat="44.543957" lon="34.283333">
<ele>38.006378</ele>
<time>2011-10-12T14:39:02Z</time>
<desc>lat.=44.543957, lon.=34.283333, Alt.=38.006378m. Speed=14.796000m/h.</desc>
<speed>4.110000</speed>
</trkpt>
<trkpt lat="44.544086" lon="34.283550">
<ele>37.190948</ele>
<time>2011-10-12T14:39:07Z</time>
<desc>lat.=44.544086, lon.=34.283550, Alt.=37.190948m. Speed=15.912000m/h.</desc>
<speed>4.420000</speed>
</trkpt>
<trkpt lat="44.544235" lon="34.283775">
<ele>37.912628</ele>
<time>2011-10-12T14:39:12Z</time>
<desc>lat.=44.544235, lon.=34.283775, Alt.=37.912628m. Speed=17.892000m/h.</desc>
<speed>4.970000</speed>
</trkpt>
<trkpt lat="44.544384" lon="34.283989">
<ele>37.792511</ele>
<time>2011-10-12T14:39:17Z</time>
<desc>lat.=44.544384, lon.=34.283989, Alt.=37.792511m. Speed=16.344000m/h.</desc>
<speed>4.540000</speed>
</trkpt>
<trkpt lat="44.544495" lon="34.284176">
<ele>37.990753</ele>
<time>2011-10-12T14:39:22Z</time>
<desc>lat.=44.544495, lon.=34.284176, Alt.=37.990753m. Speed=11.880000m/h.</desc>
<speed>3.300000</speed>
</trkpt>
<trkpt lat="44.544582" lon="34.284348">
<ele>37.400909</ele>
<time>2011-10-12T14:39:27Z</time>
<desc>lat.=44.544582, lon.=34.284348, Alt.=37.400909m. Speed=10.800000m/h.</desc>
<speed>3.000000</speed>
</trkpt>
<trkpt lat="44.544624" lon="34.284473">
<ele>39.743683</ele>
<time>2011-10-12T14:39:32Z</time>
<desc>lat.=44.544624, lon.=34.284473, Alt.=39.743683m. Speed=4.608000m/h.</desc>
<speed>1.280000</speed>
</trkpt>
<trkpt lat="44.544685" lon="34.284534">
<ele>38.555206</ele>
<time>2011-10-12T14:39:37Z</time>
<desc>lat.=44.544685, lon.=34.284534, Alt.=38.555206m. Speed=4.860000m/h.</desc>
<speed>1.350000</speed>
</trkpt>
<trkpt lat="44.544746" lon="34.284634">
<ele>37.932159</ele>
<time>2011-10-12T14:39:42Z</time>
<desc>lat.=44.544746, lon.=34.284634, Alt.=37.932159m. Speed=9.576000m/h.</desc>
<speed>2.660000</speed>
</trkpt>
<trkpt lat="44.544868" lon="34.284740">
<ele>37.037628</ele>
<time>2011-10-12T14:39:47Z</time>
<desc>lat.=44.544868, lon.=34.284740, Alt.=37.037628m. Speed=11.304000m/h.</desc>
<speed>3.140000</speed>
</trkpt>
<trkpt lat="44.545036" lon="34.284863">
<ele>35.161652</ele>
<time>2011-10-12T14:39:52Z</time>
<desc>lat.=44.545036, lon.=34.284863, Alt.=35.161652m. Speed=14.868000m/h.</desc>
<speed>4.130000</speed>
</trkpt>
<trkpt lat="44.545246" lon="34.284966">
<ele>33.275909</ele>
<time>2011-10-12T14:39:57Z</time>
<desc>lat.=44.545246, lon.=34.284966, Alt.=33.275909m. Speed=18.035999m/h.</desc>
<speed>5.010000</speed>
</trkpt>
<trkpt lat="44.545506" lon="34.285084">
<ele>30.669205</ele>
<time>2011-10-12T14:40:02Z</time>
<desc>lat.=44.545506, lon.=34.285084, Alt.=30.669205m. Speed=18.972000m/h.</desc>
<speed>5.270000</speed>
</trkpt>
<trkpt lat="44.545753" lon="34.285206">
<ele>28.369400</ele>
<time>2011-10-12T14:40:07Z</time>
<desc>lat.=44.545753, lon.=34.285206, Alt.=28.369400m. Speed=18.143999m/h.</desc>
<speed>5.040000</speed>
</trkpt>
<trkpt lat="44.546055" lon="34.285355">
<ele>25.619400</ele>
<time>2011-10-12T14:40:12Z</time>
<desc>lat.=44.546055, lon.=34.285355, Alt.=25.619400m. Speed=19.368000m/h.</desc>
<speed>5.380000</speed>
</trkpt>
<trkpt lat="44.546337" lon="34.285358">
<ele>24.293716</ele>
<time>2011-10-12T14:40:17Z</time>
<desc>lat.=44.546337, lon.=34.285358, Alt.=24.293716m. Speed=17.172001m/h.</desc>
<speed>4.770000</speed>
</trkpt>
<trkpt lat="44.546497" lon="34.285561">
<ele>24.657974</ele>
<time>2011-10-12T14:40:22Z</time>
<desc>lat.=44.546497, lon.=34.285561, Alt.=24.657974m. Speed=16.596001m/h.</desc>
<speed>4.610000</speed>
</trkpt>
<trkpt lat="44.546520" lon="34.285717">
<ele>26.013931</ele>
<time>2011-10-12T14:40:27Z</time>
<desc>lat.=44.546520, lon.=34.285717, Alt.=26.013931m. Speed=5.688000m/h.</desc>
<speed>1.580000</speed>
</trkpt>
<trkpt lat="44.546524" lon="34.285862">
<ele>27.946060</ele>
<time>2011-10-12T14:40:32Z</time>
<desc>lat.=44.546524, lon.=34.285862, Alt.=27.946060m. Speed=12.096000m/h.</desc>
<speed>3.360000</speed>
</trkpt>
<trkpt lat="44.546509" lon="34.286098">
<ele>30.898697</ele>
<time>2011-10-12T14:40:37Z</time>
<desc>lat.=44.546509, lon.=34.286098, Alt.=30.898697m. Speed=13.860000m/h.</desc>
<speed>3.850000</speed>
</trkpt>
<trkpt lat="44.546551" lon="34.286343">
<ele>30.574966</ele>
<time>2011-10-12T14:40:42Z</time>
<desc>lat.=44.546551, lon.=34.286343, Alt.=30.574966m. Speed=14.364000m/h.</desc>
<speed>3.990000</speed>
</trkpt>
<trkpt lat="44.546612" lon="34.286594">
<ele>31.655045</ele>
<time>2011-10-12T14:40:47Z</time>
<desc>lat.=44.546612, lon.=34.286594, Alt.=31.655045m. Speed=15.048000m/h.</desc>
<speed>4.180000</speed>
</trkpt>
<trkpt lat="44.546658" lon="34.286808">
<ele>33.032745</ele>
<time>2011-10-12T14:40:52Z</time>
<desc>lat.=44.546658, lon.=34.286808, Alt.=33.032745m. Speed=11.772000m/h.</desc>
<speed>3.270000</speed>
</trkpt>
<trkpt lat="44.546711" lon="34.287010">
<ele>34.167511</ele>
<time>2011-10-12T14:40:57Z</time>
<desc>lat.=44.546711, lon.=34.287010, Alt.=34.167511m. Speed=12.456000m/h.</desc>
<speed>3.460000</speed>
</trkpt>
<trkpt lat="44.546761" lon="34.287174">
<ele>36.591339</ele>
<time>2011-10-12T14:41:02Z</time>
<desc>lat.=44.546761, lon.=34.287174, Alt.=36.591339m. Speed=8.028000m/h.</desc>
<speed>2.230000</speed>
</trkpt>
<trkpt lat="44.546803" lon="34.287350">
<ele>37.780792</ele>
<time>2011-10-12T14:41:07Z</time>
<desc>lat.=44.546803, lon.=34.287350, Alt.=37.780792m. Speed=10.476000m/h.</desc>
<speed>2.910000</speed>
</trkpt>
<trkpt lat="44.546867" lon="34.287502">
<ele>39.629425</ele>
<time>2011-10-12T14:41:12Z</time>
<desc>lat.=44.546867, lon.=34.287502, Alt.=39.629425m. Speed=9.864000m/h.</desc>
<speed>2.740000</speed>
</trkpt>
<trkpt lat="44.546932" lon="34.287655">
<ele>42.522980</ele>
<time>2011-10-12T14:41:17Z</time>
<desc>lat.=44.546932, lon.=34.287655, Alt.=42.522980m. Speed=10.872000m/h.</desc>
<speed>3.020000</speed>
</trkpt>
<trkpt lat="44.547028" lon="34.287800">
<ele>41.658722</ele>
<time>2011-10-12T14:41:22Z</time>
<desc>lat.=44.547028, lon.=34.287800, Alt.=41.658722m. Speed=9.360000m/h.</desc>
<speed>2.600000</speed>
</trkpt>
<trkpt lat="44.547104" lon="34.287933">
<ele>44.200714</ele>
<time>2011-10-12T14:41:27Z</time>
<desc>lat.=44.547104, lon.=34.287933, Alt.=44.200714m. Speed=9.684000m/h.</desc>
<speed>2.690000</speed>
</trkpt>
<trkpt lat="44.547157" lon="34.288071">
<ele>45.604034</ele>
<time>2011-10-12T14:41:32Z</time>
<desc>lat.=44.547157, lon.=34.288071, Alt.=45.604034m. Speed=9.036000m/h.</desc>
<speed>2.510000</speed>
</trkpt>
<trkpt lat="44.547230" lon="34.288212">
<ele>47.756378</ele>
<time>2011-10-12T14:41:37Z</time>
<desc>lat.=44.547230, lon.=34.288212, Alt.=47.756378m. Speed=9.756000m/h.</desc>
<speed>2.710000</speed>
</trkpt>
<trkpt lat="44.547295" lon="34.288349">
<ele>49.714386</ele>
<time>2011-10-12T14:41:42Z</time>
<desc>lat.=44.547295, lon.=34.288349, Alt.=49.714386m. Speed=8.820000m/h.</desc>
<speed>2.450000</speed>
</trkpt>
<trkpt lat="44.547363" lon="34.288479">
<ele>51.458527</ele>
<time>2011-10-12T14:41:47Z</time>
<desc>lat.=44.547363, lon.=34.288479, Alt.=51.458527m. Speed=9.648000m/h.</desc>
<speed>2.680000</speed>
</trkpt>
<trkpt lat="44.547440" lon="34.288578">
<ele>51.185089</ele>
<time>2011-10-12T14:41:52Z</time>
<desc>lat.=44.547440, lon.=34.288578, Alt.=51.185089m. Speed=9.108000m/h.</desc>
<speed>2.530000</speed>
</trkpt>
<trkpt lat="44.547504" lon="34.288689">
<ele>50.009308</ele>
<time>2011-10-12T14:41:57Z</time>
<desc>lat.=44.547504, lon.=34.288689, Alt.=50.009308m. Speed=9.072000m/h.</desc>
<speed>2.520000</speed>
</trkpt>
<trkpt lat="44.547550" lon="34.288834">
<ele>50.484894</ele>
<time>2011-10-12T14:42:02Z</time>
<desc>lat.=44.547550, lon.=34.288834, Alt.=50.484894m. Speed=8.280000m/h.</desc>
<speed>2.300000</speed>
</trkpt>
<trkpt lat="44.547626" lon="34.288937">
<ele>51.445831</ele>
<time>2011-10-12T14:42:07Z</time>
<desc>lat.=44.547626, lon.=34.288937, Alt.=51.445831m. Speed=5.580000m/h.</desc>
<speed>1.550000</speed>
</trkpt>
<trkpt lat="44.547714" lon="34.289028">
<ele>53.665558</ele>
<time>2011-10-12T14:42:12Z</time>
<desc>lat.=44.547714, lon.=34.289028, Alt.=53.665558m. Speed=8.388000m/h.</desc>
<speed>2.330000</speed>
</trkpt>
<trkpt lat="44.547775" lon="34.289120">
<ele>55.251495</ele>
<time>2011-10-12T14:42:17Z</time>
<desc>lat.=44.547775, lon.=34.289120, Alt.=55.251495m. Speed=6.768000m/h.</desc>
<speed>1.880000</speed>
</trkpt>
<trkpt lat="44.547806" lon="34.289246">
<ele>57.670441</ele>
<time>2011-10-12T14:42:22Z</time>
<desc>lat.=44.547806, lon.=34.289246, Alt.=57.670441m. Speed=6.804000m/h.</desc>
<speed>1.890000</speed>
</trkpt>
<trkpt lat="44.547840" lon="34.289379">
<ele>60.558136</ele>
<time>2011-10-12T14:42:27Z</time>
<desc>lat.=44.547840, lon.=34.289379, Alt.=60.558136m. Speed=8.136000m/h.</desc>
<speed>2.260000</speed>
</trkpt>
<trkpt lat="44.547886" lon="34.289486">
<ele>63.073761</ele>
<time>2011-10-12T14:42:32Z</time>
<desc>lat.=44.547886, lon.=34.289486, Alt.=63.073761m. Speed=5.292000m/h.</desc>
<speed>1.470000</speed>
</trkpt>
<trkpt lat="44.547878" lon="34.289574">
<ele>66.868225</ele>
<time>2011-10-12T14:42:37Z</time>
<desc>lat.=44.547878, lon.=34.289574, Alt.=66.868225m. Speed=4.104000m/h.</desc>
<speed>1.140000</speed>
</trkpt>
<trkpt lat="44.547920" lon="34.289661">
<ele>69.911194</ele>
<time>2011-10-12T14:42:42Z</time>
<desc>lat.=44.547920, lon.=34.289661, Alt.=69.911194m. Speed=6.444000m/h.</desc>
<speed>1.790000</speed>
</trkpt>
<trkpt lat="44.547993" lon="34.289780">
<ele>70.448303</ele>
<time>2011-10-12T14:42:47Z</time>
<desc>lat.=44.547993, lon.=34.289780, Alt.=70.448303m. Speed=7.380000m/h.</desc>
<speed>2.050000</speed>
</trkpt>
<trkpt lat="44.548019" lon="34.289875">
<ele>72.622131</ele>
<time>2011-10-12T14:42:52Z</time>
<desc>lat.=44.548019, lon.=34.289875, Alt.=72.622131m. Speed=7.056000m/h.</desc>
<speed>1.960000</speed>
</trkpt>
<trkpt lat="44.548088" lon="34.289982">
<ele>73.602600</ele>
<time>2011-10-12T14:42:57Z</time>
<desc>lat.=44.548088, lon.=34.289982, Alt.=73.602600m. Speed=6.948000m/h.</desc>
<speed>1.930000</speed>
</trkpt>
<trkpt lat="44.548149" lon="34.290127">
<ele>73.096741</ele>
<time>2011-10-12T14:43:02Z</time>
<desc>lat.=44.548149, lon.=34.290127, Alt.=73.096741m. Speed=7.992000m/h.</desc>
<speed>2.220000</speed>
</trkpt>
<trkpt lat="44.548214" lon="34.290249">
<ele>72.862366</ele>
<time>2011-10-12T14:43:07Z</time>
<desc>lat.=44.548214, lon.=34.290249, Alt.=72.862366m. Speed=8.244000m/h.</desc>
<speed>2.290000</speed>
</trkpt>
<trkpt lat="44.548267" lon="34.290340">
<ele>73.479553</ele>
<time>2011-10-12T14:43:12Z</time>
<desc>lat.=44.548267, lon.=34.290340, Alt.=73.479553m. Speed=6.228000m/h.</desc>
<speed>1.730000</speed>
</trkpt>
<trkpt lat="44.548321" lon="34.290424">
<ele>74.004944</ele>
<time>2011-10-12T14:43:17Z</time>
<desc>lat.=44.548321, lon.=34.290424, Alt.=74.004944m. Speed=7.704000m/h.</desc>
<speed>2.140000</speed>
</trkpt>
<trkpt lat="44.548424" lon="34.290497">
<ele>73.510803</ele>
<time>2011-10-12T14:43:22Z</time>
<desc>lat.=44.548424, lon.=34.290497, Alt.=73.510803m. Speed=8.460000m/h.</desc>
<speed>2.350000</speed>
</trkpt>
<trkpt lat="44.548542" lon="34.290482">
<ele>72.448303</ele>
<time>2011-10-12T14:43:27Z</time>
<desc>lat.=44.548542, lon.=34.290482, Alt.=72.448303m. Speed=7.956000m/h.</desc>
<speed>2.210000</speed>
</trkpt>
<trkpt lat="44.548653" lon="34.290493">
<ele>69.258850</ele>
<time>2011-10-12T14:43:32Z</time>
<desc>lat.=44.548653, lon.=34.290493, Alt.=69.258850m. Speed=9.612000m/h.</desc>
<speed>2.670000</speed>
</trkpt>
<trkpt lat="44.548771" lon="34.290539">
<ele>68.458069</ele>
<time>2011-10-12T14:43:37Z</time>
<desc>lat.=44.548771, lon.=34.290539, Alt.=68.458069m. Speed=7.884000m/h.</desc>
<speed>2.190000</speed>
</trkpt>
<trkpt lat="44.548893" lon="34.290627">
<ele>66.272522</ele>
<time>2011-10-12T14:43:42Z</time>
<desc>lat.=44.548893, lon.=34.290627, Alt.=66.272522m. Speed=10.656000m/h.</desc>
<speed>2.960000</speed>
</trkpt>
<trkpt lat="44.548958" lon="34.290779">
<ele>67.032288</ele>
<time>2011-10-12T14:43:47Z</time>
<desc>lat.=44.548958, lon.=34.290779, Alt.=67.032288m. Speed=8.496000m/h.</desc>
<speed>2.360000</speed>
</trkpt>
<trkpt lat="44.549026" lon="34.290951">
<ele>67.723694</ele>
<time>2011-10-12T14:43:52Z</time>
<desc>lat.=44.549026, lon.=34.290951, Alt.=67.723694m. Speed=12.276000m/h.</desc>
<speed>3.410000</speed>
</trkpt>
<trkpt lat="44.549137" lon="34.291187">
<ele>67.852600</ele>
<time>2011-10-12T14:43:57Z</time>
<desc>lat.=44.549137, lon.=34.291187, Alt.=67.852600m. Speed=18.216000m/h.</desc>
<speed>5.060000</speed>
</trkpt>
<trkpt lat="44.549213" lon="34.291565">
<ele>67.608459</ele>
<time>2011-10-12T14:44:02Z</time>
<desc>lat.=44.549213, lon.=34.291565, Alt.=67.608459m. Speed=20.628000m/h.</desc>
<speed>5.730000</speed>
</trkpt>
<trkpt lat="44.549248" lon="34.292000">
<ele>68.309631</ele>
<time>2011-10-12T14:44:07Z</time>
<desc>lat.=44.549248, lon.=34.292000, Alt.=68.309631m. Speed=26.568001m/h.</desc>
<speed>7.380000</speed>
</trkpt>
<trkpt lat="44.549301" lon="34.292465">
<ele>67.333069</ele>
<time>2011-10-12T14:44:12Z</time>
<desc>lat.=44.549301, lon.=34.292465, Alt.=67.333069m. Speed=25.559999m/h.</desc>
<speed>7.100000</speed>
</trkpt>
<trkpt lat="44.549427" lon="34.292995">
<ele>60.141144</ele>
<time>2011-10-12T14:44:17Z</time>
<desc>lat.=44.549427, lon.=34.292995, Alt.=60.141144m. Speed=32.759998m/h.</desc>
<speed>9.100000</speed>
</trkpt>
<trkpt lat="44.549595" lon="34.293541">
<ele>57.512238</ele>
<time>2011-10-12T14:44:22Z</time>
<desc>lat.=44.549595, lon.=34.293541, Alt.=57.512238m. Speed=33.804001m/h.</desc>
<speed>9.390000</speed>
</trkpt>
<trkpt lat="44.549858" lon="34.294052">
<ele>52.614777</ele>
<time>2011-10-12T14:44:27Z</time>
<desc>lat.=44.549858, lon.=34.294052, Alt.=52.614777m. Speed=37.080002m/h.</desc>
<speed>10.300001</speed>
</trkpt>
<trkpt lat="44.550163" lon="34.294609">
<ele>44.445831</ele>
<time>2011-10-12T14:44:32Z</time>
<desc>lat.=44.550163, lon.=34.294609, Alt.=44.445831m. Speed=41.903999m/h.</desc>
<speed>11.640000</speed>
</trkpt>
<trkpt lat="44.550434" lon="34.295238">
<ele>39.385284</ele>
<time>2011-10-12T14:44:37Z</time>
<desc>lat.=44.550434, lon.=34.295238, Alt.=39.385284m. Speed=40.284000m/h.</desc>
<speed>11.190000</speed>
</trkpt>
<trkpt lat="44.550686" lon="34.295795">
<ele>36.501495</ele>
<time>2011-10-12T14:44:42Z</time>
<desc>lat.=44.550686, lon.=34.295795, Alt.=36.501495m. Speed=29.304001m/h.</desc>
<speed>8.140000</speed>
</trkpt>
<trkpt lat="44.550739" lon="34.296192">
<ele>33.546417</ele>
<time>2011-10-12T14:44:47Z</time>
<desc>lat.=44.550739, lon.=34.296192, Alt.=33.546417m. Speed=20.016001m/h.</desc>
<speed>5.560000</speed>
</trkpt>
<trkpt lat="44.550648" lon="34.296566">
<ele>33.232941</ele>
<time>2011-10-12T14:44:52Z</time>
<desc>lat.=44.550648, lon.=34.296566, Alt.=33.232941m. Speed=21.708000m/h.</desc>
<speed>6.030000</speed>
</trkpt>
<trkpt lat="44.550602" lon="34.296974">
<ele>33.247589</ele>
<time>2011-10-12T14:44:57Z</time>
<desc>lat.=44.550602, lon.=34.296974, Alt.=33.247589m. Speed=16.740000m/h.</desc>
<speed>4.650000</speed>
</trkpt>
<trkpt lat="44.550690" lon="34.297180">
<ele>40.127472</ele>
<time>2011-10-12T14:45:02Z</time>
<desc>lat.=44.550690, lon.=34.297180, Alt.=40.127472m. Speed=4.320000m/h.</desc>
<speed>1.200000</speed>
</trkpt>
<trkpt lat="44.550739" lon="34.297234">
<ele>43.074738</ele>
<time>2011-10-12T14:45:07Z</time>
<desc>lat.=44.550739, lon.=34.297234, Alt.=43.074738m. Speed=7.560000m/h.</desc>
<speed>2.100000</speed>
</trkpt>
<trkpt lat="44.550777" lon="34.297401">
<ele>40.629425</ele>
<time>2011-10-12T14:45:12Z</time>
<desc>lat.=44.550777, lon.=34.297401, Alt.=40.629425m. Speed=10.224000m/h.</desc>
<speed>2.840000</speed>
</trkpt>
<trkpt lat="44.550865" lon="34.297573">
<ele>43.144073</ele>
<time>2011-10-12T14:45:17Z</time>
<desc>lat.=44.550865, lon.=34.297573, Alt.=43.144073m. Speed=13.068000m/h.</desc>
<speed>3.630000</speed>
</trkpt>
<trkpt lat="44.551025" lon="34.297688">
<ele>42.313995</ele>
<time>2011-10-12T14:45:22Z</time>
<desc>lat.=44.551025, lon.=34.297688, Alt.=42.313995m. Speed=14.796000m/h.</desc>
<speed>4.110000</speed>
</trkpt>
<trkpt lat="44.551182" lon="34.297813">
<ele>43.222198</ele>
<time>2011-10-12T14:45:27Z</time>
<desc>lat.=44.551182, lon.=34.297813, Alt.=43.222198m. Speed=14.184000m/h.</desc>
<speed>3.940000</speed>
</trkpt>
<trkpt lat="44.551346" lon="34.297947">
<ele>44.406769</ele>
<time>2011-10-12T14:45:32Z</time>
<desc>lat.=44.551346, lon.=34.297947, Alt.=44.406769m. Speed=13.428000m/h.</desc>
<speed>3.730000</speed>
</trkpt>
<trkpt lat="44.551449" lon="34.298157">
<ele>46.938995</ele>
<time>2011-10-12T14:45:37Z</time>
<desc>lat.=44.551449, lon.=34.298157, Alt.=46.938995m. Speed=14.328000m/h.</desc>
<speed>3.980000</speed>
</trkpt>
<trkpt lat="44.551502" lon="34.298409">
<ele>49.350128</ele>
<time>2011-10-12T14:45:42Z</time>
<desc>lat.=44.551502, lon.=34.298409, Alt.=49.350128m. Speed=15.048000m/h.</desc>
<speed>4.180000</speed>
</trkpt>
<trkpt lat="44.551529" lon="34.298679">
<ele>51.647003</ele>
<time>2011-10-12T14:45:47Z</time>
<desc>lat.=44.551529, lon.=34.298679, Alt.=51.647003m. Speed=13.464000m/h.</desc>
<speed>3.740000</speed>
</trkpt>
<trkpt lat="44.551640" lon="34.298916">
<ele>50.062042</ele>
<time>2011-10-12T14:45:52Z</time>
<desc>lat.=44.551640, lon.=34.298916, Alt.=50.062042m. Speed=13.176000m/h.</desc>
<speed>3.660000</speed>
</trkpt>
<trkpt lat="44.551754" lon="34.299030">
<ele>50.243683</ele>
<time>2011-10-12T14:45:57Z</time>
<desc>lat.=44.551754, lon.=34.299030, Alt.=50.243683m. Speed=12.204000m/h.</desc>
<speed>3.390000</speed>
</trkpt>
<trkpt lat="44.551903" lon="34.299088">
<ele>51.005402</ele>
<time>2011-10-12T14:46:02Z</time>
<desc>lat.=44.551903, lon.=34.299088, Alt.=51.005402m. Speed=12.276000m/h.</desc>
<speed>3.410000</speed>
</trkpt>
<trkpt lat="44.552055" lon="34.299091">
<ele>50.919464</ele>
<time>2011-10-12T14:46:07Z</time>
<desc>lat.=44.552055, lon.=34.299091, Alt.=50.919464m. Speed=12.996000m/h.</desc>
<speed>3.610000</speed>
</trkpt>
<trkpt lat="44.552212" lon="34.299065">
<ele>52.791534</ele>
<time>2011-10-12T14:46:12Z</time>
<desc>lat.=44.552212, lon.=34.299065, Alt.=52.791534m. Speed=9.900000m/h.</desc>
<speed>2.750000</speed>
</trkpt>
<trkpt lat="44.552319" lon="34.298992">
<ele>51.394073</ele>
<time>2011-10-12T14:46:17Z</time>
<desc>lat.=44.552319, lon.=34.298992, Alt.=51.394073m. Speed=7.416000m/h.</desc>
<speed>2.060000</speed>
</trkpt>
<trkpt lat="44.552383" lon="34.298943">
<ele>53.614777</ele>
<time>2011-10-12T14:46:22Z</time>
<desc>lat.=44.552383, lon.=34.298943, Alt.=53.614777m. Speed=4.824000m/h.</desc>
<speed>1.340000</speed>
</trkpt>
<trkpt lat="44.552467" lon="34.298908">
<ele>52.476105</ele>
<time>2011-10-12T14:46:27Z</time>
<desc>lat.=44.552467, lon.=34.298908, Alt.=52.476105m. Speed=7.596000m/h.</desc>
<speed>2.110000</speed>
</trkpt>
<trkpt lat="44.552582" lon="34.298893">
<ele>54.632355</ele>
<time>2011-10-12T14:46:32Z</time>
<desc>lat.=44.552582, lon.=34.298893, Alt.=54.632355m. Speed=5.976000m/h.</desc>
<speed>1.660000</speed>
</trkpt>
<trkpt lat="44.552692" lon="34.298908">
<ele>55.084503</ele>
<time>2011-10-12T14:46:37Z</time>
<desc>lat.=44.552692, lon.=34.298908, Alt.=55.084503m. Speed=6.516000m/h.</desc>
<speed>1.810000</speed>
</trkpt>
<trkpt lat="44.552769" lon="34.298931">
<ele>56.317902</ele>
<time>2011-10-12T14:46:42Z</time>
<desc>lat.=44.552769, lon.=34.298931, Alt.=56.317902m. Speed=7.740000m/h.</desc>
<speed>2.150000</speed>
</trkpt>
<trkpt lat="44.552849" lon="34.298962">
<ele>59.286652</ele>
<time>2011-10-12T14:46:47Z</time>
<desc>lat.=44.552849, lon.=34.298962, Alt.=59.286652m. Speed=6.372000m/h.</desc>
<speed>1.770000</speed>
</trkpt>
<trkpt lat="44.552940" lon="34.298996">
<ele>60.992706</ele>
<time>2011-10-12T14:46:52Z</time>
<desc>lat.=44.552940, lon.=34.298996, Alt.=60.992706m. Speed=11.016000m/h.</desc>
<speed>3.060000</speed>
</trkpt>
<trkpt lat="44.553051" lon="34.299015">
<ele>62.602081</ele>
<time>2011-10-12T14:46:57Z</time>
<desc>lat.=44.553051, lon.=34.299015, Alt.=62.602081m. Speed=5.652000m/h.</desc>
<speed>1.570000</speed>
</trkpt>
<trkpt lat="44.553165" lon="34.299076">
<ele>63.704620</ele>
<time>2011-10-12T14:47:02Z</time>
<desc>lat.=44.553165, lon.=34.299076, Alt.=63.704620m. Speed=6.984000m/h.</desc>
<speed>1.940000</speed>
</trkpt>
<trkpt lat="44.553288" lon="34.299149">
<ele>66.139709</ele>
<time>2011-10-12T14:47:07Z</time>
<desc>lat.=44.553288, lon.=34.299149, Alt.=66.139709m. Speed=4.284000m/h.</desc>
<speed>1.190000</speed>
</trkpt>
<trkpt lat="44.553413" lon="34.299183">
<ele>63.686066</ele>
<time>2011-10-12T14:47:12Z</time>
<desc>lat.=44.553413, lon.=34.299183, Alt.=63.686066m. Speed=5.256000m/h.</desc>
<speed>1.460000</speed>
</trkpt>
<trkpt lat="44.553486" lon="34.299164">
<ele>64.542053</ele>
<time>2011-10-12T14:47:17Z</time>
<desc>lat.=44.553486, lon.=34.299164, Alt.=64.542053m. Speed=2.700000m/h.</desc>
<speed>0.750000</speed>
</trkpt>
<trkpt lat="44.553673" lon="34.299084">
<ele>64.297913</ele>
<time>2011-10-12T14:47:22Z</time>
<desc>lat.=44.553673, lon.=34.299084, Alt.=64.297913m. Speed=6.804000m/h.</desc>
<speed>1.890000</speed>
</trkpt>
<trkpt lat="44.553848" lon="34.298962">
<ele>63.725128</ele>
<time>2011-10-12T14:47:27Z</time>
<desc>lat.=44.553848, lon.=34.298962, Alt.=63.725128m. Speed=5.364000m/h.</desc>
<speed>1.490000</speed>
</trkpt>
<trkpt lat="44.553913" lon="34.298908">
<ele>62.625519</ele>
<time>2011-10-12T14:47:32Z</time>
<desc>lat.=44.553913, lon.=34.298908, Alt.=62.625519m. Speed=3.996000m/h.</desc>
<speed>1.110000</speed>
</trkpt>
<trkpt lat="44.553978" lon="34.298862">
<ele>60.734894</ele>
<time>2011-10-12T14:47:37Z</time>
<desc>lat.=44.553978, lon.=34.298862, Alt.=60.734894m. Speed=6.804000m/h.</desc>
<speed>1.890000</speed>
</trkpt>
<trkpt lat="44.553940" lon="34.298801">
<ele>59.502472</ele>
<time>2011-10-12T14:47:42Z</time>
<desc>lat.=44.553940, lon.=34.298801, Alt.=59.502472m. Speed=8.100000m/h.</desc>
<speed>2.250000</speed>
</trkpt>
<trkpt lat="44.553856" lon="34.298698">
<ele>59.410675</ele>
<time>2011-10-12T14:47:47Z</time>
<desc>lat.=44.553856, lon.=34.298698, Alt.=59.410675m. Speed=10.440000m/h.</desc>
<speed>2.900000</speed>
</trkpt>
<trkpt lat="44.553768" lon="34.298534">
<ele>58.813019</ele>
<time>2011-10-12T14:47:52Z</time>
<desc>lat.=44.553768, lon.=34.298534, Alt.=58.813019m. Speed=12.348000m/h.</desc>
<speed>3.430000</speed>
</trkpt>
<trkpt lat="44.553673" lon="34.298367">
<ele>59.499542</ele>
<time>2011-10-12T14:47:57Z</time>
<desc>lat.=44.553673, lon.=34.298367, Alt.=59.499542m. Speed=8.820000m/h.</desc>
<speed>2.450000</speed>
</trkpt>
<trkpt lat="44.553638" lon="34.298286">
<ele>60.723175</ele>
<time>2011-10-12T14:48:02Z</time>
<desc>lat.=44.553638, lon.=34.298286, Alt.=60.723175m. Speed=1.656000m/h.</desc>
<speed>0.460000</speed>
</trkpt>
<trkpt lat="44.553631" lon="34.298252">
<ele>60.768097</ele>
<time>2011-10-12T14:48:07Z</time>
<desc>lat.=44.553631, lon.=34.298252, Alt.=60.768097m. Speed=2.340000m/h.</desc>
<speed>0.650000</speed>
</trkpt>
<trkpt lat="44.553642" lon="34.298222">
<ele>60.745636</ele>
<time>2011-10-12T14:48:12Z</time>
<desc>lat.=44.553642, lon.=34.298222, Alt.=60.745636m. Speed=1.332000m/h.</desc>
<speed>0.370000</speed>
</trkpt>
<trkpt lat="44.553650" lon="34.298210">
<ele>60.714386</ele>
<time>2011-10-12T14:48:17Z</time>
<desc>lat.=44.553650, lon.=34.298210, Alt.=60.714386m. Speed=0.612000m/h.</desc>
<speed>0.170000</speed>
</trkpt>
<trkpt lat="44.553650" lon="34.298206">
<ele>60.700714</ele>
<time>2011-10-12T14:48:22Z</time>
<desc>lat.=44.553650, lon.=34.298206, Alt.=60.700714m. Speed=0.432000m/h.</desc>
<speed>0.120000</speed>
</trkpt>
<trkpt lat="44.553650" lon="34.298218">
<ele>60.664581</ele>
<time>2011-10-12T14:48:27Z</time>
<desc>lat.=44.553650, lon.=34.298218, Alt.=60.664581m. Speed=0.504000m/h.</desc>
<speed>0.140000</speed>
</trkpt>
<trkpt lat="44.553646" lon="34.298244">
<ele>60.601105</ele>
<time>2011-10-12T14:48:32Z</time>
<desc>lat.=44.553646, lon.=34.298244, Alt.=60.601105m. Speed=1.512000m/h.</desc>
<speed>0.420000</speed>
</trkpt>
<trkpt lat="44.553638" lon="34.298264">
<ele>60.357941</ele>
<time>2011-10-12T14:48:37Z</time>
<desc>lat.=44.553638, lon.=34.298264, Alt.=60.357941m. Speed=1.692000m/h.</desc>
<speed>0.470000</speed>
</trkpt>
<trkpt lat="44.553638" lon="34.298260">
<ele>59.910675</ele>
<time>2011-10-12T14:48:42Z</time>
<desc>lat.=44.553638, lon.=34.298260, Alt.=59.910675m. Speed=1.764000m/h.</desc>
<speed>0.490000</speed>
</trkpt>
<trkpt lat="44.553654" lon="34.298248">
<ele>59.583527</ele>
<time>2011-10-12T14:48:47Z</time>
<desc>lat.=44.553654, lon.=34.298248, Alt.=59.583527m. Speed=2.052000m/h.</desc>
<speed>0.570000</speed>
</trkpt>
<trkpt lat="44.553669" lon="34.298229">
<ele>59.203644</ele>
<time>2011-10-12T14:48:52Z</time>
<desc>lat.=44.553669, lon.=34.298229, Alt.=59.203644m. Speed=0.468000m/h.</desc>
<speed>0.130000</speed>
</trkpt>
<trkpt lat="44.553677" lon="34.298244">
<ele>58.907745</ele>
<time>2011-10-12T14:48:57Z</time>
<desc>lat.=44.553677, lon.=34.298244, Alt.=58.907745m. Speed=1.620000m/h.</desc>
<speed>0.450000</speed>
</trkpt>
<trkpt lat="44.553677" lon="34.298248">
<ele>58.461456</ele>
<time>2011-10-12T14:49:02Z</time>
<desc>lat.=44.553677, lon.=34.298248, Alt.=58.461456m. Speed=0.468000m/h.</desc>
<speed>0.130000</speed>
</trkpt>
<trkpt lat="44.553703" lon="34.298222">
<ele>58.547394</ele>
<time>2011-10-12T14:49:07Z</time>
<desc>lat.=44.553703, lon.=34.298222, Alt.=58.547394m. Speed=2.556000m/h.</desc>
<speed>0.710000</speed>
</trkpt>
<trkpt lat="44.553764" lon="34.298218">
<ele>58.939972</ele>
<time>2011-10-12T14:49:12Z</time>
<desc>lat.=44.553764, lon.=34.298218, Alt.=58.939972m. Speed=2.844000m/h.</desc>
<speed>0.790000</speed>
</trkpt>
<trkpt lat="44.553810" lon="34.298172">
<ele>58.901886</ele>
<time>2011-10-12T14:49:17Z</time>
<desc>lat.=44.553810, lon.=34.298172, Alt.=58.901886m. Speed=2.772000m/h.</desc>
<speed>0.770000</speed>
</trkpt>
<trkpt lat="44.553841" lon="34.298141">
<ele>58.916534</ele>
<time>2011-10-12T14:49:22Z</time>
<desc>lat.=44.553841, lon.=34.298141, Alt.=58.916534m. Speed=2.844000m/h.</desc>
<speed>0.790000</speed>
</trkpt>
<trkpt lat="44.553871" lon="34.298080">
<ele>58.553253</ele>
<time>2011-10-12T14:49:27Z</time>
<desc>lat.=44.553871, lon.=34.298080, Alt.=58.553253m. Speed=3.060000m/h.</desc>
<speed>0.850000</speed>
</trkpt>
<trkpt lat="44.553852" lon="34.298012">
<ele>58.084503</ele>
<time>2011-10-12T14:49:32Z</time>
<desc>lat.=44.553852, lon.=34.298012, Alt.=58.084503m. Speed=2.988000m/h.</desc>
<speed>0.830000</speed>
</trkpt>
<trkpt lat="44.553837" lon="34.297993">
<ele>58.022980</ele>
<time>2011-10-12T14:49:37Z</time>
<desc>lat.=44.553837, lon.=34.297993, Alt.=58.022980m. Speed=2.520000m/h.</desc>
<speed>0.700000</speed>
</trkpt>
<trkpt lat="44.553829" lon="34.297916">
<ele>58.547394</ele>
<time>2011-10-12T14:49:42Z</time>
<desc>lat.=44.553829, lon.=34.297916, Alt.=58.547394m. Speed=2.700000m/h.</desc>
<speed>0.750000</speed>
</trkpt>
<trkpt lat="44.553818" lon="34.297848">
<ele>58.836456</ele>
<time>2011-10-12T14:49:47Z</time>
<desc>lat.=44.553818, lon.=34.297848, Alt.=58.836456m. Speed=1.908000m/h.</desc>
<speed>0.530000</speed>
</trkpt>
<trkpt lat="44.553810" lon="34.297821">
<ele>59.189972</ele>
<time>2011-10-12T14:49:52Z</time>
<desc>lat.=44.553810, lon.=34.297821, Alt.=59.189972m. Speed=0.864000m/h.</desc>
<speed>0.240000</speed>
</trkpt>
<trkpt lat="44.553806" lon="34.297852">
<ele>59.551300</ele>
<time>2011-10-12T14:49:57Z</time>
<desc>lat.=44.553806, lon.=34.297852, Alt.=59.551300m. Speed=0.756000m/h.</desc>
<speed>0.210000</speed>
</trkpt>
<trkpt lat="44.553810" lon="34.297859">
<ele>59.537628</ele>
<time>2011-10-12T14:50:02Z</time>
<desc>lat.=44.553810, lon.=34.297859, Alt.=59.537628m. Speed=0.252000m/h.</desc>
<speed>0.070000</speed>
</trkpt>
<trkpt lat="44.553844" lon="34.297943">
<ele>58.447784</ele>
<time>2011-10-12T14:50:07Z</time>
<desc>lat.=44.553844, lon.=34.297943, Alt.=58.447784m. Speed=1.296000m/h.</desc>
<speed>0.360000</speed>
</trkpt>
<trkpt lat="44.553852" lon="34.297962">
<ele>58.050323</ele>
<time>2011-10-12T14:50:12Z</time>
<desc>lat.=44.553852, lon.=34.297962, Alt.=58.050323m. Speed=1.548000m/h.</desc>
<speed>0.430000</speed>
</trkpt>
<trkpt lat="44.553837" lon="34.297989">
<ele>58.003448</ele>
<time>2011-10-12T14:50:17Z</time>
<desc>lat.=44.553837, lon.=34.297989, Alt.=58.003448m. Speed=0.396000m/h.</desc>
<speed>0.110000</speed>
</trkpt>
<trkpt lat="44.553799" lon="34.298019">
<ele>58.023956</ele>
<time>2011-10-12T14:50:22Z</time>
<desc>lat.=44.553799, lon.=34.298019, Alt.=58.023956m. Speed=1.728000m/h.</desc>
<speed>0.480000</speed>
</trkpt>
<trkpt lat="44.553761" lon="34.298061">
<ele>58.149933</ele>
<time>2011-10-12T14:50:27Z</time>
<desc>lat.=44.553761, lon.=34.298061, Alt.=58.149933m. Speed=1.224000m/h.</desc>
<speed>0.340000</speed>
</trkpt>
<trkpt lat="44.553707" lon="34.298122">
<ele>58.561066</ele>
<time>2011-10-12T14:50:32Z</time>
<desc>lat.=44.553707, lon.=34.298122, Alt.=58.561066m. Speed=1.152000m/h.</desc>
<speed>0.320000</speed>
</trkpt>
<trkpt lat="44.553680" lon="34.298241">
<ele>58.528839</ele>
<time>2011-10-12T14:50:37Z</time>
<desc>lat.=44.553680, lon.=34.298241, Alt.=58.528839m. Speed=1.800000m/h.</desc>
<speed>0.500000</speed>
</trkpt>
<trkpt lat="44.553654" lon="34.298248">
<ele>58.474152</ele>
<time>2011-10-12T14:50:42Z</time>
<desc>lat.=44.553654, lon.=34.298248, Alt.=58.474152m. Speed=1.800000m/h.</desc>
<speed>0.500000</speed>
</trkpt>
<trkpt lat="44.553638" lon="34.298256">
<ele>58.152863</ele>
<time>2011-10-12T14:50:47Z</time>
<desc>lat.=44.553638, lon.=34.298256, Alt.=58.152863m. Speed=1.764000m/h.</desc>
<speed>0.490000</speed>
</trkpt>
<trkpt lat="44.553635" lon="34.298252">
<ele>57.843292</ele>
<time>2011-10-12T14:50:52Z</time>
<desc>lat.=44.553635, lon.=34.298252, Alt.=57.843292m. Speed=0.828000m/h.</desc>
<speed>0.230000</speed>
</trkpt>
<trkpt lat="44.553616" lon="34.298267">
<ele>57.734894</ele>
<time>2011-10-12T14:50:57Z</time>
<desc>lat.=44.553616, lon.=34.298267, Alt.=57.734894m. Speed=1.404000m/h.</desc>
<speed>0.390000</speed>
</trkpt>
<trkpt lat="44.553638" lon="34.298229">
<ele>57.522980</ele>
<time>2011-10-12T14:51:02Z</time>
<desc>lat.=44.553638, lon.=34.298229, Alt.=57.522980m. Speed=1.260000m/h.</desc>
<speed>0.350000</speed>
</trkpt>
<trkpt lat="44.553631" lon="34.298149">
<ele>57.547394</ele>
<time>2011-10-12T14:51:07Z</time>
<desc>lat.=44.553631, lon.=34.298149, Alt.=57.547394m. Speed=1.692000m/h.</desc>
<speed>0.470000</speed>
</trkpt>
<trkpt lat="44.553604" lon="34.298096">
<ele>57.874542</ele>
<time>2011-10-12T14:51:12Z</time>
<desc>lat.=44.553604, lon.=34.298096, Alt.=57.874542m. Speed=1.584000m/h.</desc>
<speed>0.440000</speed>
</trkpt>
<trkpt lat="44.553570" lon="34.298077">
<ele>58.123566</ele>
<time>2011-10-12T14:51:17Z</time>
<desc>lat.=44.553570, lon.=34.298077, Alt.=58.123566m. Speed=1.944000m/h.</desc>
<speed>0.540000</speed>
</trkpt>
<trkpt lat="44.553593" lon="34.298199">
<ele>58.179230</ele>
<time>2011-10-12T14:51:22Z</time>
<desc>lat.=44.553593, lon.=34.298199, Alt.=58.179230m. Speed=1.548000m/h.</desc>
<speed>0.430000</speed>
</trkpt>
<trkpt lat="44.553566" lon="34.298298">
<ele>59.328644</ele>
<time>2011-10-12T14:51:27Z</time>
<desc>lat.=44.553566, lon.=34.298298, Alt.=59.328644m. Speed=0.828000m/h.</desc>
<speed>0.230000</speed>
</trkpt>
<trkpt lat="44.553577" lon="34.298328">
<ele>59.007355</ele>
<time>2011-10-12T14:51:32Z</time>
<desc>lat.=44.553577, lon.=34.298328, Alt.=59.007355m. Speed=0.828000m/h.</desc>
<speed>0.230000</speed>
</trkpt>
<trkpt lat="44.553562" lon="34.298355">
<ele>59.364777</ele>
<time>2011-10-12T14:51:37Z</time>
<desc>lat.=44.553562, lon.=34.298355, Alt.=59.364777m. Speed=0.792000m/h.</desc>
<speed>0.220000</speed>
</trkpt>
<trkpt lat="44.553551" lon="34.298378">
<ele>59.477081</ele>
<time>2011-10-12T14:51:42Z</time>
<desc>lat.=44.553551, lon.=34.298378, Alt.=59.477081m. Speed=0.288000m/h.</desc>
<speed>0.080000</speed>
</trkpt>
<trkpt lat="44.553555" lon="34.298374">
<ele>59.475128</ele>
<time>2011-10-12T14:51:47Z</time>
<desc>lat.=44.553555, lon.=34.298374, Alt.=59.475128m. Speed=0.684000m/h.</desc>
<speed>0.190000</speed>
</trkpt>
<trkpt lat="44.553558" lon="34.298374">
<ele>59.488800</ele>
<time>2011-10-12T14:51:52Z</time>
<desc>lat.=44.553558, lon.=34.298374, Alt.=59.488800m. Speed=0.720000m/h.</desc>
<speed>0.200000</speed>
</trkpt>
<trkpt lat="44.553558" lon="34.298374">
<ele>59.489777</ele>
<time>2011-10-12T14:51:57Z</time>
<desc>lat.=44.553558, lon.=34.298374, Alt.=59.489777m. Speed=0.216000m/h.</desc>
<speed>0.060000</speed>
</trkpt>
<trkpt lat="44.553555" lon="34.298378">
<ele>59.490753</ele>
<time>2011-10-12T14:52:02Z</time>
<desc>lat.=44.553555, lon.=34.298378, Alt.=59.490753m. Speed=0.180000m/h.</desc>
<speed>0.050000</speed>
</trkpt>
<trkpt lat="44.553551" lon="34.298378">
<ele>59.492706</ele>
<time>2011-10-12T14:52:07Z</time>
<desc>lat.=44.553551, lon.=34.298378, Alt.=59.492706m. Speed=0.324000m/h.</desc>
<speed>0.090000</speed>
</trkpt>
<trkpt lat="44.553558" lon="34.298367">
<ele>59.841339</ele>
<time>2011-10-12T14:52:12Z</time>
<desc>lat.=44.553558, lon.=34.298367, Alt.=59.841339m. Speed=1.224000m/h.</desc>
<speed>0.340000</speed>
</trkpt>
<trkpt lat="44.553551" lon="34.298359">
<ele>60.323761</ele>
<time>2011-10-12T14:52:17Z</time>
<desc>lat.=44.553551, lon.=34.298359, Alt.=60.323761m. Speed=0.324000m/h.</desc>
<speed>0.090000</speed>
</trkpt>
<trkpt lat="44.553558" lon="34.298332">
<ele>60.553253</ele>
<time>2011-10-12T14:52:22Z</time>
<desc>lat.=44.553558, lon.=34.298332, Alt.=60.553253m. Speed=1.152000m/h.</desc>
<speed>0.320000</speed>
</trkpt>
<trkpt lat="44.553555" lon="34.298321">
<ele>61.620636</ele>
<time>2011-10-12T14:52:27Z</time>
<desc>lat.=44.553555, lon.=34.298321, Alt.=61.620636m. Speed=0.468000m/h.</desc>
<speed>0.130000</speed>
</trkpt>
<trkpt lat="44.553555" lon="34.298313">
<ele>61.716339</ele>
<time>2011-10-12T14:52:32Z</time>
<desc>lat.=44.553555, lon.=34.298313, Alt.=61.716339m. Speed=0.324000m/h.</desc>
<speed>0.090000</speed>
</trkpt>
<trkpt lat="44.553558" lon="34.298309">
<ele>61.765167</ele>
<time>2011-10-12T14:52:37Z</time>
<desc>lat.=44.553558, lon.=34.298309, Alt.=61.765167m. Speed=0.432000m/h.</desc>
<speed>0.120000</speed>
</trkpt>
<trkpt lat="44.553585" lon="34.298298">
<ele>61.610870</ele>
<time>2011-10-12T14:52:42Z</time>
<desc>lat.=44.553585, lon.=34.298298, Alt.=61.610870m. Speed=2.052000m/h.</desc>
<speed>0.570000</speed>
</trkpt>
<trkpt lat="44.553623" lon="34.298256">
<ele>61.389191</ele>
<time>2011-10-12T14:52:47Z</time>
<desc>lat.=44.553623, lon.=34.298256, Alt.=61.389191m. Speed=3.024000m/h.</desc>
<speed>0.840000</speed>
</trkpt>
<trkpt lat="44.553669" lon="34.298271">
<ele>61.323761</ele>
<time>2011-10-12T14:52:52Z</time>
<desc>lat.=44.553669, lon.=34.298271, Alt.=61.323761m. Speed=3.456000m/h.</desc>
<speed>0.960000</speed>
</trkpt>
<trkpt lat="44.553715" lon="34.298321">
<ele>61.388214</ele>
<time>2011-10-12T14:52:57Z</time>
<desc>lat.=44.553715, lon.=34.298321, Alt.=61.388214m. Speed=2.304000m/h.</desc>
<speed>0.640000</speed>
</trkpt>
<trkpt lat="44.553745" lon="34.298336">
<ele>61.063995</ele>
<time>2011-10-12T14:53:02Z</time>
<desc>lat.=44.553745, lon.=34.298336, Alt.=61.063995m. Speed=1.692000m/h.</desc>
<speed>0.470000</speed>
</trkpt>
<trkpt lat="44.553730" lon="34.298340">
<ele>61.838409</ele>
<time>2011-10-12T14:53:07Z</time>
<desc>lat.=44.553730, lon.=34.298340, Alt.=61.838409m. Speed=0.180000m/h.</desc>
<speed>0.050000</speed>
</trkpt>
<trkpt lat="44.553715" lon="34.298340">
<ele>61.899933</ele>
<time>2011-10-12T14:53:12Z</time>
<desc>lat.=44.553715, lon.=34.298340, Alt.=61.899933m. Speed=0.828000m/h.</desc>
<speed>0.230000</speed>
</trkpt>
<trkpt lat="44.553707" lon="34.298347">
<ele>61.917511</ele>
<time>2011-10-12T14:53:17Z</time>
<desc>lat.=44.553707, lon.=34.298347, Alt.=61.917511m. Speed=0.828000m/h.</desc>
<speed>0.230000</speed>
</trkpt>
<trkpt lat="44.553692" lon="34.298351">
<ele>63.078644</ele>
<time>2011-10-12T14:53:22Z</time>
<desc>lat.=44.553692, lon.=34.298351, Alt.=63.078644m. Speed=0.864000m/h.</desc>
<speed>0.240000</speed>
</trkpt>
<trkpt lat="44.553650" lon="34.298340">
<ele>63.280792</ele>
<time>2011-10-12T14:53:27Z</time>
<desc>lat.=44.553650, lon.=34.298340, Alt.=63.280792m. Speed=0.720000m/h.</desc>
<speed>0.200000</speed>
</trkpt>
<trkpt lat="44.553589" lon="34.298298">
<ele>64.848694</ele>
<time>2011-10-12T14:53:32Z</time>
<desc>lat.=44.553589, lon.=34.298298, Alt.=64.848694m. Speed=5.364000m/h.</desc>
<speed>1.490000</speed>
</trkpt>
<trkpt lat="44.553497" lon="34.298138">
<ele>65.622131</ele>
<time>2011-10-12T14:53:37Z</time>
<desc>lat.=44.553497, lon.=34.298138, Alt.=65.622131m. Speed=14.004000m/h.</desc>
<speed>3.890000</speed>
</trkpt>
<trkpt lat="44.553326" lon="34.297955">
<ele>66.737366</ele>
<time>2011-10-12T14:53:42Z</time>
<desc>lat.=44.553326, lon.=34.297955, Alt.=66.737366m. Speed=16.955999m/h.</desc>
<speed>4.710000</speed>
</trkpt>
<trkpt lat="44.553131" lon="34.297737">
<ele>66.551819</ele>
<time>2011-10-12T14:53:47Z</time>
<desc>lat.=44.553131, lon.=34.297737, Alt.=66.551819m. Speed=19.332001m/h.</desc>
<speed>5.370000</speed>
</trkpt>
<trkpt lat="44.552944" lon="34.297527">
<ele>66.583069</ele>
<time>2011-10-12T14:53:52Z</time>
<desc>lat.=44.552944, lon.=34.297527, Alt.=66.583069m. Speed=10.080000m/h.</desc>
<speed>2.800000</speed>
</trkpt>
<trkpt lat="44.552887" lon="34.297470">
<ele>68.145569</ele>
<time>2011-10-12T14:53:57Z</time>
<desc>lat.=44.552887, lon.=34.297470, Alt.=68.145569m. Speed=0.324000m/h.</desc>
<speed>0.090000</speed>
</trkpt>
<trkpt lat="44.552887" lon="34.297466">
<ele>68.118225</ele>
<time>2011-10-12T14:54:02Z</time>
<desc>lat.=44.552887, lon.=34.297466, Alt.=68.118225m. Speed=0.540000m/h.</desc>
<speed>0.150000</speed>
</trkpt>
<trkpt lat="44.552872" lon="34.297455">
<ele>68.178772</ele>
<time>2011-10-12T14:54:07Z</time>
<desc>lat.=44.552872, lon.=34.297455, Alt.=68.178772m. Speed=3.960000m/h.</desc>
<speed>1.100000</speed>
</trkpt>
<trkpt lat="44.552757" lon="34.297421">
<ele>67.342834</ele>
<time>2011-10-12T14:54:12Z</time>
<desc>lat.=44.552757, lon.=34.297421, Alt.=67.342834m. Speed=9.216000m/h.</desc>
<speed>2.560000</speed>
</trkpt>
<trkpt lat="44.552708" lon="34.297325">
<ele>69.133850</ele>
<time>2011-10-12T14:54:17Z</time>
<desc>lat.=44.552708, lon.=34.297325, Alt.=69.133850m. Speed=6.408000m/h.</desc>
<speed>1.780000</speed>
</trkpt>
<trkpt lat="44.552673" lon="34.297195">
<ele>70.520569</ele>
<time>2011-10-12T14:54:22Z</time>
<desc>lat.=44.552673, lon.=34.297195, Alt.=70.520569m. Speed=9.216000m/h.</desc>
<speed>2.560000</speed>
</trkpt>
<trkpt lat="44.552612" lon="34.297016">
<ele>71.040100</ele>
<time>2011-10-12T14:54:27Z</time>
<desc>lat.=44.552612, lon.=34.297016, Alt.=71.040100m. Speed=10.080000m/h.</desc>
<speed>2.800000</speed>
</trkpt>
<trkpt lat="44.552570" lon="34.296902">
<ele>72.483459</ele>
<time>2011-10-12T14:54:32Z</time>
<desc>lat.=44.552570, lon.=34.296902, Alt.=72.483459m. Speed=3.852000m/h.</desc>
<speed>1.070000</speed>
</trkpt>
<trkpt lat="44.552612" lon="34.296906">
<ele>72.719788</ele>
<time>2011-10-12T14:54:37Z</time>
<desc>lat.=44.552612, lon.=34.296906, Alt.=72.719788m. Speed=7.452000m/h.</desc>
<speed>2.070000</speed>
</trkpt>
<trkpt lat="44.552589" lon="34.297020">
<ele>73.319397</ele>
<time>2011-10-12T14:54:42Z</time>
<desc>lat.=44.552589, lon.=34.297020, Alt.=73.319397m. Speed=3.888000m/h.</desc>
<speed>1.080000</speed>
</trkpt>
<trkpt lat="44.552586" lon="34.297127">
<ele>74.624084</ele>
<time>2011-10-12T14:54:47Z</time>
<desc>lat.=44.552586, lon.=34.297127, Alt.=74.624084m. Speed=7.272000m/h.</desc>
<speed>2.020000</speed>
</trkpt>
<trkpt lat="44.552589" lon="34.297215">
<ele>73.210022</ele>
<time>2011-10-12T14:54:52Z</time>
<desc>lat.=44.552589, lon.=34.297215, Alt.=73.210022m. Speed=3.672000m/h.</desc>
<speed>1.020000</speed>
</trkpt>
<trkpt lat="44.552593" lon="34.297249">
<ele>73.376038</ele>
<time>2011-10-12T14:54:57Z</time>
<desc>lat.=44.552593, lon.=34.297249, Alt.=73.376038m. Speed=4.464000m/h.</desc>
<speed>1.240000</speed>
</trkpt>
<trkpt lat="44.552616" lon="34.297295">
<ele>72.969788</ele>
<time>2011-10-12T14:55:02Z</time>
<desc>lat.=44.552616, lon.=34.297295, Alt.=72.969788m. Speed=1.080000m/h.</desc>
<speed>0.300000</speed>
</trkpt>
<trkpt lat="44.552608" lon="34.297279">
<ele>71.862366</ele>
<time>2011-10-12T14:55:07Z</time>
<desc>lat.=44.552608, lon.=34.297279, Alt.=71.862366m. Speed=0.576000m/h.</desc>
<speed>0.160000</speed>
</trkpt>
<trkpt lat="44.552612" lon="34.297279">
<ele>71.192444</ele>
<time>2011-10-12T14:55:12Z</time>
<desc>lat.=44.552612, lon.=34.297279, Alt.=71.192444m. Speed=0.468000m/h.</desc>
<speed>0.130000</speed>
</trkpt>
<trkpt lat="44.552677" lon="34.297329">
<ele>71.600647</ele>
<time>2011-10-12T14:55:17Z</time>
<desc>lat.=44.552677, lon.=34.297329, Alt.=71.600647m. Speed=5.580000m/h.</desc>
<speed>1.550000</speed>
</trkpt>
<trkpt lat="44.552689" lon="34.297249">
<ele>70.850647</ele>
<time>2011-10-12T14:55:22Z</time>
<desc>lat.=44.552689, lon.=34.297249, Alt.=70.850647m. Speed=8.604000m/h.</desc>
<speed>2.390000</speed>
</trkpt>
<trkpt lat="44.552586" lon="34.297138">
<ele>70.432678</ele>
<time>2011-10-12T14:55:27Z</time>
<desc>lat.=44.552586, lon.=34.297138, Alt.=70.432678m. Speed=8.424000m/h.</desc>
<speed>2.340000</speed>
</trkpt>
<trkpt lat="44.552551" lon="34.297073">
<ele>70.749084</ele>
<time>2011-10-12T14:55:32Z</time>
<desc>lat.=44.552551, lon.=34.297073, Alt.=70.749084m. Speed=2.052000m/h.</desc>
<speed>0.570000</speed>
</trkpt>
<trkpt lat="44.552532" lon="34.297035">
<ele>70.471741</ele>
<time>2011-10-12T14:55:37Z</time>
<desc>lat.=44.552532, lon.=34.297035, Alt.=70.471741m. Speed=1.872000m/h.</desc>
<speed>0.520000</speed>
</trkpt>
<trkpt lat="44.552559" lon="34.296982">
<ele>71.192444</ele>
<time>2011-10-12T14:55:42Z</time>
<desc>lat.=44.552559, lon.=34.296982, Alt.=71.192444m. Speed=1.152000m/h.</desc>
<speed>0.320000</speed>
</trkpt>
<trkpt lat="44.552486" lon="34.296841">
<ele>70.780334</ele>
<time>2011-10-12T14:55:47Z</time>
<desc>lat.=44.552486, lon.=34.296841, Alt.=70.780334m. Speed=9.864000m/h.</desc>
<speed>2.740000</speed>
</trkpt>
<trkpt lat="44.552372" lon="34.296696">
<ele>70.114319</ele>
<time>2011-10-12T14:55:52Z</time>
<desc>lat.=44.552372, lon.=34.296696, Alt.=70.114319m. Speed=11.700000m/h.</desc>
<speed>3.250000</speed>
</trkpt>
<trkpt lat="44.552284" lon="34.296471">
<ele>69.264709</ele>
<time>2011-10-12T14:55:57Z</time>
<desc>lat.=44.552284, lon.=34.296471, Alt.=69.264709m. Speed=12.348000m/h.</desc>
<speed>3.430000</speed>
</trkpt>
<trkpt lat="44.552200" lon="34.296299">
<ele>68.940491</ele>
<time>2011-10-12T14:56:02Z</time>
<desc>lat.=44.552200, lon.=34.296299, Alt.=68.940491m. Speed=7.812000m/h.</desc>
<speed>2.170000</speed>
</trkpt>
<trkpt lat="44.552147" lon="34.296242">
<ele>68.524475</ele>
<time>2011-10-12T14:56:07Z</time>
<desc>lat.=44.552147, lon.=34.296242, Alt.=68.524475m. Speed=3.996000m/h.</desc>
<speed>1.110000</speed>
</trkpt>
<trkpt lat="44.552094" lon="34.296139">
<ele>68.544006</ele>
<time>2011-10-12T14:56:12Z</time>
<desc>lat.=44.552094, lon.=34.296139, Alt.=68.544006m. Speed=6.372000m/h.</desc>
<speed>1.770000</speed>
</trkpt>
<trkpt lat="44.552021" lon="34.295990">
<ele>67.608459</ele>
<time>2011-10-12T14:56:17Z</time>
<desc>lat.=44.552021, lon.=34.295990, Alt.=67.608459m. Speed=11.160000m/h.</desc>
<speed>3.100000</speed>
</trkpt>
<trkpt lat="44.551922" lon="34.295811">
<ele>66.868225</ele>
<time>2011-10-12T14:56:22Z</time>
<desc>lat.=44.551922, lon.=34.295811, Alt.=66.868225m. Speed=11.160000m/h.</desc>
<speed>3.100000</speed>
</trkpt>
<trkpt lat="44.551926" lon="34.295677">
<ele>67.352600</ele>
<time>2011-10-12T14:56:27Z</time>
<desc>lat.=44.551926, lon.=34.295677, Alt.=67.352600m. Speed=9.288000m/h.</desc>
<speed>2.580000</speed>
</trkpt>
<trkpt lat="44.551994" lon="34.295582">
<ele>67.286194</ele>
<time>2011-10-12T14:56:32Z</time>
<desc>lat.=44.551994, lon.=34.295582, Alt.=67.286194m. Speed=7.020000m/h.</desc>
<speed>1.950000</speed>
</trkpt>
<trkpt lat="44.552025" lon="34.295486">
<ele>67.522522</ele>
<time>2011-10-12T14:56:37Z</time>
<desc>lat.=44.552025, lon.=34.295486, Alt.=67.522522m. Speed=6.336000m/h.</desc>
<speed>1.760000</speed>
</trkpt>
<trkpt lat="44.552044" lon="34.295361">
<ele>67.907288</ele>
<time>2011-10-12T14:56:42Z</time>
<desc>lat.=44.552044, lon.=34.295361, Alt.=67.907288m. Speed=7.776000m/h.</desc>
<speed>2.160000</speed>
</trkpt>
<trkpt lat="44.552055" lon="34.295204">
<ele>70.137756</ele>
<time>2011-10-12T14:56:47Z</time>
<desc>lat.=44.552055, lon.=34.295204, Alt.=70.137756m. Speed=6.228000m/h.</desc>
<speed>1.730000</speed>
</trkpt>
<trkpt lat="44.552105" lon="34.295105">
<ele>69.944397</ele>
<time>2011-10-12T14:56:52Z</time>
<desc>lat.=44.552105, lon.=34.295105, Alt.=69.944397m. Speed=3.636000m/h.</desc>
<speed>1.010000</speed>
</trkpt>
<trkpt lat="44.552105" lon="34.295067">
<ele>71.559631</ele>
<time>2011-10-12T14:56:57Z</time>
<desc>lat.=44.552105, lon.=34.295067, Alt.=71.559631m. Speed=4.068000m/h.</desc>
<speed>1.130000</speed>
</trkpt>
<trkpt lat="44.552132" lon="34.295071">
<ele>69.616272</ele>
<time>2011-10-12T14:57:02Z</time>
<desc>lat.=44.552132, lon.=34.295071, Alt.=69.616272m. Speed=3.636000m/h.</desc>
<speed>1.010000</speed>
</trkpt>
<trkpt lat="44.552086" lon="34.295090">
<ele>70.008850</ele>
<time>2011-10-12T14:57:07Z</time>
<desc>lat.=44.552086, lon.=34.295090, Alt.=70.008850m. Speed=0.036000m/h.</desc>
<speed>0.010000</speed>
</trkpt>
<trkpt lat="44.552082" lon="34.295082">
<ele>70.184631</ele>
<time>2011-10-12T14:57:12Z</time>
<desc>lat.=44.552082, lon.=34.295082, Alt.=70.184631m. Speed=0.252000m/h.</desc>
<speed>0.070000</speed>
</trkpt>
<trkpt lat="44.552086" lon="34.295086">
<ele>69.919006</ele>
<time>2011-10-12T14:57:17Z</time>
<desc>lat.=44.552086, lon.=34.295086, Alt.=69.919006m. Speed=0.324000m/h.</desc>
<speed>0.090000</speed>
</trkpt>
<trkpt lat="44.552086" lon="34.295090">
<ele>69.801819</ele>
<time>2011-10-12T14:57:22Z</time>
<desc>lat.=44.552086, lon.=34.295090, Alt.=69.801819m. Speed=0.108000m/h.</desc>
<speed>0.030000</speed>
</trkpt>
<trkpt lat="44.552082" lon="34.295086">
<ele>69.762756</ele>
<time>2011-10-12T14:57:27Z</time>
<desc>lat.=44.552082, lon.=34.295086, Alt.=69.762756m. Speed=0.360000m/h.</desc>
<speed>0.100000</speed>
</trkpt>
<trkpt lat="44.552078" lon="34.295086">
<ele>69.770569</ele>
<time>2011-10-12T14:57:32Z</time>
<desc>lat.=44.552078, lon.=34.295086, Alt.=69.770569m. Speed=0.144000m/h.</desc>
<speed>0.040000</speed>
</trkpt>
<trkpt lat="44.552074" lon="34.295082">
<ele>69.795959</ele>
<time>2011-10-12T14:57:37Z</time>
<desc>lat.=44.552074, lon.=34.295082, Alt.=69.795959m. Speed=0.252000m/h.</desc>
<speed>0.070000</speed>
</trkpt>
<trkpt lat="44.552074" lon="34.295078">
<ele>69.817444</ele>
<time>2011-10-12T14:57:42Z</time>
<desc>lat.=44.552074, lon.=34.295078, Alt.=69.817444m. Speed=0.072000m/h.</desc>
<speed>0.020000</speed>
</trkpt>
<trkpt lat="44.552078" lon="34.295074">
<ele>69.840881</ele>
<time>2011-10-12T14:57:47Z</time>
<desc>lat.=44.552078, lon.=34.295074, Alt.=69.840881m. Speed=0.432000m/h.</desc>
<speed>0.120000</speed>
</trkpt>
<trkpt lat="44.552078" lon="34.295067">
<ele>69.858459</ele>
<time>2011-10-12T14:57:52Z</time>
<desc>lat.=44.552078, lon.=34.295067, Alt.=69.858459m. Speed=0.900000m/h.</desc>
<speed>0.250000</speed>
</trkpt>
<trkpt lat="44.552078" lon="34.295055">
<ele>69.887756</ele>
<time>2011-10-12T14:57:57Z</time>
<desc>lat.=44.552078, lon.=34.295055, Alt.=69.887756m. Speed=0.684000m/h.</desc>
<speed>0.190000</speed>
</trkpt>
<trkpt lat="44.552074" lon="34.295044">
<ele>69.915100</ele>
<time>2011-10-12T14:58:02Z</time>
<desc>lat.=44.552074, lon.=34.295044, Alt.=69.915100m. Speed=0.180000m/h.</desc>
<speed>0.050000</speed>
</trkpt>
<trkpt lat="44.552078" lon="34.295044">
<ele>69.928772</ele>
<time>2011-10-12T14:58:07Z</time>
<desc>lat.=44.552078, lon.=34.295044, Alt.=69.928772m. Speed=0.360000m/h.</desc>
<speed>0.100000</speed>
</trkpt>
<trkpt lat="44.552082" lon="34.295036">
<ele>69.948303</ele>
<time>2011-10-12T14:58:12Z</time>
<desc>lat.=44.552082, lon.=34.295036, Alt.=69.948303m. Speed=0.828000m/h.</desc>
<speed>0.230000</speed>
</trkpt>
<trkpt lat="44.552090" lon="34.295040">
<ele>69.958069</ele>
<time>2011-10-12T14:58:17Z</time>
<desc>lat.=44.552090, lon.=34.295040, Alt.=69.958069m. Speed=0.288000m/h.</desc>
<speed>0.080000</speed>
</trkpt>
<trkpt lat="44.552090" lon="34.295040">
<ele>69.956116</ele>
<time>2011-10-12T14:58:22Z</time>
<desc>lat.=44.552090, lon.=34.295040, Alt.=69.956116m. Speed=0.504000m/h.</desc>
<speed>0.140000</speed>
</trkpt>
<trkpt lat="44.552082" lon="34.295040">
<ele>69.950256</ele>
<time>2011-10-12T14:58:27Z</time>
<desc>lat.=44.552082, lon.=34.295040, Alt.=69.950256m. Speed=0.324000m/h.</desc>
<speed>0.090000</speed>
</trkpt>
<trkpt lat="44.552071" lon="34.295082">
<ele>70.198303</ele>
<time>2011-10-12T14:58:32Z</time>
<desc>lat.=44.552071, lon.=34.295082, Alt.=70.198303m. Speed=2.376000m/h.</desc>
<speed>0.660000</speed>
</trkpt>
<trkpt lat="44.551983" lon="34.295231">
<ele>71.059631</ele>
<time>2011-10-12T14:58:37Z</time>
<desc>lat.=44.551983, lon.=34.295231, Alt.=71.059631m. Speed=11.088000m/h.</desc>
<speed>3.080000</speed>
</trkpt>
<trkpt lat="44.551899" lon="34.295464">
<ele>71.366272</ele>
<time>2011-10-12T14:58:42Z</time>
<desc>lat.=44.551899, lon.=34.295464, Alt.=71.366272m. Speed=16.164000m/h.</desc>
<speed>4.490000</speed>
</trkpt>
<trkpt lat="44.551815" lon="34.295650">
<ele>70.112366</ele>
<time>2011-10-12T14:58:47Z</time>
<desc>lat.=44.551815, lon.=34.295650, Alt.=70.112366m. Speed=7.668000m/h.</desc>
<speed>2.130000</speed>
</trkpt>
<trkpt lat="44.551811" lon="34.295681">
<ele>69.811584</ele>
<time>2011-10-12T14:58:52Z</time>
<desc>lat.=44.551811, lon.=34.295681, Alt.=69.811584m. Speed=0.900000m/h.</desc>
<speed>0.250000</speed>
</trkpt>
<trkpt lat="44.551815" lon="34.295689">
<ele>69.645569</ele>
<time>2011-10-12T14:58:57Z</time>
<desc>lat.=44.551815, lon.=34.295689, Alt.=69.645569m. Speed=0.396000m/h.</desc>
<speed>0.110000</speed>
</trkpt>
<trkpt lat="44.551815" lon="34.295692">
<ele>69.604553</ele>
<time>2011-10-12T14:59:02Z</time>
<desc>lat.=44.551815, lon.=34.295692, Alt.=69.604553m. Speed=0.144000m/h.</desc>
<speed>0.040000</speed>
</trkpt>
<trkpt lat="44.551811" lon="34.295696">
<ele>69.588928</ele>
<time>2011-10-12T14:59:07Z</time>
<desc>lat.=44.551811, lon.=34.295696, Alt.=69.588928m. Speed=0.432000m/h.</desc>
<speed>0.120000</speed>
</trkpt>
<trkpt lat="44.551807" lon="34.295734">
<ele>69.430725</ele>
<time>2011-10-12T14:59:12Z</time>
<desc>lat.=44.551807, lon.=34.295734, Alt.=69.430725m. Speed=7.740000m/h.</desc>
<speed>2.150000</speed>
</trkpt>
<trkpt lat="44.551865" lon="34.295921">
<ele>68.940491</ele>
<time>2011-10-12T14:59:17Z</time>
<desc>lat.=44.551865, lon.=34.295921, Alt.=68.940491m. Speed=10.152000m/h.</desc>
<speed>2.820000</speed>
</trkpt>
<trkpt lat="44.551964" lon="34.296066">
<ele>69.495178</ele>
<time>2011-10-12T14:59:22Z</time>
<desc>lat.=44.551964, lon.=34.296066, Alt.=69.495178m. Speed=14.364000m/h.</desc>
<speed>3.990000</speed>
</trkpt>
<trkpt lat="44.552071" lon="34.296188">
<ele>70.542053</ele>
<time>2011-10-12T14:59:27Z</time>
<desc>lat.=44.552071, lon.=34.296188, Alt.=70.542053m. Speed=7.704000m/h.</desc>
<speed>2.140000</speed>
</trkpt>
<trkpt lat="44.552193" lon="34.296249">
<ele>75.885803</ele>
<time>2011-10-12T14:59:32Z</time>
<desc>lat.=44.552193, lon.=34.296249, Alt.=75.885803m. Speed=12.348000m/h.</desc>
<speed>3.430000</speed>
</trkpt>
<trkpt lat="44.552341" lon="34.296318">
<ele>76.930725</ele>
<time>2011-10-12T14:59:37Z</time>
<desc>lat.=44.552341, lon.=34.296318, Alt.=76.930725m. Speed=10.080000m/h.</desc>
<speed>2.800000</speed>
</trkpt>
<trkpt lat="44.552437" lon="34.296574">
<ele>80.051819</ele>
<time>2011-10-12T14:59:42Z</time>
<desc>lat.=44.552437, lon.=34.296574, Alt.=80.051819m. Speed=23.868000m/h.</desc>
<speed>6.630000</speed>
</trkpt>
<trkpt lat="44.552582" lon="34.297035">
<ele>81.604553</ele>
<time>2011-10-12T14:59:47Z</time>
<desc>lat.=44.552582, lon.=34.297035, Alt.=81.604553m. Speed=26.747999m/h.</desc>
<speed>7.430000</speed>
</trkpt>
<trkpt lat="44.552700" lon="34.297398">
<ele>80.401428</ele>
<time>2011-10-12T14:59:52Z</time>
<desc>lat.=44.552700, lon.=34.297398, Alt.=80.401428m. Speed=20.195999m/h.</desc>
<speed>5.610000</speed>
</trkpt>
<trkpt lat="44.552792" lon="34.297531">
<ele>77.893616</ele>
<time>2011-10-12T14:59:57Z</time>
<desc>lat.=44.552792, lon.=34.297531, Alt.=77.893616m. Speed=4.500000m/h.</desc>
<speed>1.250000</speed>
</trkpt>
<trkpt lat="44.552799" lon="34.297535">
<ele>77.809631</ele>
<time>2011-10-12T15:00:02Z</time>
<desc>lat.=44.552799, lon.=34.297535, Alt.=77.809631m. Speed=0.288000m/h.</desc>
<speed>0.080000</speed>
</trkpt>
<trkpt lat="44.552799" lon="34.297539">
<ele>77.756897</ele>
<time>2011-10-12T15:00:07Z</time>
<desc>lat.=44.552799, lon.=34.297539, Alt.=77.756897m. Speed=1.836000m/h.</desc>
<speed>0.510000</speed>
</trkpt>
<trkpt lat="44.552799" lon="34.297600">
<ele>77.614319</ele>
<time>2011-10-12T15:00:12Z</time>
<desc>lat.=44.552799, lon.=34.297600, Alt.=77.614319m. Speed=1.044000m/h.</desc>
<speed>0.290000</speed>
</trkpt>
<trkpt lat="44.552807" lon="34.297604">
<ele>76.678772</ele>
<time>2011-10-12T15:00:17Z</time>
<desc>lat.=44.552807, lon.=34.297604, Alt.=76.678772m. Speed=0.216000m/h.</desc>
<speed>0.060000</speed>
</trkpt>
<trkpt lat="44.552807" lon="34.297604">
<ele>76.536194</ele>
<time>2011-10-12T15:00:22Z</time>
<desc>lat.=44.552807, lon.=34.297604, Alt.=76.536194m. Speed=0.036000m/h.</desc>
<speed>0.010000</speed>
</trkpt>
<trkpt lat="44.552807" lon="34.297604">
<ele>76.518616</ele>
<time>2011-10-12T15:00:27Z</time>
<desc>lat.=44.552807, lon.=34.297604, Alt.=76.518616m. Speed=0.108000m/h.</desc>
<speed>0.030000</speed>
</trkpt>
<trkpt lat="44.552807" lon="34.297604">
<ele>76.471741</ele>
<time>2011-10-12T15:00:32Z</time>
<desc>lat.=44.552807, lon.=34.297604, Alt.=76.471741m. Speed=0.000000m/h.</desc>
<speed>0.000000</speed>
</trkpt>
<trkpt lat="44.552807" lon="34.297604">
<ele>76.405334</ele>
<time>2011-10-12T15:00:37Z</time>
<desc>lat.=44.552807, lon.=34.297604, Alt.=76.405334m. Speed=0.000000m/h.</desc>
<speed>0.000000</speed>
</trkpt>
<trkpt lat="44.552807" lon="34.297604">
<ele>76.335022</ele>
<time>2011-10-12T15:00:42Z</time>
<desc>lat.=44.552807, lon.=34.297604, Alt.=76.335022m. Speed=0.072000m/h.</desc>
<speed>0.020000</speed>
</trkpt>
<trkpt lat="44.552807" lon="34.297604">
<ele>76.325256</ele>
<time>2011-10-12T15:00:47Z</time>
<desc>lat.=44.552807, lon.=34.297604, Alt.=76.325256m. Speed=0.036000m/h.</desc>
<speed>0.010000</speed>
</trkpt>
<trkpt lat="44.552807" lon="34.297604">
<ele>76.313538</ele>
<time>2011-10-12T15:00:52Z</time>
<desc>lat.=44.552807, lon.=34.297604, Alt.=76.313538m. Speed=0.000000m/h.</desc>
<speed>0.000000</speed>
</trkpt>
<trkpt lat="44.552807" lon="34.297604">
<ele>76.278381</ele>
<time>2011-10-12T15:00:57Z</time>
<desc>lat.=44.552807, lon.=34.297604, Alt.=76.278381m. Speed=0.000000m/h.</desc>
<speed>0.000000</speed>
</trkpt>
<trkpt lat="44.552807" lon="34.297604">
<ele>76.221741</ele>
<time>2011-10-12T15:01:02Z</time>
<desc>lat.=44.552807, lon.=34.297604, Alt.=76.221741m. Speed=0.072000m/h.</desc>
<speed>0.020000</speed>
</trkpt>
<trkpt lat="44.552807" lon="34.297604">
<ele>76.157288</ele>
<time>2011-10-12T15:01:07Z</time>
<desc>lat.=44.552807, lon.=34.297604, Alt.=76.157288m. Speed=0.000000m/h.</desc>
<speed>0.000000</speed>
</trkpt>
<trkpt lat="44.552807" lon="34.297604">
<ele>76.127991</ele>
<time>2011-10-12T15:01:12Z</time>
<desc>lat.=44.552807, lon.=34.297604, Alt.=76.127991m. Speed=0.000000m/h.</desc>
<speed>0.000000</speed>
</trkpt>
<trkpt lat="44.552807" lon="34.297604">
<ele>76.096741</ele>
<time>2011-10-12T15:01:17Z</time>
<desc>lat.=44.552807, lon.=34.297604, Alt.=76.096741m. Speed=0.036000m/h.</desc>
<speed>0.010000</speed>
</trkpt>
<trkpt lat="44.552807" lon="34.297604">
<ele>76.077209</ele>
<time>2011-10-12T15:01:22Z</time>
<desc>lat.=44.552807, lon.=34.297604, Alt.=76.077209m. Speed=0.072000m/h.</desc>
<speed>0.020000</speed>
</trkpt>
<trkpt lat="44.552807" lon="34.297604">
<ele>76.086975</ele>
<time>2011-10-12T15:01:27Z</time>
<desc>lat.=44.552807, lon.=34.297604, Alt.=76.086975m. Speed=0.036000m/h.</desc>
<speed>0.010000</speed>
</trkpt>
<trkpt lat="44.552807" lon="34.297604">
<ele>76.086975</ele>
<time>2011-10-12T15:01:32Z</time>
<desc>lat.=44.552807, lon.=34.297604, Alt.=76.086975m. Speed=0.036000m/h.</desc>
<speed>0.010000</speed>
</trkpt>
<trkpt lat="44.552807" lon="34.297604">
<ele>76.086975</ele>
<time>2011-10-12T15:01:37Z</time>
<desc>lat.=44.552807, lon.=34.297604, Alt.=76.086975m. Speed=0.072000m/h.</desc>
<speed>0.020000</speed>
</trkpt>
<trkpt lat="44.552807" lon="34.297604">
<ele>76.092834</ele>
<time>2011-10-12T15:01:42Z</time>
<desc>lat.=44.552807, lon.=34.297604, Alt.=76.092834m. Speed=0.000000m/h.</desc>
<speed>0.000000</speed>
</trkpt>
<trkpt lat="44.552807" lon="34.297604">
<ele>76.098694</ele>
<time>2011-10-12T15:01:47Z</time>
<desc>lat.=44.552807, lon.=34.297604, Alt.=76.098694m. Speed=0.180000m/h.</desc>
<speed>0.050000</speed>
</trkpt>
<trkpt lat="44.552811" lon="34.297604">
<ele>76.088928</ele>
<time>2011-10-12T15:01:52Z</time>
<desc>lat.=44.552811, lon.=34.297604, Alt.=76.088928m. Speed=1.224000m/h.</desc>
<speed>0.340000</speed>
</trkpt>
<trkpt lat="44.552830" lon="34.297424">
<ele>75.532288</ele>
<time>2011-10-12T15:01:57Z</time>
<desc>lat.=44.552830, lon.=34.297424, Alt.=75.532288m. Speed=12.456000m/h.</desc>
<speed>3.460000</speed>
</trkpt>
<trkpt lat="44.552952" lon="34.297245">
<ele>75.637756</ele>
<time>2011-10-12T15:02:02Z</time>
<desc>lat.=44.552952, lon.=34.297245, Alt.=75.637756m. Speed=13.680000m/h.</desc>
<speed>3.800000</speed>
</trkpt>
<trkpt lat="44.553078" lon="34.297089">
<ele>75.428772</ele>
<time>2011-10-12T15:02:07Z</time>
<desc>lat.=44.553078, lon.=34.297089, Alt.=75.428772m. Speed=13.320000m/h.</desc>
<speed>3.700000</speed>
</trkpt>
<trkpt lat="44.553162" lon="34.296925">
<ele>75.497131</ele>
<time>2011-10-12T15:02:12Z</time>
<desc>lat.=44.553162, lon.=34.296925, Alt.=75.497131m. Speed=10.476000m/h.</desc>
<speed>2.910000</speed>
</trkpt>
<trkpt lat="44.553230" lon="34.296761">
<ele>75.975647</ele>
<time>2011-10-12T15:02:17Z</time>
<desc>lat.=44.553230, lon.=34.296761, Alt.=75.975647m. Speed=11.016000m/h.</desc>
<speed>3.060000</speed>
</trkpt>
<trkpt lat="44.553303" lon="34.296616">
<ele>76.795959</ele>
<time>2011-10-12T15:02:22Z</time>
<desc>lat.=44.553303, lon.=34.296616, Alt.=76.795959m. Speed=8.640000m/h.</desc>
<speed>2.400000</speed>
</trkpt>
<trkpt lat="44.553352" lon="34.296463">
<ele>77.876038</ele>
<time>2011-10-12T15:02:27Z</time>
<desc>lat.=44.553352, lon.=34.296463, Alt.=77.876038m. Speed=8.532000m/h.</desc>
<speed>2.370000</speed>
</trkpt>
<trkpt lat="44.553394" lon="34.296307">
<ele>79.776428</ele>
<time>2011-10-12T15:02:32Z</time>
<desc>lat.=44.553394, lon.=34.296307, Alt.=79.776428m. Speed=9.936000m/h.</desc>
<speed>2.760000</speed>
</trkpt>
<trkpt lat="44.553436" lon="34.296146">
<ele>81.452209</ele>
<time>2011-10-12T15:02:37Z</time>
<desc>lat.=44.553436, lon.=34.296146, Alt.=81.452209m. Speed=8.640000m/h.</desc>
<speed>2.400000</speed>
</trkpt>
<trkpt lat="44.553482" lon="34.296005">
<ele>82.557678</ele>
<time>2011-10-12T15:02:42Z</time>
<desc>lat.=44.553482, lon.=34.296005, Alt.=82.557678m. Speed=7.848000m/h.</desc>
<speed>2.180000</speed>
</trkpt>
<trkpt lat="44.553535" lon="34.295895">
<ele>83.129944</ele>
<time>2011-10-12T15:02:47Z</time>
<desc>lat.=44.553535, lon.=34.295895, Alt.=83.129944m. Speed=8.568000m/h.</desc>
<speed>2.380000</speed>
</trkpt>
<trkpt lat="44.553589" lon="34.295807">
<ele>83.278381</ele>
<time>2011-10-12T15:02:52Z</time>
<desc>lat.=44.553589, lon.=34.295807, Alt.=83.278381m. Speed=6.696000m/h.</desc>
<speed>1.860000</speed>
</trkpt>
<trkpt lat="44.553619" lon="34.295685">
<ele>83.385803</ele>
<time>2011-10-12T15:02:57Z</time>
<desc>lat.=44.553619, lon.=34.295685, Alt.=83.385803m. Speed=8.316000m/h.</desc>
<speed>2.310000</speed>
</trkpt>
<trkpt lat="44.553635" lon="34.295521">
<ele>83.336975</ele>
<time>2011-10-12T15:03:02Z</time>
<desc>lat.=44.553635, lon.=34.295521, Alt.=83.336975m. Speed=7.776000m/h.</desc>
<speed>2.160000</speed>
</trkpt>
<trkpt lat="44.553596" lon="34.295349">
<ele>86.698303</ele>
<time>2011-10-12T15:03:07Z</time>
<desc>lat.=44.553596, lon.=34.295349, Alt.=86.698303m. Speed=7.200000m/h.</desc>
<speed>2.000000</speed>
</trkpt>
<trkpt lat="44.553562" lon="34.295231">
<ele>88.170959</ele>
<time>2011-10-12T15:03:12Z</time>
<desc>lat.=44.553562, lon.=34.295231, Alt.=88.170959m. Speed=7.740000m/h.</desc>
<speed>2.150000</speed>
</trkpt>
<trkpt lat="44.553532" lon="34.295113">
<ele>88.573303</ele>
<time>2011-10-12T15:03:17Z</time>
<desc>lat.=44.553532, lon.=34.295113, Alt.=88.573303m. Speed=6.804000m/h.</desc>
<speed>1.890000</speed>
</trkpt>
<trkpt lat="44.553505" lon="34.295006">
<ele>88.477600</ele>
<time>2011-10-12T15:03:22Z</time>
<desc>lat.=44.553505, lon.=34.295006, Alt.=88.477600m. Speed=6.696000m/h.</desc>
<speed>1.860000</speed>
</trkpt>
<trkpt lat="44.553467" lon="34.294903">
<ele>89.379944</ele>
<time>2011-10-12T15:03:27Z</time>
<desc>lat.=44.553467, lon.=34.294903, Alt.=89.379944m. Speed=6.984000m/h.</desc>
<speed>1.940000</speed>
</trkpt>
<trkpt lat="44.553391" lon="34.294796">
<ele>91.190491</ele>
<time>2011-10-12T15:03:32Z</time>
<desc>lat.=44.553391, lon.=34.294796, Alt.=91.190491m. Speed=7.308000m/h.</desc>
<speed>2.030000</speed>
</trkpt>
<trkpt lat="44.553329" lon="34.294682">
<ele>93.333069</ele>
<time>2011-10-12T15:03:37Z</time>
<desc>lat.=44.553329, lon.=34.294682, Alt.=93.333069m. Speed=7.848000m/h.</desc>
<speed>2.180000</speed>
</trkpt>
<trkpt lat="44.553268" lon="34.294575">
<ele>95.391663</ele>
<time>2011-10-12T15:03:42Z</time>
<desc>lat.=44.553268, lon.=34.294575, Alt.=95.391663m. Speed=8.280000m/h.</desc>
<speed>2.300000</speed>
</trkpt>
<trkpt lat="44.553204" lon="34.294476">
<ele>96.635803</ele>
<time>2011-10-12T15:03:47Z</time>
<desc>lat.=44.553204, lon.=34.294476, Alt.=96.635803m. Speed=7.776000m/h.</desc>
<speed>2.160000</speed>
</trkpt>
<trkpt lat="44.553150" lon="34.294369">
<ele>98.014709</ele>
<time>2011-10-12T15:03:52Z</time>
<desc>lat.=44.553150, lon.=34.294369, Alt.=98.014709m. Speed=7.668000m/h.</desc>
<speed>2.130000</speed>
</trkpt>
<trkpt lat="44.553120" lon="34.294273">
<ele>98.475647</ele>
<time>2011-10-12T15:03:57Z</time>
<desc>lat.=44.553120, lon.=34.294273, Alt.=98.475647m. Speed=5.760000m/h.</desc>
<speed>1.600000</speed>
</trkpt>
<trkpt lat="44.553108" lon="34.294209">
<ele>98.710022</ele>
<time>2011-10-12T15:04:02Z</time>
<desc>lat.=44.553108, lon.=34.294209, Alt.=98.710022m. Speed=5.652000m/h.</desc>
<speed>1.570000</speed>
</trkpt>
<trkpt lat="44.553059" lon="34.294125">
<ele>99.979553</ele>
<time>2011-10-12T15:04:07Z</time>
<desc>lat.=44.553059, lon.=34.294125, Alt.=99.979553m. Speed=5.976000m/h.</desc>
<speed>1.660000</speed>
</trkpt>
<trkpt lat="44.552994" lon="34.294029">
<ele>101.708069</ele>
<time>2011-10-12T15:04:12Z</time>
<desc>lat.=44.552994, lon.=34.294029, Alt.=101.708069m. Speed=7.344000m/h.</desc>
<speed>2.040000</speed>
</trkpt>
<trkpt lat="44.552937" lon="34.293926">
<ele>102.919006</ele>
<time>2011-10-12T15:04:17Z</time>
<desc>lat.=44.552937, lon.=34.293926, Alt.=102.919006m. Speed=6.912000m/h.</desc>
<speed>1.920000</speed>
</trkpt>
<trkpt lat="44.552872" lon="34.293831">
<ele>103.295959</ele>
<time>2011-10-12T15:04:22Z</time>
<desc>lat.=44.552872, lon.=34.293831, Alt.=103.295959m. Speed=8.208000m/h.</desc>
<speed>2.280000</speed>
</trkpt>
<trkpt lat="44.552826" lon="34.293709">
<ele>103.950256</ele>
<time>2011-10-12T15:04:27Z</time>
<desc>lat.=44.552826, lon.=34.293709, Alt.=103.950256m. Speed=7.668000m/h.</desc>
<speed>2.130000</speed>
</trkpt>
<trkpt lat="44.552795" lon="34.293598">
<ele>105.210022</ele>
<time>2011-10-12T15:04:32Z</time>
<desc>lat.=44.552795, lon.=34.293598, Alt.=105.210022m. Speed=6.948000m/h.</desc>
<speed>1.930000</speed>
</trkpt>
<trkpt lat="44.552803" lon="34.293488">
<ele>105.956116</ele>
<time>2011-10-12T15:04:37Z</time>
<desc>lat.=44.552803, lon.=34.293488, Alt.=105.956116m. Speed=6.480000m/h.</desc>
<speed>1.800000</speed>
</trkpt>
<trkpt lat="44.552795" lon="34.293365">
<ele>105.936584</ele>
<time>2011-10-12T15:04:42Z</time>
<desc>lat.=44.552795, lon.=34.293365, Alt.=105.936584m. Speed=5.688000m/h.</desc>
<speed>1.580000</speed>
</trkpt>
<trkpt lat="44.552807" lon="34.293274">
<ele>106.963928</ele>
<time>2011-10-12T15:04:47Z</time>
<desc>lat.=44.552807, lon.=34.293274, Alt.=106.963928m. Speed=4.680000m/h.</desc>
<speed>1.300000</speed>
</trkpt>
<trkpt lat="44.552841" lon="34.293194">
<ele>109.637756</ele>
<time>2011-10-12T15:04:52Z</time>
<desc>lat.=44.552841, lon.=34.293194, Alt.=109.637756m. Speed=7.092000m/h.</desc>
<speed>1.970000</speed>
</trkpt>
<trkpt lat="44.552876" lon="34.293079">
<ele>111.254944</ele>
<time>2011-10-12T15:04:57Z</time>
<desc>lat.=44.552876, lon.=34.293079, Alt.=111.254944m. Speed=9.000000m/h.</desc>
<speed>2.500000</speed>
</trkpt>
<trkpt lat="44.552944" lon="34.292980">
<ele>112.678772</ele>
<time>2011-10-12T15:05:02Z</time>
<desc>lat.=44.552944, lon.=34.292980, Alt.=112.678772m. Speed=8.460000m/h.</desc>
<speed>2.350000</speed>
</trkpt>
<trkpt lat="44.553009" lon="34.292850">
<ele>114.143616</ele>
<time>2011-10-12T15:05:07Z</time>
<desc>lat.=44.553009, lon.=34.292850, Alt.=114.143616m. Speed=8.388000m/h.</desc>
<speed>2.330000</speed>
</trkpt>
<trkpt lat="44.553070" lon="34.292763">
<ele>113.044006</ele>
<time>2011-10-12T15:05:12Z</time>
<desc>lat.=44.553070, lon.=34.292763, Alt.=113.044006m. Speed=7.488000m/h.</desc>
<speed>2.080000</speed>
</trkpt>
<trkpt lat="44.553127" lon="34.292706">
<ele>114.071350</ele>
<time>2011-10-12T15:05:17Z</time>
<desc>lat.=44.553127, lon.=34.292706, Alt.=114.071350m. Speed=5.868000m/h.</desc>
<speed>1.630000</speed>
</trkpt>
<trkpt lat="44.553181" lon="34.292610">
<ele>115.680725</ele>
<time>2011-10-12T15:05:22Z</time>
<desc>lat.=44.553181, lon.=34.292610, Alt.=115.680725m. Speed=7.488000m/h.</desc>
<speed>2.080000</speed>
</trkpt>
<trkpt lat="44.553215" lon="34.292507">
<ele>116.751038</ele>
<time>2011-10-12T15:05:27Z</time>
<desc>lat.=44.553215, lon.=34.292507, Alt.=116.751038m. Speed=6.552000m/h.</desc>
<speed>1.820000</speed>
</trkpt>
<trkpt lat="44.553257" lon="34.292393">
<ele>118.366272</ele>
<time>2011-10-12T15:05:32Z</time>
<desc>lat.=44.553257, lon.=34.292393, Alt.=118.366272m. Speed=6.408000m/h.</desc>
<speed>1.780000</speed>
</trkpt>
<trkpt lat="44.553288" lon="34.292297">
<ele>119.850647</ele>
<time>2011-10-12T15:05:37Z</time>
<desc>lat.=44.553288, lon.=34.292297, Alt.=119.850647m. Speed=6.012000m/h.</desc>
<speed>1.670000</speed>
</trkpt>
<trkpt lat="44.553326" lon="34.292194">
<ele>121.055725</ele>
<time>2011-10-12T15:05:42Z</time>
<desc>lat.=44.553326, lon.=34.292194, Alt.=121.055725m. Speed=7.092000m/h.</desc>
<speed>1.970000</speed>
</trkpt>
<trkpt lat="44.553352" lon="34.292088">
<ele>123.444397</ele>
<time>2011-10-12T15:05:47Z</time>
<desc>lat.=44.553352, lon.=34.292088, Alt.=123.444397m. Speed=7.164000m/h.</desc>
<speed>1.990000</speed>
</trkpt>
<trkpt lat="44.553375" lon="34.291950">
<ele>125.948303</ele>
<time>2011-10-12T15:05:52Z</time>
<desc>lat.=44.553375, lon.=34.291950, Alt.=125.948303m. Speed=7.524000m/h.</desc>
<speed>2.090000</speed>
</trkpt>
<trkpt lat="44.553410" lon="34.291817">
<ele>124.919006</ele>
<time>2011-10-12T15:05:57Z</time>
<desc>lat.=44.553410, lon.=34.291817, Alt.=124.919006m. Speed=7.308000m/h.</desc>
<speed>2.030000</speed>
</trkpt>
<trkpt lat="44.553436" lon="34.291687">
<ele>124.807678</ele>
<time>2011-10-12T15:06:02Z</time>
<desc>lat.=44.553436, lon.=34.291687, Alt.=124.807678m. Speed=7.632000m/h.</desc>
<speed>2.120000</speed>
</trkpt>
<trkpt lat="44.553467" lon="34.291557">
<ele>125.698303</ele>
<time>2011-10-12T15:06:07Z</time>
<desc>lat.=44.553467, lon.=34.291557, Alt.=125.698303m. Speed=8.892000m/h.</desc>
<speed>2.470000</speed>
</trkpt>
<trkpt lat="44.553501" lon="34.291431">
<ele>125.036194</ele>
<time>2011-10-12T15:06:12Z</time>
<desc>lat.=44.553501, lon.=34.291431, Alt.=125.036194m. Speed=6.984000m/h.</desc>
<speed>1.940000</speed>
</trkpt>
<trkpt lat="44.553516" lon="34.291290">
<ele>123.801819</ele>
<time>2011-10-12T15:06:17Z</time>
<desc>lat.=44.553516, lon.=34.291290, Alt.=123.801819m. Speed=6.372000m/h.</desc>
<speed>1.770000</speed>
</trkpt>
<trkpt lat="44.553520" lon="34.291210">
<ele>122.200256</ele>
<time>2011-10-12T15:06:22Z</time>
<desc>lat.=44.553520, lon.=34.291210, Alt.=122.200256m. Speed=0.144000m/h.</desc>
<speed>0.040000</speed>
</trkpt>
<trkpt lat="44.553516" lon="34.291203">
<ele>122.053772</ele>
<time>2011-10-12T15:06:27Z</time>
<desc>lat.=44.553516, lon.=34.291203, Alt.=122.053772m. Speed=2.916000m/h.</desc>
<speed>0.810000</speed>
</trkpt>
<trkpt lat="44.553463" lon="34.291164">
<ele>122.538147</ele>
<time>2011-10-12T15:06:32Z</time>
<desc>lat.=44.553463, lon.=34.291164, Alt.=122.538147m. Speed=3.888000m/h.</desc>
<speed>1.080000</speed>
</trkpt>
<trkpt lat="44.553417" lon="34.291119">
<ele>122.965881</ele>
<time>2011-10-12T15:06:37Z</time>
<desc>lat.=44.553417, lon.=34.291119, Alt.=122.965881m. Speed=2.196000m/h.</desc>
<speed>0.610000</speed>
</trkpt>
<trkpt lat="44.553402" lon="34.291088">
<ele>123.143616</ele>
<time>2011-10-12T15:06:42Z</time>
<desc>lat.=44.553402, lon.=34.291088, Alt.=123.143616m. Speed=1.584000m/h.</desc>
<speed>0.440000</speed>
</trkpt>
<trkpt lat="44.553379" lon="34.291088">
<ele>123.534241</ele>
<time>2011-10-12T15:06:47Z</time>
<desc>lat.=44.553379, lon.=34.291088, Alt.=123.534241m. Speed=0.252000m/h.</desc>
<speed>0.070000</speed>
</trkpt>
<trkpt lat="44.553383" lon="34.291088">
<ele>123.522522</ele>
<time>2011-10-12T15:06:52Z</time>
<desc>lat.=44.553383, lon.=34.291088, Alt.=123.522522m. Speed=0.216000m/h.</desc>
<speed>0.060000</speed>
</trkpt>
<trkpt lat="44.553387" lon="34.291088">
<ele>123.620178</ele>
<time>2011-10-12T15:06:57Z</time>
<desc>lat.=44.553387, lon.=34.291088, Alt.=123.620178m. Speed=0.324000m/h.</desc>
<speed>0.090000</speed>
</trkpt>
<trkpt lat="44.553383" lon="34.291084">
<ele>123.680725</ele>
<time>2011-10-12T15:07:02Z</time>
<desc>lat.=44.553383, lon.=34.291084, Alt.=123.680725m. Speed=0.432000m/h.</desc>
<speed>0.120000</speed>
</trkpt>
<trkpt lat="44.553371" lon="34.291103">
<ele>123.838928</ele>
<time>2011-10-12T15:07:07Z</time>
<desc>lat.=44.553371, lon.=34.291103, Alt.=123.838928m. Speed=0.540000m/h.</desc>
<speed>0.150000</speed>
</trkpt>
<trkpt lat="44.553352" lon="34.291130">
<ele>123.934631</ele>
<time>2011-10-12T15:07:12Z</time>
<desc>lat.=44.553352, lon.=34.291130, Alt.=123.934631m. Speed=0.432000m/h.</desc>
<speed>0.120000</speed>
</trkpt>
<trkpt lat="44.553299" lon="34.291153">
<ele>123.319397</ele>
<time>2011-10-12T15:07:17Z</time>
<desc>lat.=44.553299, lon.=34.291153, Alt.=123.319397m. Speed=0.576000m/h.</desc>
<speed>0.160000</speed>
</trkpt>
<trkpt lat="44.553288" lon="34.291153">
<ele>123.210022</ele>
<time>2011-10-12T15:07:22Z</time>
<desc>lat.=44.553288, lon.=34.291153, Alt.=123.210022m. Speed=0.432000m/h.</desc>
<speed>0.120000</speed>
</trkpt>
<trkpt lat="44.553261" lon="34.291119">
<ele>122.868225</ele>
<time>2011-10-12T15:07:27Z</time>
<desc>lat.=44.553261, lon.=34.291119, Alt.=122.868225m. Speed=8.856000m/h.</desc>
<speed>2.460000</speed>
</trkpt>
<trkpt lat="44.553127" lon="34.291023">
<ele>122.110413</ele>
<time>2011-10-12T15:07:32Z</time>
<desc>lat.=44.553127, lon.=34.291023, Alt.=122.110413m. Speed=12.636000m/h.</desc>
<speed>3.510000</speed>
</trkpt>
<trkpt lat="44.552986" lon="34.290920">
<ele>122.510803</ele>
<time>2011-10-12T15:07:37Z</time>
<desc>lat.=44.552986, lon.=34.290920, Alt.=122.510803m. Speed=12.744000m/h.</desc>
<speed>3.540000</speed>
</trkpt>
<trkpt lat="44.552834" lon="34.290886">
<ele>123.475647</ele>
<time>2011-10-12T15:07:42Z</time>
<desc>lat.=44.552834, lon.=34.290886, Alt.=123.475647m. Speed=10.332000m/h.</desc>
<speed>2.870000</speed>
</trkpt>
<trkpt lat="44.552685" lon="34.290993">
<ele>124.020569</ele>
<time>2011-10-12T15:07:47Z</time>
<desc>lat.=44.552685, lon.=34.290993, Alt.=124.020569m. Speed=10.728000m/h.</desc>
<speed>2.980000</speed>
</trkpt>
<trkpt lat="44.552589" lon="34.291134">
<ele>125.122131</ele>
<time>2011-10-12T15:07:52Z</time>
<desc>lat.=44.552589, lon.=34.291134, Alt.=125.122131m. Speed=10.152000m/h.</desc>
<speed>2.820000</speed>
</trkpt>
<trkpt lat="44.552483" lon="34.291283">
<ele>126.887756</ele>
<time>2011-10-12T15:07:57Z</time>
<desc>lat.=44.552483, lon.=34.291283, Alt.=126.887756m. Speed=14.724000m/h.</desc>
<speed>4.090000</speed>
</trkpt>
<trkpt lat="44.552315" lon="34.291485">
<ele>126.245178</ele>
<time>2011-10-12T15:08:02Z</time>
<desc>lat.=44.552315, lon.=34.291485, Alt.=126.245178m. Speed=18.323999m/h.</desc>
<speed>5.090000</speed>
</trkpt>
<trkpt lat="44.552139" lon="34.291611">
<ele>124.397522</ele>
<time>2011-10-12T15:08:07Z</time>
<desc>lat.=44.552139, lon.=34.291611, Alt.=124.397522m. Speed=12.636000m/h.</desc>
<speed>3.510000</speed>
</trkpt>
<trkpt lat="44.552032" lon="34.291626">
<ele>124.251038</ele>
<time>2011-10-12T15:08:12Z</time>
<desc>lat.=44.552032, lon.=34.291626, Alt.=124.251038m. Speed=5.940000m/h.</desc>
<speed>1.650000</speed>
</trkpt>
<trkpt lat="44.551987" lon="34.291573">
<ele>123.725647</ele>
<time>2011-10-12T15:08:17Z</time>
<desc>lat.=44.551987, lon.=34.291573, Alt.=123.725647m. Speed=5.580000m/h.</desc>
<speed>1.550000</speed>
</trkpt>
<trkpt lat="44.551929" lon="34.291431">
<ele>121.491272</ele>
<time>2011-10-12T15:08:22Z</time>
<desc>lat.=44.551929, lon.=34.291431, Alt.=121.491272m. Speed=12.312000m/h.</desc>
<speed>3.420000</speed>
</trkpt>
<trkpt lat="44.551846" lon="34.291245">
<ele>119.702209</ele>
<time>2011-10-12T15:08:27Z</time>
<desc>lat.=44.551846, lon.=34.291245, Alt.=119.702209m. Speed=11.844000m/h.</desc>
<speed>3.290000</speed>
</trkpt>
<trkpt lat="44.551777" lon="34.291100">
<ele>119.129944</ele>
<time>2011-10-12T15:08:32Z</time>
<desc>lat.=44.551777, lon.=34.291100, Alt.=119.129944m. Speed=10.080000m/h.</desc>
<speed>2.800000</speed>
</trkpt>
<trkpt lat="44.551662" lon="34.290947">
<ele>117.616272</ele>
<time>2011-10-12T15:08:37Z</time>
<desc>lat.=44.551662, lon.=34.290947, Alt.=117.616272m. Speed=13.644000m/h.</desc>
<speed>3.790000</speed>
</trkpt>
<trkpt lat="44.551521" lon="34.290867">
<ele>115.752991</ele>
<time>2011-10-12T15:08:42Z</time>
<desc>lat.=44.551521, lon.=34.290867, Alt.=115.752991m. Speed=12.096000m/h.</desc>
<speed>3.360000</speed>
</trkpt>
<trkpt lat="44.551353" lon="34.290859">
<ele>114.598694</ele>
<time>2011-10-12T15:08:47Z</time>
<desc>lat.=44.551353, lon.=34.290859, Alt.=114.598694m. Speed=12.276000m/h.</desc>
<speed>3.410000</speed>
</trkpt>
<trkpt lat="44.551239" lon="34.290886">
<ele>113.079163</ele>
<time>2011-10-12T15:08:52Z</time>
<desc>lat.=44.551239, lon.=34.290886, Alt.=113.079163m. Speed=8.964000m/h.</desc>
<speed>2.490000</speed>
</trkpt>
<trkpt lat="44.551086" lon="34.290913">
<ele>111.051819</ele>
<time>2011-10-12T15:08:57Z</time>
<desc>lat.=44.551086, lon.=34.290913, Alt.=111.051819m. Speed=13.032000m/h.</desc>
<speed>3.620000</speed>
</trkpt>
<trkpt lat="44.550930" lon="34.290894">
<ele>109.786194</ele>
<time>2011-10-12T15:09:02Z</time>
<desc>lat.=44.550930, lon.=34.290894, Alt.=109.786194m. Speed=12.060000m/h.</desc>
<speed>3.350000</speed>
</trkpt>
<trkpt lat="44.550770" lon="34.290867">
<ele>107.885803</ele>
<time>2011-10-12T15:09:07Z</time>
<desc>lat.=44.550770, lon.=34.290867, Alt.=107.885803m. Speed=14.976000m/h.</desc>
<speed>4.160000</speed>
</trkpt>
<trkpt lat="44.550575" lon="34.290897">
<ele>106.647522</ele>
<time>2011-10-12T15:09:12Z</time>
<desc>lat.=44.550575, lon.=34.290897, Alt.=106.647522m. Speed=11.412000m/h.</desc>
<speed>3.170000</speed>
</trkpt>
<trkpt lat="44.550472" lon="34.290905">
<ele>105.413147</ele>
<time>2011-10-12T15:09:17Z</time>
<desc>lat.=44.550472, lon.=34.290905, Alt.=105.413147m. Speed=6.084000m/h.</desc>
<speed>1.690000</speed>
</trkpt>
<trkpt lat="44.550423" lon="34.290813">
<ele>105.377991</ele>
<time>2011-10-12T15:09:22Z</time>
<desc>lat.=44.550423, lon.=34.290813, Alt.=105.377991m. Speed=8.856000m/h.</desc>
<speed>2.460000</speed>
</trkpt>
<trkpt lat="44.550343" lon="34.290665">
<ele>104.026428</ele>
<time>2011-10-12T15:09:27Z</time>
<desc>lat.=44.550343, lon.=34.290665, Alt.=104.026428m. Speed=11.016000m/h.</desc>
<speed>3.060000</speed>
</trkpt>
<trkpt lat="44.550247" lon="34.290516">
<ele>102.432678</ele>
<time>2011-10-12T15:09:32Z</time>
<desc>lat.=44.550247, lon.=34.290516, Alt.=102.432678m. Speed=10.116000m/h.</desc>
<speed>2.810000</speed>
</trkpt>
<trkpt lat="44.550194" lon="34.290421">
<ele>102.700256</ele>
<time>2011-10-12T15:09:37Z</time>
<desc>lat.=44.550194, lon.=34.290421, Alt.=102.700256m. Speed=5.184000m/h.</desc>
<speed>1.440000</speed>
</trkpt>
<trkpt lat="44.550148" lon="34.290352">
<ele>102.770569</ele>
<time>2011-10-12T15:09:42Z</time>
<desc>lat.=44.550148, lon.=34.290352, Alt.=102.770569m. Speed=2.340000m/h.</desc>
<speed>0.650000</speed>
</trkpt>
<trkpt lat="44.550133" lon="34.290321">
<ele>104.085022</ele>
<time>2011-10-12T15:09:47Z</time>
<desc>lat.=44.550133, lon.=34.290321, Alt.=104.085022m. Speed=6.840000m/h.</desc>
<speed>1.900000</speed>
</trkpt>
<trkpt lat="44.550110" lon="34.290154">
<ele>104.610413</ele>
<time>2011-10-12T15:09:52Z</time>
<desc>lat.=44.550110, lon.=34.290154, Alt.=104.610413m. Speed=8.856000m/h.</desc>
<speed>2.460000</speed>
</trkpt>
<trkpt lat="44.550102" lon="34.290005">
<ele>106.114319</ele>
<time>2011-10-12T15:09:57Z</time>
<desc>lat.=44.550102, lon.=34.290005, Alt.=106.114319m. Speed=9.900000m/h.</desc>
<speed>2.750000</speed>
</trkpt>
<trkpt lat="44.550117" lon="34.289833">
<ele>107.172913</ele>
<time>2011-10-12T15:10:02Z</time>
<desc>lat.=44.550117, lon.=34.289833, Alt.=107.172913m. Speed=8.748000m/h.</desc>
<speed>2.430000</speed>
</trkpt>
<trkpt lat="44.550167" lon="34.289684">
<ele>111.346741</ele>
<time>2011-10-12T15:10:07Z</time>
<desc>lat.=44.550167, lon.=34.289684, Alt.=111.346741m. Speed=12.204000m/h.</desc>
<speed>3.390000</speed>
</trkpt>
<trkpt lat="44.550228" lon="34.289528">
<ele>113.879944</ele>
<time>2011-10-12T15:10:12Z</time>
<desc>lat.=44.550228, lon.=34.289528, Alt.=113.879944m. Speed=9.648000m/h.</desc>
<speed>2.680000</speed>
</trkpt>
<trkpt lat="44.550282" lon="34.289383">
<ele>115.610413</ele>
<time>2011-10-12T15:10:17Z</time>
<desc>lat.=44.550282, lon.=34.289383, Alt.=115.610413m. Speed=9.108000m/h.</desc>
<speed>2.530000</speed>
</trkpt>
<trkpt lat="44.550304" lon="34.289291">
<ele>115.428772</ele>
<time>2011-10-12T15:10:22Z</time>
<desc>lat.=44.550304, lon.=34.289291, Alt.=115.428772m. Speed=0.540000m/h.</desc>
<speed>0.150000</speed>
</trkpt>
<trkpt lat="44.550301" lon="34.289291">
<ele>115.338928</ele>
<time>2011-10-12T15:10:27Z</time>
<desc>lat.=44.550301, lon.=34.289291, Alt.=115.338928m. Speed=1.584000m/h.</desc>
<speed>0.440000</speed>
</trkpt>
<trkpt lat="44.550274" lon="34.289303">
<ele>114.473694</ele>
<time>2011-10-12T15:10:32Z</time>
<desc>lat.=44.550274, lon.=34.289303, Alt.=114.473694m. Speed=5.256000m/h.</desc>
<speed>1.460000</speed>
</trkpt>
<trkpt lat="44.550213" lon="34.289505">
<ele>114.479553</ele>
<time>2011-10-12T15:10:37Z</time>
<desc>lat.=44.550213, lon.=34.289505, Alt.=114.479553m. Speed=13.644000m/h.</desc>
<speed>3.790000</speed>
</trkpt>
<trkpt lat="44.550110" lon="34.289726">
<ele>112.135803</ele>
<time>2011-10-12T15:10:42Z</time>
<desc>lat.=44.550110, lon.=34.289726, Alt.=112.135803m. Speed=14.436000m/h.</desc>
<speed>4.010000</speed>
</trkpt>
<trkpt lat="44.550026" lon="34.289963">
<ele>108.784241</ele>
<time>2011-10-12T15:10:47Z</time>
<desc>lat.=44.550026, lon.=34.289963, Alt.=108.784241m. Speed=14.832000m/h.</desc>
<speed>4.120000</speed>
</trkpt>
<trkpt lat="44.550026" lon="34.290211">
<ele>109.499084</ele>
<time>2011-10-12T15:10:52Z</time>
<desc>lat.=44.550026, lon.=34.290211, Alt.=109.499084m. Speed=13.320000m/h.</desc>
<speed>3.700000</speed>
</trkpt>
<trkpt lat="44.550121" lon="34.290462">
<ele>108.215881</ele>
<time>2011-10-12T15:10:57Z</time>
<desc>lat.=44.550121, lon.=34.290462, Alt.=108.215881m. Speed=17.172001m/h.</desc>
<speed>4.770000</speed>
</trkpt>
<trkpt lat="44.550274" lon="34.290699">
<ele>104.506897</ele>
<time>2011-10-12T15:11:02Z</time>
<desc>lat.=44.550274, lon.=34.290699, Alt.=104.506897m. Speed=15.840000m/h.</desc>
<speed>4.400000</speed>
</trkpt>
<trkpt lat="44.550396" lon="34.290867">
<ele>102.508850</ele>
<time>2011-10-12T15:11:07Z</time>
<desc>lat.=44.550396, lon.=34.290867, Alt.=102.508850m. Speed=10.044000m/h.</desc>
<speed>2.790000</speed>
</trkpt>
<trkpt lat="44.550404" lon="34.290985">
<ele>100.887756</ele>
<time>2011-10-12T15:11:12Z</time>
<desc>lat.=44.550404, lon.=34.290985, Alt.=100.887756m. Speed=6.264000m/h.</desc>
<speed>1.740000</speed>
</trkpt>
<trkpt lat="44.550339" lon="34.291027">
<ele>99.592834</ele>
<time>2011-10-12T15:11:17Z</time>
<desc>lat.=44.550339, lon.=34.291027, Alt.=99.592834m. Speed=0.468000m/h.</desc>
<speed>0.130000</speed>
</trkpt>
<trkpt lat="44.550339" lon="34.291019">
<ele>99.399475</ele>
<time>2011-10-12T15:11:22Z</time>
<desc>lat.=44.550339, lon.=34.291019, Alt.=99.399475m. Speed=0.252000m/h.</desc>
<speed>0.070000</speed>
</trkpt>
<trkpt lat="44.550289" lon="34.290981">
<ele>98.165100</ele>
<time>2011-10-12T15:11:27Z</time>
<desc>lat.=44.550289, lon.=34.290981, Alt.=98.165100m. Speed=9.900000m/h.</desc>
<speed>2.750000</speed>
</trkpt>
<trkpt lat="44.550240" lon="34.290936">
<ele>96.475647</ele>
<time>2011-10-12T15:11:32Z</time>
<desc>lat.=44.550240, lon.=34.290936, Alt.=96.475647m. Speed=1.296000m/h.</desc>
<speed>0.360000</speed>
</trkpt>
<trkpt lat="44.550240" lon="34.290939">
<ele>96.090881</ele>
<time>2011-10-12T15:11:37Z</time>
<desc>lat.=44.550240, lon.=34.290939, Alt.=96.090881m. Speed=0.252000m/h.</desc>
<speed>0.070000</speed>
</trkpt>
<trkpt lat="44.550240" lon="34.290936">
<ele>95.596741</ele>
<time>2011-10-12T15:11:42Z</time>
<desc>lat.=44.550240, lon.=34.290936, Alt.=95.596741m. Speed=0.288000m/h.</desc>
<speed>0.080000</speed>
</trkpt>
<trkpt lat="44.550236" lon="34.290932">
<ele>95.434631</ele>
<time>2011-10-12T15:11:47Z</time>
<desc>lat.=44.550236, lon.=34.290932, Alt.=95.434631m. Speed=0.432000m/h.</desc>
<speed>0.120000</speed>
</trkpt>
<trkpt lat="44.550228" lon="34.290932">
<ele>95.377991</ele>
<time>2011-10-12T15:11:52Z</time>
<desc>lat.=44.550228, lon.=34.290932, Alt.=95.377991m. Speed=1.440000m/h.</desc>
<speed>0.400000</speed>
</trkpt>
<trkpt lat="44.550144" lon="34.290802">
<ele>95.204163</ele>
<time>2011-10-12T15:11:57Z</time>
<desc>lat.=44.550144, lon.=34.290802, Alt.=95.204163m. Speed=13.464000m/h.</desc>
<speed>3.740000</speed>
</trkpt>
<trkpt lat="44.550072" lon="34.290718">
<ele>94.241272</ele>
<time>2011-10-12T15:12:02Z</time>
<desc>lat.=44.550072, lon.=34.290718, Alt.=94.241272m. Speed=4.176000m/h.</desc>
<speed>1.160000</speed>
</trkpt>
<trkpt lat="44.550049" lon="34.290714">
<ele>93.409241</ele>
<time>2011-10-12T15:12:07Z</time>
<desc>lat.=44.550049, lon.=34.290714, Alt.=93.409241m. Speed=3.816000m/h.</desc>
<speed>1.060000</speed>
</trkpt>
<trkpt lat="44.549953" lon="34.290627">
<ele>93.499084</ele>
<time>2011-10-12T15:12:12Z</time>
<desc>lat.=44.549953, lon.=34.290627, Alt.=93.499084m. Speed=11.196000m/h.</desc>
<speed>3.110000</speed>
</trkpt>
<trkpt lat="44.549870" lon="34.290539">
<ele>94.044006</ele>
<time>2011-10-12T15:12:17Z</time>
<desc>lat.=44.549870, lon.=34.290539, Alt.=94.044006m. Speed=10.368000m/h.</desc>
<speed>2.880000</speed>
</trkpt>
<trkpt lat="44.549755" lon="34.290436">
<ele>93.440491</ele>
<time>2011-10-12T15:12:22Z</time>
<desc>lat.=44.549755, lon.=34.290436, Alt.=93.440491m. Speed=12.528000m/h.</desc>
<speed>3.480000</speed>
</trkpt>
<trkpt lat="44.549614" lon="34.290283">
<ele>92.290100</ele>
<time>2011-10-12T15:12:27Z</time>
<desc>lat.=44.549614, lon.=34.290283, Alt.=92.290100m. Speed=16.452000m/h.</desc>
<speed>4.570000</speed>
</trkpt>
<trkpt lat="44.549442" lon="34.290123">
<ele>90.745178</ele>
<time>2011-10-12T15:12:32Z</time>
<desc>lat.=44.549442, lon.=34.290123, Alt.=90.745178m. Speed=16.308001m/h.</desc>
<speed>4.530000</speed>
</trkpt>
<trkpt lat="44.549236" lon="34.289948">
<ele>88.276428</ele>
<time>2011-10-12T15:12:37Z</time>
<desc>lat.=44.549236, lon.=34.289948, Alt.=88.276428m. Speed=22.068001m/h.</desc>
<speed>6.130000</speed>
</trkpt>
<trkpt lat="44.548965" lon="34.289715">
<ele>87.377991</ele>
<time>2011-10-12T15:12:42Z</time>
<desc>lat.=44.548965, lon.=34.289715, Alt.=87.377991m. Speed=24.587999m/h.</desc>
<speed>6.830000</speed>
</trkpt>
<trkpt lat="44.548801" lon="34.289509">
<ele>84.965881</ele>
<time>2011-10-12T15:12:47Z</time>
<desc>lat.=44.548801, lon.=34.289509, Alt.=84.965881m. Speed=14.544000m/h.</desc>
<speed>4.040000</speed>
</trkpt>
<trkpt lat="44.548740" lon="34.289349">
<ele>81.795959</ele>
<time>2011-10-12T15:12:52Z</time>
<desc>lat.=44.548740, lon.=34.289349, Alt.=81.795959m. Speed=9.612000m/h.</desc>
<speed>2.670000</speed>
</trkpt>
<trkpt lat="44.548790" lon="34.289135">
<ele>80.444397</ele>
<time>2011-10-12T15:12:57Z</time>
<desc>lat.=44.548790, lon.=34.289135, Alt.=80.444397m. Speed=16.452000m/h.</desc>
<speed>4.570000</speed>
</trkpt>
<trkpt lat="44.548889" lon="34.288853">
<ele>78.645569</ele>
<time>2011-10-12T15:13:02Z</time>
<desc>lat.=44.548889, lon.=34.288853, Alt.=78.645569m. Speed=19.368000m/h.</desc>
<speed>5.380000</speed>
</trkpt>
<trkpt lat="44.548973" lon="34.288574">
<ele>77.081116</ele>
<time>2011-10-12T15:13:07Z</time>
<desc>lat.=44.548973, lon.=34.288574, Alt.=77.081116m. Speed=16.056000m/h.</desc>
<speed>4.460000</speed>
</trkpt>
<trkpt lat="44.549026" lon="34.288345">
<ele>76.422913</ele>
<time>2011-10-12T15:13:12Z</time>
<desc>lat.=44.549026, lon.=34.288345, Alt.=76.422913m. Speed=12.132000m/h.</desc>
<speed>3.370000</speed>
</trkpt>
<trkpt lat="44.549053" lon="34.288193">
<ele>75.274475</ele>
<time>2011-10-12T15:13:17Z</time>
<desc>lat.=44.549053, lon.=34.288193, Alt.=75.274475m. Speed=10.044000m/h.</desc>
<speed>2.790000</speed>
</trkpt>
<trkpt lat="44.549049" lon="34.288025">
<ele>75.219788</ele>
<time>2011-10-12T15:13:22Z</time>
<desc>lat.=44.549049, lon.=34.288025, Alt.=75.219788m. Speed=8.208000m/h.</desc>
<speed>2.280000</speed>
</trkpt>
<trkpt lat="44.549007" lon="34.287926">
<ele>74.997131</ele>
<time>2011-10-12T15:13:27Z</time>
<desc>lat.=44.549007, lon.=34.287926, Alt.=74.997131m. Speed=0.756000m/h.</desc>
<speed>0.210000</speed>
</trkpt>
<trkpt lat="44.549007" lon="34.287907">
<ele>75.251038</ele>
<time>2011-10-12T15:13:32Z</time>
<desc>lat.=44.549007, lon.=34.287907, Alt.=75.251038m. Speed=0.036000m/h.</desc>
<speed>0.010000</speed>
</trkpt>
<trkpt lat="44.549007" lon="34.287907">
<ele>75.387756</ele>
<time>2011-10-12T15:13:37Z</time>
<desc>lat.=44.549007, lon.=34.287907, Alt.=75.387756m. Speed=0.072000m/h.</desc>
<speed>0.020000</speed>
</trkpt>
<trkpt lat="44.549004" lon="34.287907">
<ele>75.391663</ele>
<time>2011-10-12T15:13:42Z</time>
<desc>lat.=44.549004, lon.=34.287907, Alt.=75.391663m. Speed=0.180000m/h.</desc>
<speed>0.050000</speed>
</trkpt>
<trkpt lat="44.549007" lon="34.287907">
<ele>75.331116</ele>
<time>2011-10-12T15:13:47Z</time>
<desc>lat.=44.549007, lon.=34.287907, Alt.=75.331116m. Speed=0.072000m/h.</desc>
<speed>0.020000</speed>
</trkpt>
<trkpt lat="44.549007" lon="34.287907">
<ele>75.422913</ele>
<time>2011-10-12T15:13:52Z</time>
<desc>lat.=44.549007, lon.=34.287907, Alt.=75.422913m. Speed=0.036000m/h.</desc>
<speed>0.010000</speed>
</trkpt>
<trkpt lat="44.549007" lon="34.287907">
<ele>75.450256</ele>
<time>2011-10-12T15:13:57Z</time>
<desc>lat.=44.549007, lon.=34.287907, Alt.=75.450256m. Speed=0.576000m/h.</desc>
<speed>0.160000</speed>
</trkpt>
<trkpt lat="44.549011" lon="34.287910">
<ele>75.438538</ele>
<time>2011-10-12T15:14:02Z</time>
<desc>lat.=44.549011, lon.=34.287910, Alt.=75.438538m. Speed=1.116000m/h.</desc>
<speed>0.310000</speed>
</trkpt>
<trkpt lat="44.548969" lon="34.287933">
<ele>75.256897</ele>
<time>2011-10-12T15:14:07Z</time>
<desc>lat.=44.548969, lon.=34.287933, Alt.=75.256897m. Speed=5.220000m/h.</desc>
<speed>1.450000</speed>
</trkpt>
<trkpt lat="44.548874" lon="34.287964">
<ele>74.583069</ele>
<time>2011-10-12T15:14:12Z</time>
<desc>lat.=44.548874, lon.=34.287964, Alt.=74.583069m. Speed=7.164000m/h.</desc>
<speed>1.990000</speed>
</trkpt>
<trkpt lat="44.548752" lon="34.288109">
<ele>73.120178</ele>
<time>2011-10-12T15:14:17Z</time>
<desc>lat.=44.548752, lon.=34.288109, Alt.=73.120178m. Speed=12.492000m/h.</desc>
<speed>3.470000</speed>
</trkpt>
<trkpt lat="44.548733" lon="34.288300">
<ele>70.667053</ele>
<time>2011-10-12T15:14:22Z</time>
<desc>lat.=44.548733, lon.=34.288300, Alt.=70.667053m. Speed=10.044000m/h.</desc>
<speed>2.790000</speed>
</trkpt>
<trkpt lat="44.548698" lon="34.288479">
<ele>69.805725</ele>
<time>2011-10-12T15:14:27Z</time>
<desc>lat.=44.548698, lon.=34.288479, Alt.=69.805725m. Speed=9.216000m/h.</desc>
<speed>2.560000</speed>
</trkpt>
<trkpt lat="44.548630" lon="34.288544">
<ele>68.633850</ele>
<time>2011-10-12T15:14:32Z</time>
<desc>lat.=44.548630, lon.=34.288544, Alt.=68.633850m. Speed=11.160000m/h.</desc>
<speed>3.100000</speed>
</trkpt>
<trkpt lat="44.548561" lon="34.288422">
<ele>66.606506</ele>
<time>2011-10-12T15:14:37Z</time>
<desc>lat.=44.548561, lon.=34.288422, Alt.=66.606506m. Speed=8.712000m/h.</desc>
<speed>2.420000</speed>
</trkpt>
<trkpt lat="44.548542" lon="34.288288">
<ele>65.161194</ele>
<time>2011-10-12T15:14:42Z</time>
<desc>lat.=44.548542, lon.=34.288288, Alt.=65.161194m. Speed=8.712000m/h.</desc>
<speed>2.420000</speed>
</trkpt>
<trkpt lat="44.548462" lon="34.288029">
<ele>63.151886</ele>
<time>2011-10-12T15:14:47Z</time>
<desc>lat.=44.548462, lon.=34.288029, Alt.=63.151886m. Speed=16.271999m/h.</desc>
<speed>4.520000</speed>
</trkpt>
<trkpt lat="44.548317" lon="34.287903">
<ele>60.536652</ele>
<time>2011-10-12T15:14:52Z</time>
<desc>lat.=44.548317, lon.=34.287903, Alt.=60.536652m. Speed=9.828000m/h.</desc>
<speed>2.730000</speed>
</trkpt>
<trkpt lat="44.548176" lon="34.287949">
<ele>59.488800</ele>
<time>2011-10-12T15:14:57Z</time>
<desc>lat.=44.548176, lon.=34.287949, Alt.=59.488800m. Speed=9.108000m/h.</desc>
<speed>2.530000</speed>
</trkpt>
<trkpt lat="44.548050" lon="34.288029">
<ele>58.719269</ele>
<time>2011-10-12T15:15:02Z</time>
<desc>lat.=44.548050, lon.=34.288029, Alt.=58.719269m. Speed=7.740000m/h.</desc>
<speed>2.150000</speed>
</trkpt>
<trkpt lat="44.547962" lon="34.288147">
<ele>58.283722</ele>
<time>2011-10-12T15:15:07Z</time>
<desc>lat.=44.547962, lon.=34.288147, Alt.=58.283722m. Speed=9.468000m/h.</desc>
<speed>2.630000</speed>
</trkpt>
<trkpt lat="44.547947" lon="34.288300">
<ele>56.679230</ele>
<time>2011-10-12T15:15:12Z</time>
<desc>lat.=44.547947, lon.=34.288300, Alt.=56.679230m. Speed=9.684000m/h.</desc>
<speed>2.690000</speed>
</trkpt>
<trkpt lat="44.547894" lon="34.288570">
<ele>54.821808</ele>
<time>2011-10-12T15:15:17Z</time>
<desc>lat.=44.547894, lon.=34.288570, Alt.=54.821808m. Speed=17.136000m/h.</desc>
<speed>4.760000</speed>
</trkpt>
<trkpt lat="44.547798" lon="34.288757">
<ele>53.890167</ele>
<time>2011-10-12T15:15:22Z</time>
<desc>lat.=44.547798, lon.=34.288757, Alt.=53.890167m. Speed=10.188000m/h.</desc>
<speed>2.830000</speed>
</trkpt>
<trkpt lat="44.547710" lon="34.288822">
<ele>55.080597</ele>
<time>2011-10-12T15:15:27Z</time>
<desc>lat.=44.547710, lon.=34.288822, Alt.=55.080597m. Speed=1.332000m/h.</desc>
<speed>0.370000</speed>
</trkpt>
<trkpt lat="44.547710" lon="34.288830">
<ele>55.662628</ele>
<time>2011-10-12T15:15:32Z</time>
<desc>lat.=44.547710, lon.=34.288830, Alt.=55.662628m. Speed=0.252000m/h.</desc>
<speed>0.070000</speed>
</trkpt>
<trkpt lat="44.547710" lon="34.288834">
<ele>55.689972</ele>
<time>2011-10-12T15:15:37Z</time>
<desc>lat.=44.547710, lon.=34.288834, Alt.=55.689972m. Speed=0.360000m/h.</desc>
<speed>0.100000</speed>
</trkpt>
<trkpt lat="44.547714" lon="34.288834">
<ele>55.715363</ele>
<time>2011-10-12T15:15:42Z</time>
<desc>lat.=44.547714, lon.=34.288834, Alt.=55.715363m. Speed=0.288000m/h.</desc>
<speed>0.080000</speed>
</trkpt>
<trkpt lat="44.547714" lon="34.288841">
<ele>55.738800</ele>
<time>2011-10-12T15:15:47Z</time>
<desc>lat.=44.547714, lon.=34.288841, Alt.=55.738800m. Speed=0.324000m/h.</desc>
<speed>0.090000</speed>
</trkpt>
<trkpt lat="44.547710" lon="34.288845">
<ele>55.772003</ele>
<time>2011-10-12T15:15:52Z</time>
<desc>lat.=44.547710, lon.=34.288845, Alt.=55.772003m. Speed=0.288000m/h.</desc>
<speed>0.080000</speed>
</trkpt>
<trkpt lat="44.547710" lon="34.288853">
<ele>55.806183</ele>
<time>2011-10-12T15:15:57Z</time>
<desc>lat.=44.547710, lon.=34.288853, Alt.=55.806183m. Speed=1.116000m/h.</desc>
<speed>0.310000</speed>
</trkpt>
<trkpt lat="44.547707" lon="34.288868">
<ele>55.884308</ele>
<time>2011-10-12T15:16:02Z</time>
<desc>lat.=44.547707, lon.=34.288868, Alt.=55.884308m. Speed=0.612000m/h.</desc>
<speed>0.170000</speed>
</trkpt>
<trkpt lat="44.547699" lon="34.288879">
<ele>55.938019</ele>
<time>2011-10-12T15:16:07Z</time>
<desc>lat.=44.547699, lon.=34.288879, Alt.=55.938019m. Speed=2.340000m/h.</desc>
<speed>0.650000</speed>
</trkpt>
<trkpt lat="44.547592" lon="34.288788">
<ele>56.373566</ele>
<time>2011-10-12T15:16:12Z</time>
<desc>lat.=44.547592, lon.=34.288788, Alt.=56.373566m. Speed=18.180000m/h.</desc>
<speed>5.050000</speed>
</trkpt>
<trkpt lat="44.547424" lon="34.288456">
<ele>53.545441</ele>
<time>2011-10-12T15:16:17Z</time>
<desc>lat.=44.547424, lon.=34.288456, Alt.=53.545441m. Speed=25.271999m/h.</desc>
<speed>7.020000</speed>
</trkpt>
<trkpt lat="44.547226" lon="34.288052">
<ele>49.482941</ele>
<time>2011-10-12T15:16:22Z</time>
<desc>lat.=44.547226, lon.=34.288052, Alt.=49.482941m. Speed=30.384001m/h.</desc>
<speed>8.440000</speed>
</trkpt>
<trkpt lat="44.547028" lon="34.287594">
<ele>44.290558</ele>
<time>2011-10-12T15:16:27Z</time>
<desc>lat.=44.547028, lon.=34.287594, Alt.=44.290558m. Speed=29.628000m/h.</desc>
<speed>8.230000</speed>
</trkpt>
<trkpt lat="44.546856" lon="34.287109">
<ele>38.377472</ele>
<time>2011-10-12T15:16:32Z</time>
<desc>lat.=44.546856, lon.=34.287109, Alt.=38.377472m. Speed=30.636000m/h.</desc>
<speed>8.510000</speed>
</trkpt>
<trkpt lat="44.546673" lon="34.286560">
<ele>33.716339</ele>
<time>2011-10-12T15:16:37Z</time>
<desc>lat.=44.546673, lon.=34.286560, Alt.=33.716339m. Speed=33.299999m/h.</desc>
<speed>9.250000</speed>
</trkpt>
<trkpt lat="44.546585" lon="34.286133">
<ele>30.487076</ele>
<time>2011-10-12T15:16:42Z</time>
<desc>lat.=44.546585, lon.=34.286133, Alt.=30.487076m. Speed=21.240000m/h.</desc>
<speed>5.900000</speed>
</trkpt>
<trkpt lat="44.546677" lon="34.285797">
<ele>25.605728</ele>
<time>2011-10-12T15:16:47Z</time>
<desc>lat.=44.546677, lon.=34.285797, Alt.=25.605728m. Speed=24.948000m/h.</desc>
<speed>6.930000</speed>
</trkpt>
<trkpt lat="44.546619" lon="34.285366">
<ele>22.139420</ele>
<time>2011-10-12T15:16:52Z</time>
<desc>lat.=44.546619, lon.=34.285366, Alt.=22.139420m. Speed=20.916000m/h.</desc>
<speed>5.810000</speed>
</trkpt>
<trkpt lat="44.546391" lon="34.285156">
<ele>20.672134</ele>
<time>2011-10-12T15:16:57Z</time>
<desc>lat.=44.546391, lon.=34.285156, Alt.=20.672134m. Speed=18.431999m/h.</desc>
<speed>5.120000</speed>
</trkpt>
<trkpt lat="44.546146" lon="34.285126">
<ele>19.422134</ele>
<time>2011-10-12T15:17:02Z</time>
<desc>lat.=44.546146, lon.=34.285126, Alt.=19.422134m. Speed=20.160000m/h.</desc>
<speed>5.600000</speed>
</trkpt>
<trkpt lat="44.545937" lon="34.285049">
<ele>18.252213</ele>
<time>2011-10-12T15:17:07Z</time>
<desc>lat.=44.545937, lon.=34.285049, Alt.=18.252213m. Speed=14.076000m/h.</desc>
<speed>3.910000</speed>
</trkpt>
<trkpt lat="44.545738" lon="34.285000">
<ele>17.584244</ele>
<time>2011-10-12T15:17:12Z</time>
<desc>lat.=44.545738, lon.=34.285000, Alt.=17.584244m. Speed=14.508000m/h.</desc>
<speed>4.030000</speed>
</trkpt>
<trkpt lat="44.545490" lon="34.284901">
<ele>15.882698</ele>
<time>2011-10-12T15:17:17Z</time>
<desc>lat.=44.545490, lon.=34.284901, Alt.=15.882698m. Speed=17.784000m/h.</desc>
<speed>4.940000</speed>
</trkpt>
<trkpt lat="44.545227" lon="34.284859">
<ele>16.075455</ele>
<time>2011-10-12T15:17:22Z</time>
<desc>lat.=44.545227, lon.=34.284859, Alt.=16.075455m. Speed=18.612000m/h.</desc>
<speed>5.170000</speed>
</trkpt>
<trkpt lat="44.545021" lon="34.284744">
<ele>17.209244</ele>
<time>2011-10-12T15:17:27Z</time>
<desc>lat.=44.545021, lon.=34.284744, Alt.=17.209244m. Speed=14.472000m/h.</desc>
<speed>4.020000</speed>
</trkpt>
<trkpt lat="44.544868" lon="34.284599">
<ele>17.072525</ele>
<time>2011-10-12T15:17:32Z</time>
<desc>lat.=44.544868, lon.=34.284599, Alt.=17.072525m. Speed=13.500000m/h.</desc>
<speed>3.750000</speed>
</trkpt>
<trkpt lat="44.544727" lon="34.284386">
<ele>23.234146</ele>
<time>2011-10-12T15:17:37Z</time>
<desc>lat.=44.544727, lon.=34.284386, Alt.=23.234146m. Speed=17.496000m/h.</desc>
<speed>4.860000</speed>
</trkpt>
<trkpt lat="44.544613" lon="34.284145">
<ele>25.495865</ele>
<time>2011-10-12T15:17:42Z</time>
<desc>lat.=44.544613, lon.=34.284145, Alt.=25.495865m. Speed=15.984000m/h.</desc>
<speed>4.440000</speed>
</trkpt>
<trkpt lat="44.544453" lon="34.283909">
<ele>23.746841</ele>
<time>2011-10-12T15:17:47Z</time>
<desc>lat.=44.544453, lon.=34.283909, Alt.=23.746841m. Speed=16.920000m/h.</desc>
<speed>4.700000</speed>
</trkpt>
<trkpt lat="44.544296" lon="34.283672">
<ele>20.425064</ele>
<time>2011-10-12T15:17:52Z</time>
<desc>lat.=44.544296, lon.=34.283672, Alt.=20.425064m. Speed=21.600000m/h.</desc>
<speed>6.000000</speed>
</trkpt>
<trkpt lat="44.544144" lon="34.283390">
<ele>17.317154</ele>
<time>2011-10-12T15:17:57Z</time>
<desc>lat.=44.544144, lon.=34.283390, Alt.=17.317154m. Speed=21.816000m/h.</desc>
<speed>6.060000</speed>
</trkpt>
<trkpt lat="44.543976" lon="34.283081">
<ele>15.042366</ele>
<time>2011-10-12T15:18:02Z</time>
<desc>lat.=44.543976, lon.=34.283081, Alt.=15.042366m. Speed=19.656000m/h.</desc>
<speed>5.460000</speed>
</trkpt>
<trkpt lat="44.543861" lon="34.282944">
<ele>12.958138</ele>
<time>2011-10-12T15:18:07Z</time>
<desc>lat.=44.543861, lon.=34.282944, Alt.=12.958138m. Speed=9.036000m/h.</desc>
<speed>2.510000</speed>
</trkpt>
<trkpt lat="44.543716" lon="34.282780">
<ele>10.713997</ele>
<time>2011-10-12T15:18:12Z</time>
<desc>lat.=44.543716, lon.=34.282780, Alt.=10.713997m. Speed=15.876000m/h.</desc>
<speed>4.410000</speed>
</trkpt>
<trkpt lat="44.543587" lon="34.282600">
<ele>8.852425</ele>
<time>2011-10-12T15:18:17Z</time>
<desc>lat.=44.543587, lon.=34.282600, Alt.=8.852425m. Speed=13.320000m/h.</desc>
<speed>3.700000</speed>
</trkpt>
<trkpt lat="44.543488" lon="34.282520">
<ele>6.521061</ele>
<time>2011-10-12T15:18:22Z</time>
<desc>lat.=44.543488, lon.=34.282520, Alt.=6.521061m. Speed=3.096000m/h.</desc>
<speed>0.860000</speed>
</trkpt>
<trkpt lat="44.543400" lon="34.282475">
<ele>5.865421</ele>
<time>2011-10-12T15:18:27Z</time>
<desc>lat.=44.543400, lon.=34.282475, Alt.=5.865421m. Speed=7.560000m/h.</desc>
<speed>2.100000</speed>
</trkpt>
<trkpt lat="44.543312" lon="34.282398">
<ele>5.611515</ele>
<time>2011-10-12T15:18:32Z</time>
<desc>lat.=44.543312, lon.=34.282398, Alt.=5.611515m. Speed=7.956000m/h.</desc>
<speed>2.210000</speed>
</trkpt>
<trkpt lat="44.543240" lon="34.282272">
<ele>6.672916</ele>
<time>2011-10-12T15:18:37Z</time>
<desc>lat.=44.543240, lon.=34.282272, Alt.=6.672916m. Speed=9.864000m/h.</desc>
<speed>2.740000</speed>
</trkpt>
<trkpt lat="44.543167" lon="34.282143">
<ele>6.302921</ele>
<time>2011-10-12T15:18:42Z</time>
<desc>lat.=44.543167, lon.=34.282143, Alt.=6.302921m. Speed=8.532000m/h.</desc>
<speed>2.370000</speed>
</trkpt>
<trkpt lat="44.543182" lon="34.281994">
<ele>5.909611</ele>
<time>2011-10-12T15:18:47Z</time>
<desc>lat.=44.543182, lon.=34.281994, Alt.=5.909611m. Speed=8.388000m/h.</desc>
<speed>2.330000</speed>
</trkpt>
<trkpt lat="44.543198" lon="34.281853">
<ele>5.099552</ele>
<time>2011-10-12T15:18:52Z</time>
<desc>lat.=44.543198, lon.=34.281853, Alt.=5.099552m. Speed=7.632000m/h.</desc>
<speed>2.120000</speed>
</trkpt>
<trkpt lat="44.543179" lon="34.281677">
<ele>4.184147</ele>
<time>2011-10-12T15:18:57Z</time>
<desc>lat.=44.543179, lon.=34.281677, Alt.=4.184147m. Speed=10.188000m/h.</desc>
<speed>2.830000</speed>
</trkpt>
<trkpt lat="44.543198" lon="34.281494">
<ele>4.251286</ele>
<time>2011-10-12T15:19:02Z</time>
<desc>lat.=44.543198, lon.=34.281494, Alt.=4.251286m. Speed=11.448000m/h.</desc>
<speed>3.180000</speed>
</trkpt>
<trkpt lat="44.543186" lon="34.281254">
<ele>4.495182</ele>
<time>2011-10-12T15:19:07Z</time>
<desc>lat.=44.543186, lon.=34.281254, Alt.=4.495182m. Speed=9.432000m/h.</desc>
<speed>2.620000</speed>
</trkpt>
<trkpt lat="44.543186" lon="34.281075">
<ele>3.821566</ele>
<time>2011-10-12T15:19:12Z</time>
<desc>lat.=44.543186, lon.=34.281075, Alt.=3.821566m. Speed=9.288000m/h.</desc>
<speed>2.580000</speed>
</trkpt>
<trkpt lat="44.543259" lon="34.280849">
<ele>3.745028</ele>
<time>2011-10-12T15:19:17Z</time>
<desc>lat.=44.543259, lon.=34.280849, Alt.=3.745028m. Speed=11.484000m/h.</desc>
<speed>3.190000</speed>
</trkpt>
<trkpt lat="44.543228" lon="34.280602">
<ele>4.721134</ele>
<time>2011-10-12T15:19:22Z</time>
<desc>lat.=44.543228, lon.=34.280602, Alt.=4.721134m. Speed=12.024000m/h.</desc>
<speed>3.340000</speed>
</trkpt>
<trkpt lat="44.543175" lon="34.280323">
<ele>4.919498</ele>
<time>2011-10-12T15:19:27Z</time>
<desc>lat.=44.543175, lon.=34.280323, Alt.=4.919498m. Speed=9.720000m/h.</desc>
<speed>2.700000</speed>
</trkpt>
<trkpt lat="44.543156" lon="34.280117">
<ele>7.465275</ele>
<time>2011-10-12T15:19:32Z</time>
<desc>lat.=44.543156, lon.=34.280117, Alt.=7.465275m. Speed=11.124000m/h.</desc>
<speed>3.090000</speed>
</trkpt>
<trkpt lat="44.543163" lon="34.279903">
<ele>9.359505</ele>
<time>2011-10-12T15:19:37Z</time>
<desc>lat.=44.543163, lon.=34.279903, Alt.=9.359505m. Speed=10.584000m/h.</desc>
<speed>2.940000</speed>
</trkpt>
<trkpt lat="44.543133" lon="34.279739">
<ele>9.264046</ele>
<time>2011-10-12T15:19:42Z</time>
<desc>lat.=44.543133, lon.=34.279739, Alt.=9.264046m. Speed=4.068000m/h.</desc>
<speed>1.130000</speed>
</trkpt>
<trkpt lat="44.543114" lon="34.279655">
<ele>8.951790</ele>
<time>2011-10-12T15:19:47Z</time>
<desc>lat.=44.543114, lon.=34.279655, Alt.=8.951790m. Speed=2.520000m/h.</desc>
<speed>0.700000</speed>
</trkpt>
<trkpt lat="44.543114" lon="34.279633">
<ele>8.457405</ele>
<time>2011-10-12T15:19:52Z</time>
<desc>lat.=44.543114, lon.=34.279633, Alt.=8.457405m. Speed=1.512000m/h.</desc>
<speed>0.420000</speed>
</trkpt>
<trkpt lat="44.543079" lon="34.279537">
<ele>8.669807</ele>
<time>2011-10-12T15:19:57Z</time>
<desc>lat.=44.543079, lon.=34.279537, Alt.=8.669807m. Speed=8.028000m/h.</desc>
<speed>2.230000</speed>
</trkpt>
<trkpt lat="44.542992" lon="34.279438">
<ele>7.940861</ele>
<time>2011-10-12T15:20:02Z</time>
<desc>lat.=44.542992, lon.=34.279438, Alt.=7.940861m. Speed=7.920000m/h.</desc>
<speed>2.200000</speed>
</trkpt>
<trkpt lat="44.542915" lon="34.279354">
<ele>10.750130</ele>
<time>2011-10-12T15:20:07Z</time>
<desc>lat.=44.542915, lon.=34.279354, Alt.=10.750130m. Speed=6.372000m/h.</desc>
<speed>1.770000</speed>
</trkpt>
<trkpt lat="44.542858" lon="34.279266">
<ele>10.715462</ele>
<time>2011-10-12T15:20:12Z</time>
<desc>lat.=44.542858, lon.=34.279266, Alt.=10.715462m. Speed=5.976000m/h.</desc>
<speed>1.660000</speed>
</trkpt>
<trkpt lat="44.542809" lon="34.279198">
<ele>9.992561</ele>
<time>2011-10-12T15:20:17Z</time>
<desc>lat.=44.542809, lon.=34.279198, Alt.=9.992561m. Speed=6.336000m/h.</desc>
<speed>1.760000</speed>
</trkpt>
<trkpt lat="44.542789" lon="34.279083">
<ele>8.298958</ele>
<time>2011-10-12T15:20:22Z</time>
<desc>lat.=44.542789, lon.=34.279083, Alt.=8.298958m. Speed=4.788000m/h.</desc>
<speed>1.330000</speed>
</trkpt>
<trkpt lat="44.542679" lon="34.279087">
<ele>8.424934</ele>
<time>2011-10-12T15:20:27Z</time>
<desc>lat.=44.542679, lon.=34.279087, Alt.=8.424934m. Speed=9.036000m/h.</desc>
<speed>2.510000</speed>
</trkpt>
<trkpt lat="44.542610" lon="34.279251">
<ele>8.503304</ele>
<time>2011-10-12T15:20:32Z</time>
<desc>lat.=44.542610, lon.=34.279251, Alt.=8.503304m. Speed=14.472000m/h.</desc>
<speed>4.020000</speed>
</trkpt>
<trkpt lat="44.542572" lon="34.279411">
<ele>6.598087</ele>
<time>2011-10-12T15:20:37Z</time>
<desc>lat.=44.542572, lon.=34.279411, Alt.=6.598087m. Speed=2.808000m/h.</desc>
<speed>0.780000</speed>
</trkpt>
<trkpt lat="44.542511" lon="34.279442">
<ele>4.876408</ele>
<time>2011-10-12T15:20:42Z</time>
<desc>lat.=44.542511, lon.=34.279442, Alt.=4.876408m. Speed=7.236000m/h.</desc>
<speed>2.010000</speed>
</trkpt>
<trkpt lat="44.542431" lon="34.279339">
<ele>2.941378</ele>
<time>2011-10-12T15:20:47Z</time>
<desc>lat.=44.542431, lon.=34.279339, Alt.=2.941378m. Speed=9.504000m/h.</desc>
<speed>2.640000</speed>
</trkpt>
<trkpt lat="44.542336" lon="34.279224">
<ele>1.085099</ele>
<time>2011-10-12T15:20:52Z</time>
<desc>lat.=44.542336, lon.=34.279224, Alt.=1.085099m. Speed=6.084000m/h.</desc>
<speed>1.690000</speed>
</trkpt>
<trkpt lat="44.542301" lon="34.279167">
<ele>-1.132340</ele>
<time>2011-10-12T15:20:57Z</time>
<desc>lat.=44.542301, lon.=34.279167, Alt.=-1.132340m. Speed=4.068000m/h.</desc>
<speed>1.130000</speed>
</trkpt>
<trkpt lat="44.542233" lon="34.279057">
<ele>-3.433016</ele>
<time>2011-10-12T15:21:02Z</time>
<desc>lat.=44.542233, lon.=34.279057, Alt.=-3.433016m. Speed=7.596000m/h.</desc>
<speed>2.110000</speed>
</trkpt>
<trkpt lat="44.542149" lon="34.278908">
<ele>-5.190983</ele>
<time>2011-10-12T15:21:07Z</time>
<desc>lat.=44.542149, lon.=34.278908, Alt.=-5.190983m. Speed=11.736000m/h.</desc>
<speed>3.260000</speed>
</trkpt>
<trkpt lat="44.542038" lon="34.278721">
<ele>-6.106266</ele>
<time>2011-10-12T15:21:12Z</time>
<desc>lat.=44.542038, lon.=34.278721, Alt.=-6.106266m. Speed=12.096000m/h.</desc>
<speed>3.360000</speed>
</trkpt>
<trkpt lat="44.541912" lon="34.278576">
<ele>-7.564396</ele>
<time>2011-10-12T15:21:17Z</time>
<desc>lat.=44.541912, lon.=34.278576, Alt.=-7.564396m. Speed=12.168000m/h.</desc>
<speed>3.380000</speed>
</trkpt>
<trkpt lat="44.541759" lon="34.278358">
<ele>-9.421272</ele>
<time>2011-10-12T15:21:22Z</time>
<desc>lat.=44.541759, lon.=34.278358, Alt.=-9.421272m. Speed=18.396000m/h.</desc>
<speed>5.110000</speed>
</trkpt>
<trkpt lat="44.541611" lon="34.278149">
<ele>-11.190071</ele>
<time>2011-10-12T15:21:27Z</time>
<desc>lat.=44.541611, lon.=34.278149, Alt.=-11.190071m. Speed=16.308001m/h.</desc>
<speed>4.530000</speed>
</trkpt>
<trkpt lat="44.541492" lon="34.277931">
<ele>-11.230354</ele>
<time>2011-10-12T15:21:32Z</time>
<desc>lat.=44.541492, lon.=34.277931, Alt.=-11.230354m. Speed=13.968000m/h.</desc>
<speed>3.880000</speed>
</trkpt>
<trkpt lat="44.541435" lon="34.277832">
<ele>-10.475716</ele>
<time>2011-10-12T15:21:37Z</time>
<desc>lat.=44.541435, lon.=34.277832, Alt.=-10.475716m. Speed=5.976000m/h.</desc>
<speed>1.660000</speed>
</trkpt>
<trkpt lat="44.541389" lon="34.277710">
<ele>-7.842594</ele>
<time>2011-10-12T15:21:42Z</time>
<desc>lat.=44.541389, lon.=34.277710, Alt.=-7.842594m. Speed=13.212000m/h.</desc>
<speed>3.670000</speed>
</trkpt>
<trkpt lat="44.541302" lon="34.277527">
<ele>-9.063362</ele>
<time>2011-10-12T15:21:47Z</time>
<desc>lat.=44.541302, lon.=34.277527, Alt.=-9.063362m. Speed=12.600000m/h.</desc>
<speed>3.500000</speed>
</trkpt>
<trkpt lat="44.541183" lon="34.277382">
<ele>-11.728889</ele>
<time>2011-10-12T15:21:52Z</time>
<desc>lat.=44.541183, lon.=34.277382, Alt.=-11.728889m. Speed=14.976000m/h.</desc>
<speed>4.160000</speed>
</trkpt>
<trkpt lat="44.541065" lon="34.277172">
<ele>-13.584602</ele>
<time>2011-10-12T15:21:57Z</time>
<desc>lat.=44.541065, lon.=34.277172, Alt.=-13.584602m. Speed=14.796000m/h.</desc>
<speed>4.110000</speed>
</trkpt>
<trkpt lat="44.540970" lon="34.276974">
<ele>-15.884163</ele>
<time>2011-10-12T15:22:02Z</time>
<desc>lat.=44.540970, lon.=34.276974, Alt.=-15.884163m. Speed=12.492000m/h.</desc>
<speed>3.470000</speed>
</trkpt>
<trkpt lat="44.540897" lon="34.276817">
<ele>-17.531021</ele>
<time>2011-10-12T15:22:07Z</time>
<desc>lat.=44.540897, lon.=34.276817, Alt.=-17.531021m. Speed=6.336000m/h.</desc>
<speed>1.760000</speed>
</trkpt>
<trkpt lat="44.540791" lon="34.276695">
<ele>-15.105354</ele>
<time>2011-10-12T15:22:12Z</time>
<desc>lat.=44.540791, lon.=34.276695, Alt.=-15.105354m. Speed=11.556000m/h.</desc>
<speed>3.210000</speed>
</trkpt>
<trkpt lat="44.540642" lon="34.276535">
<ele>-14.558723</ele>
<time>2011-10-12T15:22:17Z</time>
<desc>lat.=44.540642, lon.=34.276535, Alt.=-14.558723m. Speed=14.436000m/h.</desc>
<speed>4.010000</speed>
</trkpt>
<trkpt lat="44.540504" lon="34.276386">
<ele>-12.780647</ele>
<time>2011-10-12T15:22:22Z</time>
<desc>lat.=44.540504, lon.=34.276386, Alt.=-12.780647m. Speed=11.772000m/h.</desc>
<speed>3.270000</speed>
</trkpt>
<trkpt lat="44.540386" lon="34.276249">
<ele>-10.757942</ele>
<time>2011-10-12T15:22:27Z</time>
<desc>lat.=44.540386, lon.=34.276249, Alt.=-10.757942m. Speed=14.472000m/h.</desc>
<speed>4.020000</speed>
</trkpt>
<trkpt lat="44.540264" lon="34.276081">
<ele>-9.786507</ele>
<time>2011-10-12T15:22:32Z</time>
<desc>lat.=44.540264, lon.=34.276081, Alt.=-9.786507m. Speed=13.320000m/h.</desc>
<speed>3.700000</speed>
</trkpt>
<trkpt lat="44.540134" lon="34.275928">
<ele>-8.022835</ele>
<time>2011-10-12T15:22:37Z</time>
<desc>lat.=44.540134, lon.=34.275928, Alt.=-8.022835m. Speed=14.292000m/h.</desc>
<speed>3.970000</speed>
</trkpt>
<trkpt lat="44.539982" lon="34.275795">
<ele>-7.482731</ele>
<time>2011-10-12T15:22:42Z</time>
<desc>lat.=44.539982, lon.=34.275795, Alt.=-7.482731m. Speed=13.104000m/h.</desc>
<speed>3.640000</speed>
</trkpt>
<trkpt lat="44.539845" lon="34.275688">
<ele>-7.006290</ele>
<time>2011-10-12T15:22:47Z</time>
<desc>lat.=44.539845, lon.=34.275688, Alt.=-7.006290m. Speed=12.960000m/h.</desc>
<speed>3.600000</speed>
</trkpt>
<trkpt lat="44.539692" lon="34.275574">
<ele>-5.755558</ele>
<time>2011-10-12T15:22:52Z</time>
<desc>lat.=44.539692, lon.=34.275574, Alt.=-5.755558m. Speed=13.068000m/h.</desc>
<speed>3.630000</speed>
</trkpt>
<trkpt lat="44.539536" lon="34.275494">
<ele>-5.925724</ele>
<time>2011-10-12T15:22:57Z</time>
<desc>lat.=44.539536, lon.=34.275494, Alt.=-5.925724m. Speed=12.492000m/h.</desc>
<speed>3.470000</speed>
</trkpt>
<trkpt lat="44.539356" lon="34.275387">
<ele>-6.242985</ele>
<time>2011-10-12T15:23:02Z</time>
<desc>lat.=44.539356, lon.=34.275387, Alt.=-6.242985m. Speed=15.012000m/h.</desc>
<speed>4.170000</speed>
</trkpt>
<trkpt lat="44.539165" lon="34.275311">
<ele>-7.706974</ele>
<time>2011-10-12T15:23:07Z</time>
<desc>lat.=44.539165, lon.=34.275311, Alt.=-7.706974m. Speed=15.228000m/h.</desc>
<speed>4.230000</speed>
</trkpt>
<trkpt lat="44.538975" lon="34.275211">
<ele>-8.808235</ele>
<time>2011-10-12T15:23:12Z</time>
<desc>lat.=44.538975, lon.=34.275211, Alt.=-8.808235m. Speed=14.940000m/h.</desc>
<speed>4.150000</speed>
</trkpt>
<trkpt lat="44.538795" lon="34.275127">
<ele>-7.249454</ele>
<time>2011-10-12T15:23:17Z</time>
<desc>lat.=44.538795, lon.=34.275127, Alt.=-7.249454m. Speed=16.884001m/h.</desc>
<speed>4.690000</speed>
</trkpt>
<trkpt lat="44.538612" lon="34.275021">
<ele>-7.697453</ele>
<time>2011-10-12T15:23:22Z</time>
<desc>lat.=44.538612, lon.=34.275021, Alt.=-7.697453m. Speed=15.624000m/h.</desc>
<speed>4.340000</speed>
</trkpt>
<trkpt lat="44.538437" lon="34.274937">
<ele>-8.857063</ele>
<time>2011-10-12T15:23:27Z</time>
<desc>lat.=44.538437, lon.=34.274937, Alt.=-8.857063m. Speed=14.724000m/h.</desc>
<speed>4.090000</speed>
</trkpt>
<trkpt lat="44.538254" lon="34.274845">
<ele>-8.273567</ele>
<time>2011-10-12T15:23:32Z</time>
<desc>lat.=44.538254, lon.=34.274845, Alt.=-8.273567m. Speed=14.004000m/h.</desc>
<speed>3.890000</speed>
</trkpt>
<trkpt lat="44.538086" lon="34.274784">
<ele>-7.536076</ele>
<time>2011-10-12T15:23:37Z</time>
<desc>lat.=44.538086, lon.=34.274784, Alt.=-7.536076m. Speed=12.276000m/h.</desc>
<speed>3.410000</speed>
</trkpt>
<trkpt lat="44.537926" lon="34.274734">
<ele>-6.955997</ele>
<time>2011-10-12T15:23:42Z</time>
<desc>lat.=44.537926, lon.=34.274734, Alt.=-6.955997m. Speed=13.464000m/h.</desc>
<speed>3.740000</speed>
</trkpt>
<trkpt lat="44.537754" lon="34.274673">
<ele>-7.102482</ele>
<time>2011-10-12T15:23:47Z</time>
<desc>lat.=44.537754, lon.=34.274673, Alt.=-7.102482m. Speed=13.104000m/h.</desc>
<speed>3.640000</speed>
</trkpt>
<trkpt lat="44.537609" lon="34.274616">
<ele>-8.893440</ele>
<time>2011-10-12T15:23:52Z</time>
<desc>lat.=44.537609, lon.=34.274616, Alt.=-8.893440m. Speed=11.016000m/h.</desc>
<speed>3.060000</speed>
</trkpt>
<trkpt lat="44.537449" lon="34.274521">
<ele>-11.547737</ele>
<time>2011-10-12T15:23:57Z</time>
<desc>lat.=44.537449, lon.=34.274521, Alt.=-11.547737m. Speed=13.716000m/h.</desc>
<speed>3.810000</speed>
</trkpt>
<trkpt lat="44.537296" lon="34.274452">
<ele>-13.856819</ele>
<time>2011-10-12T15:24:02Z</time>
<desc>lat.=44.537296, lon.=34.274452, Alt.=-13.856819m. Speed=13.068000m/h.</desc>
<speed>3.630000</speed>
</trkpt>
<trkpt lat="44.537155" lon="34.274376">
<ele>-15.483040</ele>
<time>2011-10-12T15:24:07Z</time>
<desc>lat.=44.537155, lon.=34.274376, Alt.=-15.483040m. Speed=12.132000m/h.</desc>
<speed>3.370000</speed>
</trkpt>
<trkpt lat="44.537006" lon="34.274334">
<ele>-13.716927</ele>
<time>2011-10-12T15:24:12Z</time>
<desc>lat.=44.537006, lon.=34.274334, Alt.=-13.716927m. Speed=10.116000m/h.</desc>
<speed>2.810000</speed>
</trkpt>
<trkpt lat="44.536926" lon="34.274223">
<ele>-13.247688</ele>
<time>2011-10-12T15:24:17Z</time>
<desc>lat.=44.536926, lon.=34.274223, Alt.=-13.247688m. Speed=7.668000m/h.</desc>
<speed>2.130000</speed>
</trkpt>
<trkpt lat="44.536907" lon="34.274139">
<ele>-11.697884</ele>
<time>2011-10-12T15:24:22Z</time>
<desc>lat.=44.536907, lon.=34.274139, Alt.=-11.697884m. Speed=5.796000m/h.</desc>
<speed>1.610000</speed>
</trkpt>
<trkpt lat="44.536915" lon="34.274059">
<ele>-8.813362</ele>
<time>2011-10-12T15:24:27Z</time>
<desc>lat.=44.536915, lon.=34.274059, Alt.=-8.813362m. Speed=7.344000m/h.</desc>
<speed>2.040000</speed>
</trkpt>
<trkpt lat="44.536919" lon="34.273933">
<ele>-8.840950</ele>
<time>2011-10-12T15:24:32Z</time>
<desc>lat.=44.536919, lon.=34.273933, Alt.=-8.840950m. Speed=7.488000m/h.</desc>
<speed>2.080000</speed>
</trkpt>
<trkpt lat="44.536922" lon="34.273827">
<ele>-8.620735</ele>
<time>2011-10-12T15:24:37Z</time>
<desc>lat.=44.536922, lon.=34.273827, Alt.=-8.620735m. Speed=4.536000m/h.</desc>
<speed>1.260000</speed>
</trkpt>
<trkpt lat="44.536949" lon="34.273823">
<ele>-8.390266</ele>
<time>2011-10-12T15:24:42Z</time>
<desc>lat.=44.536949, lon.=34.273823, Alt.=-8.390266m. Speed=1.368000m/h.</desc>
<speed>0.380000</speed>
</trkpt>
<trkpt lat="44.536964" lon="34.273811">
<ele>-8.271370</ele>
<time>2011-10-12T15:24:47Z</time>
<desc>lat.=44.536964, lon.=34.273811, Alt.=-8.271370m. Speed=1.152000m/h.</desc>
<speed>0.320000</speed>
</trkpt>
<trkpt lat="44.536976" lon="34.273804">
<ele>-8.145638</ele>
<time>2011-10-12T15:24:52Z</time>
<desc>lat.=44.536976, lon.=34.273804, Alt.=-8.145638m. Speed=0.432000m/h.</desc>
<speed>0.120000</speed>
</trkpt>
<trkpt lat="44.536991" lon="34.273796">
<ele>-8.073860</ele>
<time>2011-10-12T15:24:57Z</time>
<desc>lat.=44.536991, lon.=34.273796, Alt.=-8.073860m. Speed=1.872000m/h.</desc>
<speed>0.520000</speed>
</trkpt>
<trkpt lat="44.537018" lon="34.273788">
<ele>-8.020882</ele>
<time>2011-10-12T15:25:02Z</time>
<desc>lat.=44.537018, lon.=34.273788, Alt.=-8.020882m. Speed=2.340000m/h.</desc>
<speed>0.650000</speed>
</trkpt>
<trkpt lat="44.537037" lon="34.273781">
<ele>-7.968693</ele>
<time>2011-10-12T15:25:07Z</time>
<desc>lat.=44.537037, lon.=34.273781, Alt.=-7.968693m. Speed=1.152000m/h.</desc>
<speed>0.320000</speed>
</trkpt>
<trkpt lat="44.537052" lon="34.273792">
<ele>-7.913639</ele>
<time>2011-10-12T15:25:12Z</time>
<desc>lat.=44.537052, lon.=34.273792, Alt.=-7.913639m. Speed=1.620000m/h.</desc>
<speed>0.450000</speed>
</trkpt>
<trkpt lat="44.537071" lon="34.273781">
<ele>-7.852848</ele>
<time>2011-10-12T15:25:17Z</time>
<desc>lat.=44.537071, lon.=34.273781, Alt.=-7.852848m. Speed=2.880000m/h.</desc>
<speed>0.800000</speed>
</trkpt>
<trkpt lat="44.537086" lon="34.273743">
<ele>-7.796329</ele>
<time>2011-10-12T15:25:22Z</time>
<desc>lat.=44.537086, lon.=34.273743, Alt.=-7.796329m. Speed=2.088000m/h.</desc>
<speed>0.580000</speed>
</trkpt>
<trkpt lat="44.537098" lon="34.273712">
<ele>-7.728092</ele>
<time>2011-10-12T15:25:27Z</time>
<desc>lat.=44.537098, lon.=34.273712, Alt.=-7.728092m. Speed=1.728000m/h.</desc>
<speed>0.480000</speed>
</trkpt>
<trkpt lat="44.537102" lon="34.273685">
<ele>-7.609074</ele>
<time>2011-10-12T15:25:32Z</time>
<desc>lat.=44.537102, lon.=34.273685, Alt.=-7.609074m. Speed=1.296000m/h.</desc>
<speed>0.360000</speed>
</trkpt>
<trkpt lat="44.537098" lon="34.273663">
<ele>-7.477848</ele>
<time>2011-10-12T15:25:37Z</time>
<desc>lat.=44.537098, lon.=34.273663, Alt.=-7.477848m. Speed=1.404000m/h.</desc>
<speed>0.390000</speed>
</trkpt>
<trkpt lat="44.537090" lon="34.273628">
<ele>-7.302067</ele>
<time>2011-10-12T15:25:42Z</time>
<desc>lat.=44.537090, lon.=34.273628, Alt.=-7.302067m. Speed=2.484000m/h.</desc>
<speed>0.690000</speed>
</trkpt>
<trkpt lat="44.537083" lon="34.273590">
<ele>-7.088566</ele>
<time>2011-10-12T15:25:47Z</time>
<desc>lat.=44.537083, lon.=34.273590, Alt.=-7.088566m. Speed=1.512000m/h.</desc>
<speed>0.420000</speed>
</trkpt>
<trkpt lat="44.537086" lon="34.273571">
<ele>-6.877506</ele>
<time>2011-10-12T15:25:52Z</time>
<desc>lat.=44.537086, lon.=34.273571, Alt.=-6.877506m. Speed=1.800000m/h.</desc>
<speed>0.500000</speed>
</trkpt>
<trkpt lat="44.537086" lon="34.273533">
<ele>-6.615788</ele>
<time>2011-10-12T15:25:57Z</time>
<desc>lat.=44.537086, lon.=34.273533, Alt.=-6.615788m. Speed=1.944000m/h.</desc>
<speed>0.540000</speed>
</trkpt>
<trkpt lat="44.537083" lon="34.273502">
<ele>-6.368229</ele>
<time>2011-10-12T15:26:02Z</time>
<desc>lat.=44.537083, lon.=34.273502, Alt.=-6.368229m. Speed=2.700000m/h.</desc>
<speed>0.750000</speed>
</trkpt>
<trkpt lat="44.537090" lon="34.273453">
<ele>-6.119205</ele>
<time>2011-10-12T15:26:07Z</time>
<desc>lat.=44.537090, lon.=34.273453, Alt.=-6.119205m. Speed=2.664000m/h.</desc>
<speed>0.740000</speed>
</trkpt>
<trkpt lat="44.537102" lon="34.273407">
<ele>-5.850285</ele>
<time>2011-10-12T15:26:12Z</time>
<desc>lat.=44.537102, lon.=34.273407, Alt.=-5.850285m. Speed=2.736000m/h.</desc>
<speed>0.760000</speed>
</trkpt>
<trkpt lat="44.537113" lon="34.273365">
<ele>-5.527287</ele>
<time>2011-10-12T15:26:17Z</time>
<desc>lat.=44.537113, lon.=34.273365, Alt.=-5.527287m. Speed=1.980000m/h.</desc>
<speed>0.550000</speed>
</trkpt>
<trkpt lat="44.537125" lon="34.273335">
<ele>-5.205265</ele>
<time>2011-10-12T15:26:22Z</time>
<desc>lat.=44.537125, lon.=34.273335, Alt.=-5.205265m. Speed=1.512000m/h.</desc>
<speed>0.420000</speed>
</trkpt>
<trkpt lat="44.537136" lon="34.273308">
<ele>-4.864811</ele>
<time>2011-10-12T15:26:27Z</time>
<desc>lat.=44.537136, lon.=34.273308, Alt.=-4.864811m. Speed=2.808000m/h.</desc>
<speed>0.780000</speed>
</trkpt>
<trkpt lat="44.537155" lon="34.273285">
<ele>-4.544743</ele>
<time>2011-10-12T15:26:32Z</time>
<desc>lat.=44.537155, lon.=34.273285, Alt.=-4.544743m. Speed=1.404000m/h.</desc>
<speed>0.390000</speed>
</trkpt>
<trkpt lat="44.537174" lon="34.273285">
<ele>-4.222843</ele>
<time>2011-10-12T15:26:37Z</time>
<desc>lat.=44.537174, lon.=34.273285, Alt.=-4.222843m. Speed=1.908000m/h.</desc>
<speed>0.530000</speed>
</trkpt>
<trkpt lat="44.537193" lon="34.273281">
<ele>-3.621004</ele>
<time>2011-10-12T15:26:42Z</time>
<desc>lat.=44.537193, lon.=34.273281, Alt.=-3.621004m. Speed=0.540000m/h.</desc>
<speed>0.150000</speed>
</trkpt>
<trkpt lat="44.537189" lon="34.273293">
<ele>-3.023653</ele>
<time>2011-10-12T15:26:47Z</time>
<desc>lat.=44.537189, lon.=34.273293, Alt.=-3.023653m. Speed=1.476000m/h.</desc>
<speed>0.410000</speed>
</trkpt>
<trkpt lat="44.537163" lon="34.273281">
<ele>-2.490389</ele>
<time>2011-10-12T15:26:52Z</time>
<desc>lat.=44.537163, lon.=34.273281, Alt.=-2.490389m. Speed=1.764000m/h.</desc>
<speed>0.490000</speed>
</trkpt>
<trkpt lat="44.537159" lon="34.273270">
<ele>-1.979264</ele>
<time>2011-10-12T15:26:57Z</time>
<desc>lat.=44.537159, lon.=34.273270, Alt.=-1.979264m. Speed=1.008000m/h.</desc>
<speed>0.280000</speed>
</trkpt>
<trkpt lat="44.537163" lon="34.273247">
<ele>-1.706132</ele>
<time>2011-10-12T15:27:02Z</time>
<desc>lat.=44.537163, lon.=34.273247, Alt.=-1.706132m. Speed=1.764000m/h.</desc>
<speed>0.490000</speed>
</trkpt>
<trkpt lat="44.537155" lon="34.273224">
<ele>-1.431443</ele>
<time>2011-10-12T15:27:07Z</time>
<desc>lat.=44.537155, lon.=34.273224, Alt.=-1.431443m. Speed=0.864000m/h.</desc>
<speed>0.240000</speed>
</trkpt>
<trkpt lat="44.537148" lon="34.273228">
<ele>-1.264176</ele>
<time>2011-10-12T15:27:12Z</time>
<desc>lat.=44.537148, lon.=34.273228, Alt.=-1.264176m. Speed=0.576000m/h.</desc>
<speed>0.160000</speed>
</trkpt>
<trkpt lat="44.537155" lon="34.273232">
<ele>-1.186601</ele>
<time>2011-10-12T15:27:17Z</time>
<desc>lat.=44.537155, lon.=34.273232, Alt.=-1.186601m. Speed=0.252000m/h.</desc>
<speed>0.070000</speed>
</trkpt>
<trkpt lat="44.537155" lon="34.273232">
<ele>-1.122239</ele>
<time>2011-10-12T15:27:22Z</time>
<desc>lat.=44.537155, lon.=34.273232, Alt.=-1.122239m. Speed=0.072000m/h.</desc>
<speed>0.020000</speed>
</trkpt>
<trkpt lat="44.537155" lon="34.273224">
<ele>-1.067613</ele>
<time>2011-10-12T15:27:27Z</time>
<desc>lat.=44.537155, lon.=34.273224, Alt.=-1.067613m. Speed=0.468000m/h.</desc>
<speed>0.130000</speed>
</trkpt>
<trkpt lat="44.537170" lon="34.273228">
<ele>-1.011827</ele>
<time>2011-10-12T15:27:32Z</time>
<desc>lat.=44.537170, lon.=34.273228, Alt.=-1.011827m. Speed=0.684000m/h.</desc>
<speed>0.190000</speed>
</trkpt>
<trkpt lat="44.537167" lon="34.273243">
<ele>-0.946328</ele>
<time>2011-10-12T15:27:37Z</time>
<desc>lat.=44.537167, lon.=34.273243, Alt.=-0.946328m. Speed=1.332000m/h.</desc>
<speed>0.370000</speed>
</trkpt>
<trkpt lat="44.537163" lon="34.273262">
<ele>-0.845620</ele>
<time>2011-10-12T15:27:42Z</time>
<desc>lat.=44.537163, lon.=34.273262, Alt.=-0.845620m. Speed=1.044000m/h.</desc>
<speed>0.290000</speed>
</trkpt>
<trkpt lat="44.537159" lon="34.273277">
<ele>-0.752953</ele>
<time>2011-10-12T15:27:47Z</time>
<desc>lat.=44.537159, lon.=34.273277, Alt.=-0.752953m. Speed=0.936000m/h.</desc>
<speed>0.260000</speed>
</trkpt>
<trkpt lat="44.537167" lon="34.273289">
<ele>-0.701806</ele>
<time>2011-10-12T15:27:52Z</time>
<desc>lat.=44.537167, lon.=34.273289, Alt.=-0.701806m. Speed=0.504000m/h.</desc>
<speed>0.140000</speed>
</trkpt>
<trkpt lat="44.537167" lon="34.273289">
<ele>-0.681725</ele>
<time>2011-10-12T15:27:57Z</time>
<desc>lat.=44.537167, lon.=34.273289, Alt.=-0.681725m. Speed=0.792000m/h.</desc>
<speed>0.220000</speed>
</trkpt>
<trkpt lat="44.537178" lon="34.273285">
<ele>-0.667244</ele>
<time>2011-10-12T15:28:02Z</time>
<desc>lat.=44.537178, lon.=34.273285, Alt.=-0.667244m. Speed=0.612000m/h.</desc>
<speed>0.170000</speed>
</trkpt>
<trkpt lat="44.537186" lon="34.273277">
<ele>-0.655983</ele>
<time>2011-10-12T15:28:07Z</time>
<desc>lat.=44.537186, lon.=34.273277, Alt.=-0.655983m. Speed=0.756000m/h.</desc>
<speed>0.210000</speed>
</trkpt>
<trkpt lat="44.537193" lon="34.273285">
<ele>-0.638253</ele>
<time>2011-10-12T15:28:12Z</time>
<desc>lat.=44.537193, lon.=34.273285, Alt.=-0.638253m. Speed=0.792000m/h.</desc>
<speed>0.220000</speed>
</trkpt>
<trkpt lat="44.537209" lon="34.273277">
<ele>-0.620598</ele>
<time>2011-10-12T15:28:17Z</time>
<desc>lat.=44.537209, lon.=34.273277, Alt.=-0.620598m. Speed=1.656000m/h.</desc>
<speed>0.460000</speed>
</trkpt>
<trkpt lat="44.537220" lon="34.273277">
<ele>-0.592339</ele>
<time>2011-10-12T15:28:22Z</time>
<desc>lat.=44.537220, lon.=34.273277, Alt.=-0.592339m. Speed=0.576000m/h.</desc>
<speed>0.160000</speed>
</trkpt>
<trkpt lat="44.537224" lon="34.273277">
<ele>-0.549065</ele>
<time>2011-10-12T15:28:27Z</time>
<desc>lat.=44.537224, lon.=34.273277, Alt.=-0.549065m. Speed=0.144000m/h.</desc>
<speed>0.040000</speed>
</trkpt>
<trkpt lat="44.537228" lon="34.273277">
<ele>-0.508080</ele>
<time>2011-10-12T15:28:32Z</time>
<desc>lat.=44.537228, lon.=34.273277, Alt.=-0.508080m. Speed=0.756000m/h.</desc>
<speed>0.210000</speed>
</trkpt>
<trkpt lat="44.537205" lon="34.273277">
<ele>0.170450</ele>
<time>2011-10-12T15:28:37Z</time>
<desc>lat.=44.537205, lon.=34.273277, Alt.=0.170450m. Speed=0.432000m/h.</desc>
<speed>0.120000</speed>
</trkpt>
<trkpt lat="44.537197" lon="34.273277">
<ele>0.234301</ele>
<time>2011-10-12T15:28:42Z</time>
<desc>lat.=44.537197, lon.=34.273277, Alt.=0.234301m. Speed=0.252000m/h.</desc>
<speed>0.070000</speed>
</trkpt>
<trkpt lat="44.537205" lon="34.273270">
<ele>0.283940</ele>
<time>2011-10-12T15:28:47Z</time>
<desc>lat.=44.537205, lon.=34.273270, Alt.=0.283940m. Speed=1.116000m/h.</desc>
<speed>0.310000</speed>
</trkpt>
<trkpt lat="44.537231" lon="34.273243">
<ele>0.465748</ele>
<time>2011-10-12T15:28:52Z</time>
<desc>lat.=44.537231, lon.=34.273243, Alt.=0.465748m. Speed=1.548000m/h.</desc>
<speed>0.430000</speed>
</trkpt>
<trkpt lat="44.537266" lon="34.273178">
<ele>1.369828</ele>
<time>2011-10-12T15:28:57Z</time>
<desc>lat.=44.537266, lon.=34.273178, Alt.=1.369828m. Speed=1.224000m/h.</desc>
<speed>0.340000</speed>
</trkpt>
<trkpt lat="44.537277" lon="34.273167">
<ele>2.678133</ele>
<time>2011-10-12T15:29:02Z</time>
<desc>lat.=44.537277, lon.=34.273167, Alt.=2.678133m. Speed=0.612000m/h.</desc>
<speed>0.170000</speed>
</trkpt>
<trkpt lat="44.537285" lon="34.273148">
<ele>3.016329</ele>
<time>2011-10-12T15:29:07Z</time>
<desc>lat.=44.537285, lon.=34.273148, Alt.=3.016329m. Speed=0.216000m/h.</desc>
<speed>0.060000</speed>
</trkpt>
<trkpt lat="44.537281" lon="34.273151">
<ele>3.054842</ele>
<time>2011-10-12T15:29:12Z</time>
<desc>lat.=44.537281, lon.=34.273151, Alt.=3.054842m. Speed=0.576000m/h.</desc>
<speed>0.160000</speed>
</trkpt>
<trkpt lat="44.537292" lon="34.273151">
<ele>3.116121</ele>
<time>2011-10-12T15:29:17Z</time>
<desc>lat.=44.537292, lon.=34.273151, Alt.=3.116121m. Speed=0.360000m/h.</desc>
<speed>0.100000</speed>
</trkpt>
<trkpt lat="44.537296" lon="34.273151">
<ele>3.184175</ele>
<time>2011-10-12T15:29:22Z</time>
<desc>lat.=44.537296, lon.=34.273151, Alt.=3.184175m. Speed=0.576000m/h.</desc>
<speed>0.160000</speed>
</trkpt>
<trkpt lat="44.537300" lon="34.273151">
<ele>3.255098</ele>
<time>2011-10-12T15:29:27Z</time>
<desc>lat.=44.537300, lon.=34.273151, Alt.=3.255098m. Speed=0.396000m/h.</desc>
<speed>0.110000</speed>
</trkpt>
<trkpt lat="44.537289" lon="34.273148">
<ele>3.359163</ele>
<time>2011-10-12T15:29:32Z</time>
<desc>lat.=44.537289, lon.=34.273148, Alt.=3.359163m. Speed=0.828000m/h.</desc>
<speed>0.230000</speed>
</trkpt>
<trkpt lat="44.537285" lon="34.273136">
<ele>3.753695</ele>
<time>2011-10-12T15:29:37Z</time>
<desc>lat.=44.537285, lon.=34.273136, Alt.=3.753695m. Speed=0.468000m/h.</desc>
<speed>0.130000</speed>
</trkpt>
<trkpt lat="44.537285" lon="34.273129">
<ele>3.895662</ele>
<time>2011-10-12T15:29:42Z</time>
<desc>lat.=44.537285, lon.=34.273129, Alt.=3.895662m. Speed=0.396000m/h.</desc>
<speed>0.110000</speed>
</trkpt>
<trkpt lat="44.537270" lon="34.273094">
<ele>4.018009</ele>
<time>2011-10-12T15:29:47Z</time>
<desc>lat.=44.537270, lon.=34.273094, Alt.=4.018009m. Speed=2.340000m/h.</desc>
<speed>0.650000</speed>
</trkpt>
<trkpt lat="44.537235" lon="34.273026">
<ele>4.111637</ele>
<time>2011-10-12T15:29:52Z</time>
<desc>lat.=44.537235, lon.=34.273026, Alt.=4.111637m. Speed=2.700000m/h.</desc>
<speed>0.750000</speed>
</trkpt>
<trkpt lat="44.537201" lon="34.273045">
<ele>4.170475</ele>
<time>2011-10-12T15:29:57Z</time>
<desc>lat.=44.537201, lon.=34.273045, Alt.=4.170475m. Speed=1.980000m/h.</desc>
<speed>0.550000</speed>
</trkpt>
<trkpt lat="44.537159" lon="34.273064">
<ele>4.177799</ele>
<time>2011-10-12T15:30:02Z</time>
<desc>lat.=44.537159, lon.=34.273064, Alt.=4.177799m. Speed=1.872000m/h.</desc>
<speed>0.520000</speed>
</trkpt>
<trkpt lat="44.537186" lon="34.273113">
<ele>4.275455</ele>
<time>2011-10-12T15:30:07Z</time>
<desc>lat.=44.537186, lon.=34.273113, Alt.=4.275455m. Speed=0.684000m/h.</desc>
<speed>0.190000</speed>
</trkpt>
<trkpt lat="44.537182" lon="34.273113">
<ele>4.334293</ele>
<time>2011-10-12T15:30:12Z</time>
<desc>lat.=44.537182, lon.=34.273113, Alt.=4.334293m. Speed=0.792000m/h.</desc>
<speed>0.220000</speed>
</trkpt>
<trkpt lat="44.537189" lon="34.273163">
<ele>4.527653</ele>
<time>2011-10-12T15:30:17Z</time>
<desc>lat.=44.537189, lon.=34.273163, Alt.=4.527653m. Speed=1.944000m/h.</desc>
<speed>0.540000</speed>
</trkpt>
<trkpt lat="44.537197" lon="34.273178">
<ele>4.922550</ele>
<time>2011-10-12T15:30:22Z</time>
<desc>lat.=44.537197, lon.=34.273178, Alt.=4.922550m. Speed=0.504000m/h.</desc>
<speed>0.140000</speed>
</trkpt>
<trkpt lat="44.537201" lon="34.273178">
<ele>5.008976</ele>
<time>2011-10-12T15:30:27Z</time>
<desc>lat.=44.537201, lon.=34.273178, Alt.=5.008976m. Speed=0.360000m/h.</desc>
<speed>0.100000</speed>
</trkpt>
<trkpt lat="44.537209" lon="34.273170">
<ele>5.051823</ele>
<time>2011-10-12T15:30:32Z</time>
<desc>lat.=44.537209, lon.=34.273170, Alt.=5.051823m. Speed=0.936000m/h.</desc>
<speed>0.260000</speed>
</trkpt>
<trkpt lat="44.537216" lon="34.273212">
<ele>5.222355</ele>
<time>2011-10-12T15:30:37Z</time>
<desc>lat.=44.537216, lon.=34.273212, Alt.=5.222355m. Speed=1.872000m/h.</desc>
<speed>0.520000</speed>
</trkpt>
<trkpt lat="44.537209" lon="34.273243">
<ele>5.416691</ele>
<time>2011-10-12T15:30:42Z</time>
<desc>lat.=44.537209, lon.=34.273243, Alt.=5.416691m. Speed=2.088000m/h.</desc>
<speed>0.580000</speed>
</trkpt>
<trkpt lat="44.537170" lon="34.273277">
<ele>5.558537</ele>
<time>2011-10-12T15:30:47Z</time>
<desc>lat.=44.537170, lon.=34.273277, Alt.=5.558537m. Speed=1.836000m/h.</desc>
<speed>0.510000</speed>
</trkpt>
<trkpt lat="44.537155" lon="34.273273">
<ele>5.708927</ele>
<time>2011-10-12T15:30:52Z</time>
<desc>lat.=44.537155, lon.=34.273273, Alt.=5.708927m. Speed=1.080000m/h.</desc>
<speed>0.300000</speed>
</trkpt>
<trkpt lat="44.537163" lon="34.273232">
<ele>5.932316</ele>
<time>2011-10-12T15:30:57Z</time>
<desc>lat.=44.537163, lon.=34.273232, Alt.=5.932316m. Speed=0.684000m/h.</desc>
<speed>0.190000</speed>
</trkpt>
<trkpt lat="44.537170" lon="34.273163">
<ele>5.950993</ele>
<time>2011-10-12T15:31:02Z</time>
<desc>lat.=44.537170, lon.=34.273163, Alt.=5.950993m. Speed=2.016000m/h.</desc>
<speed>0.560000</speed>
</trkpt>
<trkpt lat="44.537174" lon="34.273140">
<ele>5.962833</ele>
<time>2011-10-12T15:31:07Z</time>
<desc>lat.=44.537174, lon.=34.273140, Alt.=5.962833m. Speed=1.584000m/h.</desc>
<speed>0.440000</speed>
</trkpt>
<trkpt lat="44.537159" lon="34.273163">
<ele>5.871037</ele>
<time>2011-10-12T15:31:12Z</time>
<desc>lat.=44.537159, lon.=34.273163, Alt.=5.871037m. Speed=1.008000m/h.</desc>
<speed>0.280000</speed>
</trkpt>
<trkpt lat="44.537163" lon="34.273197">
<ele>6.254337</ele>
<time>2011-10-12T15:31:17Z</time>
<desc>lat.=44.537163, lon.=34.273197, Alt.=6.254337m. Speed=0.144000m/h.</desc>
<speed>0.040000</speed>
</trkpt>
<trkpt lat="44.537201" lon="34.273174">
<ele>6.343937</ele>
<time>2011-10-12T15:31:22Z</time>
<desc>lat.=44.537201, lon.=34.273174, Alt.=6.343937m. Speed=1.044000m/h.</desc>
<speed>0.290000</speed>
</trkpt>
<trkpt lat="44.537239" lon="34.273167">
<ele>6.528629</ele>
<time>2011-10-12T15:31:27Z</time>
<desc>lat.=44.537239, lon.=34.273167, Alt.=6.528629m. Speed=1.656000m/h.</desc>
<speed>0.460000</speed>
</trkpt>
<trkpt lat="44.537262" lon="34.273136">
<ele>7.048283</ele>
<time>2011-10-12T15:31:32Z</time>
<desc>lat.=44.537262, lon.=34.273136, Alt.=7.048283m. Speed=0.828000m/h.</desc>
<speed>0.230000</speed>
</trkpt>
<trkpt lat="44.537266" lon="34.273136">
<ele>7.245182</ele>
<time>2011-10-12T15:31:37Z</time>
<desc>lat.=44.537266, lon.=34.273136, Alt.=7.245182m. Speed=0.396000m/h.</desc>
<speed>0.110000</speed>
</trkpt>
<trkpt lat="44.537266" lon="34.273144">
<ele>7.245060</ele>
<time>2011-10-12T15:31:42Z</time>
<desc>lat.=44.537266, lon.=34.273144, Alt.=7.245060m. Speed=0.828000m/h.</desc>
<speed>0.230000</speed>
</trkpt>
<trkpt lat="44.537273" lon="34.273151">
<ele>7.245304</ele>
<time>2011-10-12T15:31:47Z</time>
<desc>lat.=44.537273, lon.=34.273151, Alt.=7.245304m. Speed=0.180000m/h.</desc>
<speed>0.050000</speed>
</trkpt>
<trkpt lat="44.537266" lon="34.273155">
<ele>7.273502</ele>
<time>2011-10-12T15:31:52Z</time>
<desc>lat.=44.537266, lon.=34.273155, Alt.=7.273502m. Speed=0.540000m/h.</desc>
<speed>0.150000</speed>
</trkpt>
<trkpt lat="44.537254" lon="34.273155">
<ele>7.256046</ele>
<time>2011-10-12T15:31:57Z</time>
<desc>lat.=44.537254, lon.=34.273155, Alt.=7.256046m. Speed=0.540000m/h.</desc>
<speed>0.150000</speed>
</trkpt>
<trkpt lat="44.537254" lon="34.273151">
<ele>7.256168</ele>
<time>2011-10-12T15:32:02Z</time>
<desc>lat.=44.537254, lon.=34.273151, Alt.=7.256168m. Speed=0.648000m/h.</desc>
<speed>0.180000</speed>
</trkpt>
<trkpt lat="44.537247" lon="34.273148">
<ele>7.252995</ele>
<time>2011-10-12T15:32:07Z</time>
<desc>lat.=44.537247, lon.=34.273148, Alt.=7.252995m. Speed=0.324000m/h.</desc>
<speed>0.090000</speed>
</trkpt>
<trkpt lat="44.537239" lon="34.273155">
<ele>7.251408</ele>
<time>2011-10-12T15:32:12Z</time>
<desc>lat.=44.537239, lon.=34.273155, Alt.=7.251408m. Speed=0.864000m/h.</desc>
<speed>0.240000</speed>
</trkpt>
<trkpt lat="44.537235" lon="34.273155">
<ele>7.246281</ele>
<time>2011-10-12T15:32:17Z</time>
<desc>lat.=44.537235, lon.=34.273155, Alt.=7.246281m. Speed=0.144000m/h.</desc>
<speed>0.040000</speed>
</trkpt>
<trkpt lat="44.537235" lon="34.273155">
<ele>7.246281</ele>
<time>2011-10-12T15:32:22Z</time>
<desc>lat.=44.537235, lon.=34.273155, Alt.=7.246281m. Speed=0.432000m/h.</desc>
<speed>0.120000</speed>
</trkpt>
<trkpt lat="44.537235" lon="34.273159">
<ele>7.254337</ele>
<time>2011-10-12T15:32:27Z</time>
<desc>lat.=44.537235, lon.=34.273159, Alt.=7.254337m. Speed=0.180000m/h.</desc>
<speed>0.050000</speed>
</trkpt>
<trkpt lat="44.537235" lon="34.273163">
<ele>7.255680</ele>
<time>2011-10-12T15:32:32Z</time>
<desc>lat.=44.537235, lon.=34.273163, Alt.=7.255680m. Speed=0.576000m/h.</desc>
<speed>0.160000</speed>
</trkpt>
<trkpt lat="44.537235" lon="34.273163">
<ele>7.258854</ele>
<time>2011-10-12T15:32:37Z</time>
<desc>lat.=44.537235, lon.=34.273163, Alt.=7.258854m. Speed=0.396000m/h.</desc>
<speed>0.110000</speed>
</trkpt>
<trkpt lat="44.537235" lon="34.273155">
<ele>7.265446</ele>
<time>2011-10-12T15:32:42Z</time>
<desc>lat.=44.537235, lon.=34.273155, Alt.=7.265446m. Speed=0.252000m/h.</desc>
<speed>0.070000</speed>
</trkpt>
<trkpt lat="44.537235" lon="34.273151">
<ele>7.272282</ele>
<time>2011-10-12T15:32:47Z</time>
<desc>lat.=44.537235, lon.=34.273151, Alt.=7.272282m. Speed=0.180000m/h.</desc>
<speed>0.050000</speed>
</trkpt>
<trkpt lat="44.537231" lon="34.273155">
<ele>7.281437</ele>
<time>2011-10-12T15:32:52Z</time>
<desc>lat.=44.537231, lon.=34.273155, Alt.=7.281437m. Speed=0.648000m/h.</desc>
<speed>0.180000</speed>
</trkpt>
<trkpt lat="44.537212" lon="34.273151">
<ele>7.361637</ele>
<time>2011-10-12T15:32:57Z</time>
<desc>lat.=44.537212, lon.=34.273151, Alt.=7.361637m. Speed=1.728000m/h.</desc>
<speed>0.480000</speed>
</trkpt>
<trkpt lat="44.537178" lon="34.273148">
<ele>7.500065</ele>
<time>2011-10-12T15:33:02Z</time>
<desc>lat.=44.537178, lon.=34.273148, Alt.=7.500065m. Speed=1.980000m/h.</desc>
<speed>0.550000</speed>
</trkpt>
<trkpt lat="44.537159" lon="34.273132">
<ele>7.766300</ele>
<time>2011-10-12T15:33:07Z</time>
<desc>lat.=44.537159, lon.=34.273132, Alt.=7.766300m. Speed=1.332000m/h.</desc>
<speed>0.370000</speed>
</trkpt>
<trkpt lat="44.537155" lon="34.273201">
<ele>7.336124</ele>
<time>2011-10-12T15:33:12Z</time>
<desc>lat.=44.537155, lon.=34.273201, Alt.=7.336124m. Speed=0.324000m/h.</desc>
<speed>0.090000</speed>
</trkpt>
<trkpt lat="44.537140" lon="34.273205">
<ele>7.824162</ele>
<time>2011-10-12T15:33:17Z</time>
<desc>lat.=44.537140, lon.=34.273205, Alt.=7.824162m. Speed=0.324000m/h.</desc>
<speed>0.090000</speed>
</trkpt>
<trkpt lat="44.537136" lon="34.273205">
<ele>7.799381</ele>
<time>2011-10-12T15:33:22Z</time>
<desc>lat.=44.537136, lon.=34.273205, Alt.=7.799381m. Speed=0.036000m/h.</desc>
<speed>0.010000</speed>
</trkpt>
<trkpt lat="44.537128" lon="34.273205">
<ele>7.782902</ele>
<time>2011-10-12T15:33:27Z</time>
<desc>lat.=44.537128, lon.=34.273205, Alt.=7.782902m. Speed=0.720000m/h.</desc>
<speed>0.200000</speed>
</trkpt>
<trkpt lat="44.537125" lon="34.273209">
<ele>7.794621</ele>
<time>2011-10-12T15:33:32Z</time>
<desc>lat.=44.537125, lon.=34.273209, Alt.=7.794621m. Speed=0.324000m/h.</desc>
<speed>0.090000</speed>
</trkpt>
<trkpt lat="44.537125" lon="34.273216">
<ele>7.812077</ele>
<time>2011-10-12T15:33:37Z</time>
<desc>lat.=44.537125, lon.=34.273216, Alt.=7.812077m. Speed=0.612000m/h.</desc>
<speed>0.170000</speed>
</trkpt>
<trkpt lat="44.537128" lon="34.273232">
<ele>7.819157</ele>
<time>2011-10-12T15:33:42Z</time>
<desc>lat.=44.537128, lon.=34.273232, Alt.=7.819157m. Speed=1.116000m/h.</desc>
<speed>0.310000</speed>
</trkpt>
<trkpt lat="44.537167" lon="34.273239">
<ele>8.524788</ele>
<time>2011-10-12T15:33:47Z</time>
<desc>lat.=44.537167, lon.=34.273239, Alt.=8.524788m. Speed=0.432000m/h.</desc>
<speed>0.120000</speed>
</trkpt>
<trkpt lat="44.537182" lon="34.273243">
<ele>9.463264</ele>
<time>2011-10-12T15:33:52Z</time>
<desc>lat.=44.537182, lon.=34.273243, Alt.=9.463264m. Speed=0.792000m/h.</desc>
<speed>0.220000</speed>
</trkpt>
<trkpt lat="44.537193" lon="34.273239">
<ele>9.537971</ele>
<time>2011-10-12T15:33:57Z</time>
<desc>lat.=44.537193, lon.=34.273239, Alt.=9.537971m. Speed=0.504000m/h.</desc>
<speed>0.140000</speed>
</trkpt>
<trkpt lat="44.537197" lon="34.273239">
<ele>9.664680</ele>
<time>2011-10-12T15:34:02Z</time>
<desc>lat.=44.537197, lon.=34.273239, Alt.=9.664680m. Speed=0.288000m/h.</desc>
<speed>0.080000</speed>
</trkpt>
<trkpt lat="44.537201" lon="34.273239">
<ele>9.859505</ele>
<time>2011-10-12T15:34:07Z</time>
<desc>lat.=44.537201, lon.=34.273239, Alt.=9.859505m. Speed=0.000000m/h.</desc>
<speed>0.000000</speed>
</trkpt>
<trkpt lat="44.537201" lon="34.273239">
<ele>10.119026</ele>
<time>2011-10-12T15:34:12Z</time>
<desc>lat.=44.537201, lon.=34.273239, Alt.=10.119026m. Speed=0.036000m/h.</desc>
<speed>0.010000</speed>
</trkpt>
<trkpt lat="44.537201" lon="34.273239">
<ele>10.347054</ele>
<time>2011-10-12T15:34:17Z</time>
<desc>lat.=44.537201, lon.=34.273239, Alt.=10.347054m. Speed=0.072000m/h.</desc>
<speed>0.020000</speed>
</trkpt>
<trkpt lat="44.537201" lon="34.273239">
<ele>10.352180</ele>
<time>2011-10-12T15:34:22Z</time>
<desc>lat.=44.537201, lon.=34.273239, Alt.=10.352180m. Speed=0.108000m/h.</desc>
<speed>0.030000</speed>
</trkpt>
<trkpt lat="44.537201" lon="34.273239">
<ele>10.367073</ele>
<time>2011-10-12T15:34:27Z</time>
<desc>lat.=44.537201, lon.=34.273239, Alt.=10.367073m. Speed=0.216000m/h.</desc>
<speed>0.060000</speed>
</trkpt>
<trkpt lat="44.537197" lon="34.273239">
<ele>10.383919</ele>
<time>2011-10-12T15:34:32Z</time>
<desc>lat.=44.537197, lon.=34.273239, Alt.=10.383919m. Speed=0.144000m/h.</desc>
<speed>0.040000</speed>
</trkpt>
<trkpt lat="44.537197" lon="34.273243">
<ele>10.374397</ele>
<time>2011-10-12T15:34:37Z</time>
<desc>lat.=44.537197, lon.=34.273243, Alt.=10.374397m. Speed=0.108000m/h.</desc>
<speed>0.030000</speed>
</trkpt>
<trkpt lat="44.537197" lon="34.273239">
<ele>10.374886</ele>
<time>2011-10-12T15:34:42Z</time>
<desc>lat.=44.537197, lon.=34.273239, Alt.=10.374886m. Speed=0.072000m/h.</desc>
<speed>0.020000</speed>
</trkpt>
<trkpt lat="44.537201" lon="34.273235">
<ele>10.378792</ele>
<time>2011-10-12T15:34:47Z</time>
<desc>lat.=44.537201, lon.=34.273235, Alt.=10.378792m. Speed=0.252000m/h.</desc>
<speed>0.070000</speed>
</trkpt>
<trkpt lat="44.537201" lon="34.273232">
<ele>10.387093</ele>
<time>2011-10-12T15:34:52Z</time>
<desc>lat.=44.537201, lon.=34.273232, Alt.=10.387093m. Speed=0.756000m/h.</desc>
<speed>0.210000</speed>
</trkpt>
<trkpt lat="44.537212" lon="34.273220">
<ele>10.403450</ele>
<time>2011-10-12T15:34:57Z</time>
<desc>lat.=44.537212, lon.=34.273220, Alt.=10.403450m. Speed=0.864000m/h.</desc>
<speed>0.240000</speed>
</trkpt>
<trkpt lat="44.537220" lon="34.273216">
<ele>10.420540</ele>
<time>2011-10-12T15:35:02Z</time>
<desc>lat.=44.537220, lon.=34.273216, Alt.=10.420540m. Speed=0.504000m/h.</desc>
<speed>0.140000</speed>
</trkpt>
<trkpt lat="44.537228" lon="34.273216">
<ele>10.437141</ele>
<time>2011-10-12T15:35:07Z</time>
<desc>lat.=44.537228, lon.=34.273216, Alt.=10.437141m. Speed=0.684000m/h.</desc>
<speed>0.190000</speed>
</trkpt>
<trkpt lat="44.537235" lon="34.273216">
<ele>10.453743</ele>
<time>2011-10-12T15:35:12Z</time>
<desc>lat.=44.537235, lon.=34.273216, Alt.=10.453743m. Speed=0.864000m/h.</desc>
<speed>0.240000</speed>
</trkpt>
<trkpt lat="44.537247" lon="34.273216">
<ele>10.472542</ele>
<time>2011-10-12T15:35:17Z</time>
<desc>lat.=44.537247, lon.=34.273216, Alt.=10.472542m. Speed=1.008000m/h.</desc>
<speed>0.280000</speed>
</trkpt>
<trkpt lat="44.537262" lon="34.273220">
<ele>10.510384</ele>
<time>2011-10-12T15:35:22Z</time>
<desc>lat.=44.537262, lon.=34.273220, Alt.=10.510384m. Speed=1.152000m/h.</desc>
<speed>0.320000</speed>
</trkpt>
<trkpt lat="44.537273" lon="34.273254">
<ele>10.675667</ele>
<time>2011-10-12T15:35:27Z</time>
<desc>lat.=44.537273, lon.=34.273254, Alt.=10.675667m. Speed=1.224000m/h.</desc>
<speed>0.340000</speed>
</trkpt>
<trkpt lat="44.537281" lon="34.273281">
<ele>10.964241</ele>
<time>2011-10-12T15:35:32Z</time>
<desc>lat.=44.537281, lon.=34.273281, Alt.=10.964241m. Speed=1.044000m/h.</desc>
<speed>0.290000</speed>
</trkpt>
<trkpt lat="44.537285" lon="34.273308">
<ele>10.993050</ele>
<time>2011-10-12T15:35:37Z</time>
<desc>lat.=44.537285, lon.=34.273308, Alt.=10.993050m. Speed=1.044000m/h.</desc>
<speed>0.290000</speed>
</trkpt>
<trkpt lat="44.537285" lon="34.273304">
<ele>11.107796</ele>
<time>2011-10-12T15:35:42Z</time>
<desc>lat.=44.537285, lon.=34.273304, Alt.=11.107796m. Speed=0.684000m/h.</desc>
<speed>0.190000</speed>
</trkpt>
<trkpt lat="44.537289" lon="34.273312">
<ele>11.138802</ele>
<time>2011-10-12T15:35:47Z</time>
<desc>lat.=44.537289, lon.=34.273312, Alt.=11.138802m. Speed=0.180000m/h.</desc>
<speed>0.050000</speed>
</trkpt>
<trkpt lat="44.537285" lon="34.273315">
<ele>11.170296</ele>
<time>2011-10-12T15:35:52Z</time>
<desc>lat.=44.537285, lon.=34.273315, Alt.=11.170296m. Speed=0.396000m/h.</desc>
<speed>0.110000</speed>
</trkpt>
<trkpt lat="44.537277" lon="34.273315">
<ele>11.202766</ele>
<time>2011-10-12T15:35:57Z</time>
<desc>lat.=44.537277, lon.=34.273315, Alt.=11.202766m. Speed=0.720000m/h.</desc>
<speed>0.200000</speed>
</trkpt>
<trkpt lat="44.537270" lon="34.273315">
<ele>11.234016</ele>
<time>2011-10-12T15:36:02Z</time>
<desc>lat.=44.537270, lon.=34.273315, Alt.=11.234016m. Speed=0.720000m/h.</desc>
<speed>0.200000</speed>
</trkpt>
<trkpt lat="44.537262" lon="34.273315">
<ele>11.264778</ele>
<time>2011-10-12T15:36:07Z</time>
<desc>lat.=44.537262, lon.=34.273315, Alt.=11.264778m. Speed=0.576000m/h.</desc>
<speed>0.160000</speed>
</trkpt>
<trkpt lat="44.537254" lon="34.273315">
<ele>11.297737</ele>
<time>2011-10-12T15:36:12Z</time>
<desc>lat.=44.537254, lon.=34.273315, Alt.=11.297737m. Speed=0.648000m/h.</desc>
<speed>0.180000</speed>
</trkpt>
<trkpt lat="44.537251" lon="34.273308">
<ele>11.335823</ele>
<time>2011-10-12T15:36:17Z</time>
<desc>lat.=44.537251, lon.=34.273308, Alt.=11.335823m. Speed=0.576000m/h.</desc>
<speed>0.160000</speed>
</trkpt>
<trkpt lat="44.537247" lon="34.273296">
<ele>11.374886</ele>
<time>2011-10-12T15:36:22Z</time>
<desc>lat.=44.537247, lon.=34.273296, Alt.=11.374886m. Speed=0.720000m/h.</desc>
<speed>0.200000</speed>
</trkpt>
<trkpt lat="44.537243" lon="34.273289">
<ele>11.411995</ele>
<time>2011-10-12T15:36:27Z</time>
<desc>lat.=44.537243, lon.=34.273289, Alt.=11.411995m. Speed=0.648000m/h.</desc>
<speed>0.180000</speed>
</trkpt>
<trkpt lat="44.537224" lon="34.273273">
<ele>11.464241</ele>
<time>2011-10-12T15:36:32Z</time>
<desc>lat.=44.537224, lon.=34.273273, Alt.=11.464241m. Speed=1.188000m/h.</desc>
<speed>0.330000</speed>
</trkpt>
<trkpt lat="44.537216" lon="34.273254">
<ele>11.621223</ele>
<time>2011-10-12T15:36:37Z</time>
<desc>lat.=44.537216, lon.=34.273254, Alt.=11.621223m. Speed=0.828000m/h.</desc>
<speed>0.230000</speed>
</trkpt>
<trkpt lat="44.537212" lon="34.273239">
<ele>11.701057</ele>
<time>2011-10-12T15:36:42Z</time>
<desc>lat.=44.537212, lon.=34.273239, Alt.=11.701057m. Speed=1.044000m/h.</desc>
<speed>0.290000</speed>
</trkpt>
<trkpt lat="44.537209" lon="34.273232">
<ele>11.754280</ele>
<time>2011-10-12T15:36:47Z</time>
<desc>lat.=44.537209, lon.=34.273232, Alt.=11.754280m. Speed=0.828000m/h.</desc>
<speed>0.230000</speed>
</trkpt>
<trkpt lat="44.537205" lon="34.273224">
<ele>11.797981</ele>
<time>2011-10-12T15:36:52Z</time>
<desc>lat.=44.537205, lon.=34.273224, Alt.=11.797981m. Speed=0.216000m/h.</desc>
<speed>0.060000</speed>
</trkpt>
<trkpt lat="44.537205" lon="34.273224">
<ele>11.844856</ele>
<time>2011-10-12T15:36:57Z</time>
<desc>lat.=44.537205, lon.=34.273224, Alt.=11.844856m. Speed=0.216000m/h.</desc>
<speed>0.060000</speed>
</trkpt>
<trkpt lat="44.537205" lon="34.273228">
<ele>11.890022</ele>
<time>2011-10-12T15:37:02Z</time>
<desc>lat.=44.537205, lon.=34.273228, Alt.=11.890022m. Speed=0.432000m/h.</desc>
<speed>0.120000</speed>
</trkpt>
<trkpt lat="44.537197" lon="34.273239">
<ele>11.939339</ele>
<time>2011-10-12T15:37:07Z</time>
<desc>lat.=44.537197, lon.=34.273239, Alt.=11.939339m. Speed=0.540000m/h.</desc>
<speed>0.150000</speed>
</trkpt>
<trkpt lat="44.537193" lon="34.273247">
<ele>11.981575</ele>
<time>2011-10-12T15:37:12Z</time>
<desc>lat.=44.537193, lon.=34.273247, Alt.=11.981575m. Speed=0.432000m/h.</desc>
<speed>0.120000</speed>
</trkpt>
<trkpt lat="44.537189" lon="34.273251">
<ele>12.018196</ele>
<time>2011-10-12T15:37:17Z</time>
<desc>lat.=44.537189, lon.=34.273251, Alt.=12.018196m. Speed=0.288000m/h.</desc>
<speed>0.080000</speed>
</trkpt>
<trkpt lat="44.537189" lon="34.273251">
<ele>12.054329</ele>
<time>2011-10-12T15:37:22Z</time>
<desc>lat.=44.537189, lon.=34.273251, Alt.=12.054329m. Speed=0.072000m/h.</desc>
<speed>0.020000</speed>
</trkpt>
<trkpt lat="44.537193" lon="34.273247">
<ele>12.089241</ele>
<time>2011-10-12T15:37:27Z</time>
<desc>lat.=44.537193, lon.=34.273247, Alt.=12.089241m. Speed=0.792000m/h.</desc>
<speed>0.220000</speed>
</trkpt>
<trkpt lat="44.537205" lon="34.273258">
<ele>12.126106</ele>
<time>2011-10-12T15:37:32Z</time>
<desc>lat.=44.537205, lon.=34.273258, Alt.=12.126106m. Speed=0.936000m/h.</desc>
<speed>0.260000</speed>
</trkpt>
<trkpt lat="44.537212" lon="34.273266">
<ele>12.166145</ele>
<time>2011-10-12T15:37:37Z</time>
<desc>lat.=44.537212, lon.=34.273266, Alt.=12.166145m. Speed=0.900000m/h.</desc>
<speed>0.250000</speed>
</trkpt>
<trkpt lat="44.537228" lon="34.273273">
<ele>12.281380</ele>
<time>2011-10-12T15:37:42Z</time>
<desc>lat.=44.537228, lon.=34.273273, Alt.=12.281380m. Speed=1.152000m/h.</desc>
<speed>0.320000</speed>
</trkpt>
<trkpt lat="44.537212" lon="34.273300">
<ele>12.397102</ele>
<time>2011-10-12T15:37:47Z</time>
<desc>lat.=44.537212, lon.=34.273300, Alt.=12.397102m. Speed=1.008000m/h.</desc>
<speed>0.280000</speed>
</trkpt>
<trkpt lat="44.537216" lon="34.273315">
<ele>12.479622</ele>
<time>2011-10-12T15:37:52Z</time>
<desc>lat.=44.537216, lon.=34.273315, Alt.=12.479622m. Speed=0.864000m/h.</desc>
<speed>0.240000</speed>
</trkpt>
<trkpt lat="44.537216" lon="34.273327">
<ele>12.528206</ele>
<time>2011-10-12T15:37:57Z</time>
<desc>lat.=44.537216, lon.=34.273327, Alt.=12.528206m. Speed=0.540000m/h.</desc>
<speed>0.150000</speed>
</trkpt>
<trkpt lat="44.537212" lon="34.273338">
<ele>12.570686</ele>
<time>2011-10-12T15:38:02Z</time>
<desc>lat.=44.537212, lon.=34.273338, Alt.=12.570686m. Speed=0.360000m/h.</desc>
<speed>0.100000</speed>
</trkpt>
<trkpt lat="44.537209" lon="34.273338">
<ele>12.615852</ele>
<time>2011-10-12T15:38:07Z</time>
<desc>lat.=44.537209, lon.=34.273338, Alt.=12.615852m. Speed=0.684000m/h.</desc>
<speed>0.190000</speed>
</trkpt>
<trkpt lat="44.537174" lon="34.273354">
<ele>12.828499</ele>
<time>2011-10-12T15:38:12Z</time>
<desc>lat.=44.537174, lon.=34.273354, Alt.=12.828499m. Speed=1.368000m/h.</desc>
<speed>0.380000</speed>
</trkpt>
<trkpt lat="44.537148" lon="34.273361">
<ele>13.099251</ele>
<time>2011-10-12T15:38:17Z</time>
<desc>lat.=44.537148, lon.=34.273361, Alt.=13.099251m. Speed=1.260000m/h.</desc>
<speed>0.350000</speed>
</trkpt>
<trkpt lat="44.537128" lon="34.273357">
<ele>13.177620</ele>
<time>2011-10-12T15:38:22Z</time>
<desc>lat.=44.537128, lon.=34.273357, Alt.=13.177620m. Speed=1.116000m/h.</desc>
<speed>0.310000</speed>
</trkpt>
<trkpt lat="44.537125" lon="34.273373">
<ele>13.338509</ele>
<time>2011-10-12T15:38:27Z</time>
<desc>lat.=44.537125, lon.=34.273373, Alt.=13.338509m. Speed=0.900000m/h.</desc>
<speed>0.250000</speed>
</trkpt>
<trkpt lat="44.537121" lon="34.273399">
<ele>13.403206</ele>
<time>2011-10-12T15:38:32Z</time>
<desc>lat.=44.537121, lon.=34.273399, Alt.=13.403206m. Speed=1.332000m/h.</desc>
<speed>0.370000</speed>
</trkpt>
<trkpt lat="44.537125" lon="34.273415">
<ele>13.612923</ele>
<time>2011-10-12T15:38:37Z</time>
<desc>lat.=44.537125, lon.=34.273415, Alt.=13.612923m. Speed=1.152000m/h.</desc>
<speed>0.320000</speed>
</trkpt>
<trkpt lat="44.537136" lon="34.273438">
<ele>13.614388</ele>
<time>2011-10-12T15:38:42Z</time>
<desc>lat.=44.537136, lon.=34.273438, Alt.=13.614388m. Speed=1.152000m/h.</desc>
<speed>0.320000</speed>
</trkpt>
<trkpt lat="44.537151" lon="34.273422">
<ele>13.622932</ele>
<time>2011-10-12T15:38:47Z</time>
<desc>lat.=44.537151, lon.=34.273422, Alt.=13.622932m. Speed=0.432000m/h.</desc>
<speed>0.120000</speed>
</trkpt>
<trkpt lat="44.537151" lon="34.273426">
<ele>13.717659</ele>
<time>2011-10-12T15:38:52Z</time>
<desc>lat.=44.537151, lon.=34.273426, Alt.=13.717659m. Speed=0.252000m/h.</desc>
<speed>0.070000</speed>
</trkpt>
<trkpt lat="44.537155" lon="34.273426">
<ele>13.818489</ele>
<time>2011-10-12T15:38:57Z</time>
<desc>lat.=44.537155, lon.=34.273426, Alt.=13.818489m. Speed=0.540000m/h.</desc>
<speed>0.150000</speed>
</trkpt>
<trkpt lat="44.537167" lon="34.273418">
<ele>13.924690</ele>
<time>2011-10-12T15:39:02Z</time>
<desc>lat.=44.537167, lon.=34.273418, Alt.=13.924690m. Speed=1.044000m/h.</desc>
<speed>0.290000</speed>
</trkpt>
<trkpt lat="44.537170" lon="34.273434">
<ele>13.891243</ele>
<time>2011-10-12T15:39:07Z</time>
<desc>lat.=44.537170, lon.=34.273434, Alt.=13.891243m. Speed=0.684000m/h.</desc>
<speed>0.190000</speed>
</trkpt>
<trkpt lat="44.537174" lon="34.273441">
<ele>14.018929</ele>
<time>2011-10-12T15:39:12Z</time>
<desc>lat.=44.537174, lon.=34.273441, Alt.=14.018929m. Speed=0.720000m/h.</desc>
<speed>0.200000</speed>
</trkpt>
<trkpt lat="44.537174" lon="34.273453">
<ele>14.147591</ele>
<time>2011-10-12T15:39:17Z</time>
<desc>lat.=44.537174, lon.=34.273453, Alt.=14.147591m. Speed=0.504000m/h.</desc>
<speed>0.140000</speed>
</trkpt>
<trkpt lat="44.537178" lon="34.273453">
<ele>14.284309</ele>
<time>2011-10-12T15:39:22Z</time>
<desc>lat.=44.537178, lon.=34.273453, Alt.=14.284309m. Speed=0.468000m/h.</desc>
<speed>0.130000</speed>
</trkpt>
<trkpt lat="44.537174" lon="34.273441">
<ele>14.425911</ele>
<time>2011-10-12T15:39:27Z</time>
<desc>lat.=44.537174, lon.=34.273441, Alt.=14.425911m. Speed=0.900000m/h.</desc>
<speed>0.250000</speed>
</trkpt>
<trkpt lat="44.537178" lon="34.273418">
<ele>14.275520</ele>
<time>2011-10-12T15:39:32Z</time>
<desc>lat.=44.537178, lon.=34.273418, Alt.=14.275520m. Speed=1.044000m/h.</desc>
<speed>0.290000</speed>
</trkpt>
<trkpt lat="44.537174" lon="34.273399">
<ele>14.435677</ele>
<time>2011-10-12T15:39:37Z</time>
<desc>lat.=44.537174, lon.=34.273399, Alt.=14.435677m. Speed=0.828000m/h.</desc>
<speed>0.230000</speed>
</trkpt>
<trkpt lat="44.537174" lon="34.273384">
<ele>14.553841</ele>
<time>2011-10-12T15:39:42Z</time>
<desc>lat.=44.537174, lon.=34.273384, Alt.=14.553841m. Speed=0.504000m/h.</desc>
<speed>0.140000</speed>
</trkpt>
<trkpt lat="44.537178" lon="34.273376">
<ele>14.708870</ele>
<time>2011-10-12T15:39:47Z</time>
<desc>lat.=44.537178, lon.=34.273376, Alt.=14.708870m. Speed=0.756000m/h.</desc>
<speed>0.210000</speed>
</trkpt>
<trkpt lat="44.537186" lon="34.273369">
<ele>14.867805</ele>
<time>2011-10-12T15:39:52Z</time>
<desc>lat.=44.537186, lon.=34.273369, Alt.=14.867805m. Speed=0.684000m/h.</desc>
<speed>0.190000</speed>
</trkpt>
<trkpt lat="44.537193" lon="34.273361">
<ele>15.069466</ele>
<time>2011-10-12T15:39:57Z</time>
<desc>lat.=44.537193, lon.=34.273361, Alt.=15.069466m. Speed=0.576000m/h.</desc>
<speed>0.160000</speed>
</trkpt>
<trkpt lat="44.537193" lon="34.273354">
<ele>15.264046</ele>
<time>2011-10-12T15:40:02Z</time>
<desc>lat.=44.537193, lon.=34.273354, Alt.=15.264046m. Speed=0.144000m/h.</desc>
<speed>0.040000</speed>
</trkpt>
<trkpt lat="44.537193" lon="34.273342">
<ele>15.494759</ele>
<time>2011-10-12T15:40:07Z</time>
<desc>lat.=44.537193, lon.=34.273342, Alt.=15.494759m. Speed=0.648000m/h.</desc>
<speed>0.180000</speed>
</trkpt>
<trkpt lat="44.537189" lon="34.273338">
<ele>15.781136</ele>
<time>2011-10-12T15:40:12Z</time>
<desc>lat.=44.537189, lon.=34.273338, Alt.=15.781136m. Speed=0.324000m/h.</desc>
<speed>0.090000</speed>
</trkpt>
<trkpt lat="44.537205" lon="34.273327">
<ele>16.187759</ele>
<time>2011-10-12T15:40:17Z</time>
<desc>lat.=44.537205, lon.=34.273327, Alt.=16.187759m. Speed=1.080000m/h.</desc>
<speed>0.300000</speed>
</trkpt>
<trkpt lat="44.537209" lon="34.273281">
<ele>17.011490</ele>
<time>2011-10-12T15:40:22Z</time>
<desc>lat.=44.537209, lon.=34.273281, Alt.=17.011490m. Speed=0.864000m/h.</desc>
<speed>0.240000</speed>
</trkpt>
<trkpt lat="44.537212" lon="34.273243">
<ele>17.576920</ele>
<time>2011-10-12T15:40:27Z</time>
<desc>lat.=44.537212, lon.=34.273243, Alt.=17.576920m. Speed=1.044000m/h.</desc>
<speed>0.290000</speed>
</trkpt>
<trkpt lat="44.537148" lon="34.273220">
<ele>18.312271</ele>
<time>2011-10-12T15:40:32Z</time>
<desc>lat.=44.537148, lon.=34.273220, Alt.=18.312271m. Speed=2.412000m/h.</desc>
<speed>0.670000</speed>
</trkpt>
<trkpt lat="44.537128" lon="34.273285">
<ele>18.359634</ele>
<time>2011-10-12T15:40:37Z</time>
<desc>lat.=44.537128, lon.=34.273285, Alt.=18.359634m. Speed=2.628000m/h.</desc>
<speed>0.730000</speed>
</trkpt>
<trkpt lat="44.537113" lon="34.273319">
<ele>18.269302</ele>
<time>2011-10-12T15:40:42Z</time>
<desc>lat.=44.537113, lon.=34.273319, Alt.=18.269302m. Speed=0.936000m/h.</desc>
<speed>0.260000</speed>
</trkpt>
<trkpt lat="44.537121" lon="34.273315">
<ele>18.579849</ele>
<time>2011-10-12T15:40:47Z</time>
<desc>lat.=44.537121, lon.=34.273315, Alt.=18.579849m. Speed=1.080000m/h.</desc>
<speed>0.300000</speed>
</trkpt>
<trkpt lat="44.537148" lon="34.273296">
<ele>19.014908</ele>
<time>2011-10-12T15:40:52Z</time>
<desc>lat.=44.537148, lon.=34.273296, Alt.=19.014908m. Speed=1.332000m/h.</desc>
<speed>0.370000</speed>
</trkpt>
<trkpt lat="44.537128" lon="34.273293">
<ele>19.634537</ele>
<time>2011-10-12T15:40:57Z</time>
<desc>lat.=44.537128, lon.=34.273293, Alt.=19.634537m. Speed=0.504000m/h.</desc>
<speed>0.140000</speed>
</trkpt>
<trkpt lat="44.537128" lon="34.273273">
<ele>19.938736</ele>
<time>2011-10-12T15:41:02Z</time>
<desc>lat.=44.537128, lon.=34.273273, Alt.=19.938736m. Speed=0.756000m/h.</desc>
<speed>0.210000</speed>
</trkpt>
<trkpt lat="44.537125" lon="34.273262">
<ele>20.027603</ele>
<time>2011-10-12T15:41:07Z</time>
<desc>lat.=44.537125, lon.=34.273262, Alt.=20.027603m. Speed=1.116000m/h.</desc>
<speed>0.310000</speed>
</trkpt>
<trkpt lat="44.537071" lon="34.273289">
<ele>19.927994</ele>
<time>2011-10-12T15:41:12Z</time>
<desc>lat.=44.537071, lon.=34.273289, Alt.=19.927994m. Speed=1.404000m/h.</desc>
<speed>0.390000</speed>
</trkpt>
<trkpt lat="44.537041" lon="34.273304">
<ele>19.805923</ele>
<time>2011-10-12T15:41:17Z</time>
<desc>lat.=44.537041, lon.=34.273304, Alt.=19.805923m. Speed=1.440000m/h.</desc>
<speed>0.400000</speed>
</trkpt>
<trkpt lat="44.537037" lon="34.273323">
<ele>19.638931</ele>
<time>2011-10-12T15:41:22Z</time>
<desc>lat.=44.537037, lon.=34.273323, Alt.=19.638931m. Speed=0.684000m/h.</desc>
<speed>0.190000</speed>
</trkpt>
<trkpt lat="44.537045" lon="34.273319">
<ele>19.630142</ele>
<time>2011-10-12T15:41:27Z</time>
<desc>lat.=44.537045, lon.=34.273319, Alt.=19.630142m. Speed=0.900000m/h.</desc>
<speed>0.250000</speed>
</trkpt>
<trkpt lat="44.537037" lon="34.273315">
<ele>19.663345</ele>
<time>2011-10-12T15:41:32Z</time>
<desc>lat.=44.537037, lon.=34.273315, Alt.=19.663345m. Speed=0.936000m/h.</desc>
<speed>0.260000</speed>
</trkpt>
<trkpt lat="44.537025" lon="34.273312">
<ele>19.690201</ele>
<time>2011-10-12T15:41:37Z</time>
<desc>lat.=44.537025, lon.=34.273312, Alt.=19.690201m. Speed=0.864000m/h.</desc>
<speed>0.240000</speed>
</trkpt>
<trkpt lat="44.537014" lon="34.273304">
<ele>19.706802</ele>
<time>2011-10-12T15:41:42Z</time>
<desc>lat.=44.537014, lon.=34.273304, Alt.=19.706802m. Speed=0.684000m/h.</desc>
<speed>0.190000</speed>
</trkpt>
<trkpt lat="44.537006" lon="34.273312">
<ele>19.737564</ele>
<time>2011-10-12T15:41:47Z</time>
<desc>lat.=44.537006, lon.=34.273312, Alt.=19.737564m. Speed=0.648000m/h.</desc>
<speed>0.180000</speed>
</trkpt>
<trkpt lat="44.537006" lon="34.273312">
<ele>19.790298</ele>
<time>2011-10-12T15:41:52Z</time>
<desc>lat.=44.537006, lon.=34.273312, Alt.=19.790298m. Speed=1.476000m/h.</desc>
<speed>0.410000</speed>
</trkpt>
<trkpt lat="44.537067" lon="34.273266">
<ele>19.828873</ele>
<time>2011-10-12T15:41:57Z</time>
<desc>lat.=44.537067, lon.=34.273266, Alt.=19.828873m. Speed=2.052000m/h.</desc>
<speed>0.570000</speed>
</trkpt>
<trkpt lat="44.537113" lon="34.273243">
<ele>19.093521</ele>
<time>2011-10-12T15:42:02Z</time>
<desc>lat.=44.537113, lon.=34.273243, Alt.=19.093521m. Speed=0.972000m/h.</desc>
<speed>0.270000</speed>
</trkpt>
<trkpt lat="44.537128" lon="34.273258">
<ele>18.942154</ele>
<time>2011-10-12T15:42:07Z</time>
<desc>lat.=44.537128, lon.=34.273258, Alt.=18.942154m. Speed=0.468000m/h.</desc>
<speed>0.130000</speed>
</trkpt>
<trkpt lat="44.537132" lon="34.273270">
<ele>18.748306</ele>
<time>2011-10-12T15:42:12Z</time>
<desc>lat.=44.537132, lon.=34.273270, Alt.=18.748306m. Speed=0.216000m/h.</desc>
<speed>0.060000</speed>
</trkpt>
<trkpt lat="44.537132" lon="34.273273">
<ele>18.680435</ele>
<time>2011-10-12T15:42:17Z</time>
<desc>lat.=44.537132, lon.=34.273273, Alt.=18.680435m. Speed=0.756000m/h.</desc>
<speed>0.210000</speed>
</trkpt>
<trkpt lat="44.537132" lon="34.273289">
<ele>18.719986</ele>
<time>2011-10-12T15:42:22Z</time>
<desc>lat.=44.537132, lon.=34.273289, Alt.=18.719986m. Speed=1.044000m/h.</desc>
<speed>0.290000</speed>
</trkpt>
<trkpt lat="44.537132" lon="34.273289">
<ele>18.862076</ele>
<time>2011-10-12T15:42:27Z</time>
<desc>lat.=44.537132, lon.=34.273289, Alt.=18.862076m. Speed=0.504000m/h.</desc>
<speed>0.140000</speed>
</trkpt>
<trkpt lat="44.537128" lon="34.273296">
<ele>18.857193</ele>
<time>2011-10-12T15:42:32Z</time>
<desc>lat.=44.537128, lon.=34.273296, Alt.=18.857193m. Speed=0.468000m/h.</desc>
<speed>0.130000</speed>
</trkpt>
<trkpt lat="44.537109" lon="34.273304">
<ele>18.900162</ele>
<time>2011-10-12T15:42:37Z</time>
<desc>lat.=44.537109, lon.=34.273304, Alt.=18.900162m. Speed=1.224000m/h.</desc>
<speed>0.340000</speed>
</trkpt>
<trkpt lat="44.537121" lon="34.273270">
<ele>17.940689</ele>
<time>2011-10-12T15:42:42Z</time>
<desc>lat.=44.537121, lon.=34.273270, Alt.=17.940689m. Speed=0.720000m/h.</desc>
<speed>0.200000</speed>
</trkpt>
<trkpt lat="44.537113" lon="34.273270">
<ele>17.940201</ele>
<time>2011-10-12T15:42:47Z</time>
<desc>lat.=44.537113, lon.=34.273270, Alt.=17.940201m. Speed=0.180000m/h.</desc>
<speed>0.050000</speed>
</trkpt>
<trkpt lat="44.537113" lon="34.273273">
<ele>17.928482</ele>
<time>2011-10-12T15:42:52Z</time>
<desc>lat.=44.537113, lon.=34.273273, Alt.=17.928482m. Speed=0.252000m/h.</desc>
<speed>0.070000</speed>
</trkpt>
<trkpt lat="44.537125" lon="34.273293">
<ele>19.117447</ele>
<time>2011-10-12T15:42:57Z</time>
<desc>lat.=44.537125, lon.=34.273293, Alt.=19.117447m. Speed=0.972000m/h.</desc>
<speed>0.270000</speed>
</trkpt>
<trkpt lat="44.537121" lon="34.273300">
<ele>19.166763</ele>
<time>2011-10-12T15:43:02Z</time>
<desc>lat.=44.537121, lon.=34.273300, Alt.=19.166763m. Speed=0.540000m/h.</desc>
<speed>0.150000</speed>
</trkpt>
<trkpt lat="44.537128" lon="34.273296">
<ele>19.144791</ele>
<time>2011-10-12T15:43:07Z</time>
<desc>lat.=44.537128, lon.=34.273296, Alt.=19.144791m. Speed=0.720000m/h.</desc>
<speed>0.200000</speed>
</trkpt>
<trkpt lat="44.537128" lon="34.273319">
<ele>19.009537</ele>
<time>2011-10-12T15:43:12Z</time>
<desc>lat.=44.537128, lon.=34.273319, Alt.=19.009537m. Speed=1.692000m/h.</desc>
<speed>0.470000</speed>
</trkpt>
<trkpt lat="44.537125" lon="34.273354">
<ele>19.668716</ele>
<time>2011-10-12T15:43:17Z</time>
<desc>lat.=44.537125, lon.=34.273354, Alt.=19.668716m. Speed=1.440000m/h.</desc>
<speed>0.400000</speed>
</trkpt>
<trkpt lat="44.537113" lon="34.273335">
<ele>20.549088</ele>
<time>2011-10-12T15:43:22Z</time>
<desc>lat.=44.537113, lon.=34.273335, Alt.=20.549088m. Speed=0.468000m/h.</desc>
<speed>0.130000</speed>
</trkpt>
<trkpt lat="44.537109" lon="34.273342">
<ele>20.542252</ele>
<time>2011-10-12T15:43:27Z</time>
<desc>lat.=44.537109, lon.=34.273342, Alt.=20.542252m. Speed=0.756000m/h.</desc>
<speed>0.210000</speed>
</trkpt>
<trkpt lat="44.537106" lon="34.273350">
<ele>20.531998</ele>
<time>2011-10-12T15:43:32Z</time>
<desc>lat.=44.537106, lon.=34.273350, Alt.=20.531998m. Speed=0.360000m/h.</desc>
<speed>0.100000</speed>
</trkpt>
<trkpt lat="44.537102" lon="34.273350">
<ele>20.219498</ele>
<time>2011-10-12T15:43:37Z</time>
<desc>lat.=44.537102, lon.=34.273350, Alt.=20.219498m. Speed=0.468000m/h.</desc>
<speed>0.130000</speed>
</trkpt>
<trkpt lat="44.537090" lon="34.273354">
<ele>20.062271</ele>
<time>2011-10-12T15:43:42Z</time>
<desc>lat.=44.537090, lon.=34.273354, Alt.=20.062271m. Speed=0.036000m/h.</desc>
<speed>0.010000</speed>
</trkpt>
<trkpt lat="44.537079" lon="34.273354">
<ele>20.163834</ele>
<time>2011-10-12T15:43:47Z</time>
<desc>lat.=44.537079, lon.=34.273354, Alt.=20.163834m. Speed=0.828000m/h.</desc>
<speed>0.230000</speed>
</trkpt>
<trkpt lat="44.537071" lon="34.273346">
<ele>20.296646</ele>
<time>2011-10-12T15:43:52Z</time>
<desc>lat.=44.537071, lon.=34.273346, Alt.=20.296646m. Speed=0.648000m/h.</desc>
<speed>0.180000</speed>
</trkpt>
<trkpt lat="44.537067" lon="34.273335">
<ele>20.414810</ele>
<time>2011-10-12T15:43:57Z</time>
<desc>lat.=44.537067, lon.=34.273335, Alt.=20.414810m. Speed=0.936000m/h.</desc>
<speed>0.260000</speed>
</trkpt>
<trkpt lat="44.537052" lon="34.273304">
<ele>20.737564</ele>
<time>2011-10-12T15:44:02Z</time>
<desc>lat.=44.537052, lon.=34.273304, Alt.=20.737564m. Speed=1.404000m/h.</desc>
<speed>0.390000</speed>
</trkpt>
<trkpt lat="44.537025" lon="34.273262">
<ele>21.232681</ele>
<time>2011-10-12T15:44:07Z</time>
<desc>lat.=44.537025, lon.=34.273262, Alt.=21.232681m. Speed=1.476000m/h.</desc>
<speed>0.410000</speed>
</trkpt>
<trkpt lat="44.537022" lon="34.273258">
<ele>20.950455</ele>
<time>2011-10-12T15:44:12Z</time>
<desc>lat.=44.537022, lon.=34.273258, Alt.=20.950455m. Speed=1.044000m/h.</desc>
<speed>0.290000</speed>
</trkpt>
<trkpt lat="44.537018" lon="34.273281">
<ele>20.737564</ele>
<time>2011-10-12T15:44:17Z</time>
<desc>lat.=44.537018, lon.=34.273281, Alt.=20.737564m. Speed=0.792000m/h.</desc>
<speed>0.220000</speed>
</trkpt>
<trkpt lat="44.537010" lon="34.273289">
<ele>20.811295</ele>
<time>2011-10-12T15:44:22Z</time>
<desc>lat.=44.537010, lon.=34.273289, Alt.=20.811295m. Speed=0.684000m/h.</desc>
<speed>0.190000</speed>
</trkpt>
<trkpt lat="44.537014" lon="34.273293">
<ele>20.797623</ele>
<time>2011-10-12T15:44:27Z</time>
<desc>lat.=44.537014, lon.=34.273293, Alt.=20.797623m. Speed=0.432000m/h.</desc>
<speed>0.120000</speed>
</trkpt>
<trkpt lat="44.537018" lon="34.273293">
<ele>20.782974</ele>
<time>2011-10-12T15:44:32Z</time>
<desc>lat.=44.537018, lon.=34.273293, Alt.=20.782974m. Speed=0.504000m/h.</desc>
<speed>0.140000</speed>
</trkpt>
<trkpt lat="44.537025" lon="34.273300">
<ele>20.731705</ele>
<time>2011-10-12T15:44:37Z</time>
<desc>lat.=44.537025, lon.=34.273300, Alt.=20.731705m. Speed=0.540000m/h.</desc>
<speed>0.150000</speed>
</trkpt>
<trkpt lat="44.537033" lon="34.273304">
<ele>20.679947</ele>
<time>2011-10-12T15:44:42Z</time>
<desc>lat.=44.537033, lon.=34.273304, Alt.=20.679947m. Speed=0.576000m/h.</desc>
<speed>0.160000</speed>
</trkpt>
<trkpt lat="44.537041" lon="34.273304">
<ele>20.599380</ele>
<time>2011-10-12T15:44:47Z</time>
<desc>lat.=44.537041, lon.=34.273304, Alt.=20.599380m. Speed=0.108000m/h.</desc>
<speed>0.030000</speed>
</trkpt>
<trkpt lat="44.537041" lon="34.273304">
<ele>20.483170</ele>
<time>2011-10-12T15:44:52Z</time>
<desc>lat.=44.537041, lon.=34.273304, Alt.=20.483170m. Speed=0.252000m/h.</desc>
<speed>0.070000</speed>
</trkpt>
<trkpt lat="44.537041" lon="34.273308">
<ele>20.382095</ele>
<time>2011-10-12T15:44:57Z</time>
<desc>lat.=44.537041, lon.=34.273308, Alt.=20.382095m. Speed=0.252000m/h.</desc>
<speed>0.070000</speed>
</trkpt>
<trkpt lat="44.537041" lon="34.273312">
<ele>20.407974</ele>
<time>2011-10-12T15:45:02Z</time>
<desc>lat.=44.537041, lon.=34.273312, Alt.=20.407974m. Speed=0.216000m/h.</desc>
<speed>0.060000</speed>
</trkpt>
<trkpt lat="44.537045" lon="34.273312">
<ele>20.504166</ele>
<time>2011-10-12T15:45:07Z</time>
<desc>lat.=44.537045, lon.=34.273312, Alt.=20.504166m. Speed=0.432000m/h.</desc>
<speed>0.120000</speed>
</trkpt>
<trkpt lat="44.537052" lon="34.273312">
<ele>20.600845</ele>
<time>2011-10-12T15:45:12Z</time>
<desc>lat.=44.537052, lon.=34.273312, Alt.=20.600845m. Speed=0.648000m/h.</desc>
<speed>0.180000</speed>
</trkpt>
<trkpt lat="44.537060" lon="34.273315">
<ele>20.696060</ele>
<time>2011-10-12T15:45:17Z</time>
<desc>lat.=44.537060, lon.=34.273315, Alt.=20.696060m. Speed=0.576000m/h.</desc>
<speed>0.160000</speed>
</trkpt>
<trkpt lat="44.537071" lon="34.273312">
<ele>20.741470</ele>
<time>2011-10-12T15:45:22Z</time>
<desc>lat.=44.537071, lon.=34.273312, Alt.=20.741470m. Speed=0.864000m/h.</desc>
<speed>0.240000</speed>
</trkpt>
<trkpt lat="44.537079" lon="34.273304">
<ele>20.746841</ele>
<time>2011-10-12T15:45:27Z</time>
<desc>lat.=44.537079, lon.=34.273304, Alt.=20.746841m. Speed=0.504000m/h.</desc>
<speed>0.140000</speed>
</trkpt>
<trkpt lat="44.537086" lon="34.273304">
<ele>20.729752</ele>
<time>2011-10-12T15:45:32Z</time>
<desc>lat.=44.537086, lon.=34.273304, Alt.=20.729752m. Speed=0.612000m/h.</desc>
<speed>0.170000</speed>
</trkpt>
<trkpt lat="44.537094" lon="34.273296">
<ele>20.698502</ele>
<time>2011-10-12T15:45:37Z</time>
<desc>lat.=44.537094, lon.=34.273296, Alt.=20.698502m. Speed=0.648000m/h.</desc>
<speed>0.180000</speed>
</trkpt>
<trkpt lat="44.537098" lon="34.273289">
<ele>20.644302</ele>
<time>2011-10-12T15:45:42Z</time>
<desc>lat.=44.537098, lon.=34.273289, Alt.=20.644302m. Speed=0.612000m/h.</desc>
<speed>0.170000</speed>
</trkpt>
<trkpt lat="44.537121" lon="34.273262">
<ele>19.931412</ele>
<time>2011-10-12T15:45:47Z</time>
<desc>lat.=44.537121, lon.=34.273262, Alt.=19.931412m. Speed=1.224000m/h.</desc>
<speed>0.340000</speed>
</trkpt>
<trkpt lat="44.537125" lon="34.273243">
<ele>20.194595</ele>
<time>2011-10-12T15:45:52Z</time>
<desc>lat.=44.537125, lon.=34.273243, Alt.=20.194595m. Speed=0.576000m/h.</desc>
<speed>0.160000</speed>
</trkpt>
<trkpt lat="44.537178" lon="34.273262">
<ele>19.744888</ele>
<time>2011-10-12T15:45:57Z</time>
<desc>lat.=44.537178, lon.=34.273262, Alt.=19.744888m. Speed=1.584000m/h.</desc>
<speed>0.440000</speed>
</trkpt>
<trkpt lat="44.537216" lon="34.273239">
<ele>20.795670</ele>
<time>2011-10-12T15:46:02Z</time>
<desc>lat.=44.537216, lon.=34.273239, Alt.=20.795670m. Speed=1.152000m/h.</desc>
<speed>0.320000</speed>
</trkpt>
<trkpt lat="44.537277" lon="34.273262">
<ele>21.093521</ele>
<time>2011-10-12T15:46:07Z</time>
<desc>lat.=44.537277, lon.=34.273262, Alt.=21.093521m. Speed=2.520000m/h.</desc>
<speed>0.700000</speed>
</trkpt>
<trkpt lat="44.537277" lon="34.273331">
<ele>20.853775</ele>
<time>2011-10-12T15:46:12Z</time>
<desc>lat.=44.537277, lon.=34.273331, Alt.=20.853775m. Speed=2.088000m/h.</desc>
<speed>0.580000</speed>
</trkpt>
<trkpt lat="44.537323" lon="34.273361">
<ele>21.638931</ele>
<time>2011-10-12T15:46:17Z</time>
<desc>lat.=44.537323, lon.=34.273361, Alt.=21.638931m. Speed=1.224000m/h.</desc>
<speed>0.340000</speed>
</trkpt>
<trkpt lat="44.537323" lon="34.273373">
<ele>21.846939</ele>
<time>2011-10-12T15:46:22Z</time>
<desc>lat.=44.537323, lon.=34.273373, Alt.=21.846939m. Speed=0.144000m/h.</desc>
<speed>0.040000</speed>
</trkpt>
<trkpt lat="44.537319" lon="34.273365">
<ele>21.812271</ele>
<time>2011-10-12T15:46:27Z</time>
<desc>lat.=44.537319, lon.=34.273365, Alt.=21.812271m. Speed=0.936000m/h.</desc>
<speed>0.260000</speed>
</trkpt>
<trkpt lat="44.537285" lon="34.273399">
<ele>22.300064</ele>
<time>2011-10-12T15:46:32Z</time>
<desc>lat.=44.537285, lon.=34.273399, Alt.=22.300064m. Speed=1.800000m/h.</desc>
<speed>0.500000</speed>
</trkpt>
<trkpt lat="44.537235" lon="34.273441">
<ele>23.120865</ele>
<time>2011-10-12T15:46:37Z</time>
<desc>lat.=44.537235, lon.=34.273441, Alt.=23.120865m. Speed=2.052000m/h.</desc>
<speed>0.570000</speed>
</trkpt>
<trkpt lat="44.537239" lon="34.273491">
<ele>22.895279</ele>
<time>2011-10-12T15:46:42Z</time>
<desc>lat.=44.537239, lon.=34.273491, Alt.=22.895279m. Speed=1.476000m/h.</desc>
<speed>0.410000</speed>
</trkpt>
<trkpt lat="44.537209" lon="34.273491">
<ele>22.637955</ele>
<time>2011-10-12T15:46:47Z</time>
<desc>lat.=44.537209, lon.=34.273491, Alt.=22.637955m. Speed=1.764000m/h.</desc>
<speed>0.490000</speed>
</trkpt>
<trkpt lat="44.537205" lon="34.273499">
<ele>22.183853</ele>
<time>2011-10-12T15:46:52Z</time>
<desc>lat.=44.537205, lon.=34.273499, Alt.=22.183853m. Speed=0.288000m/h.</desc>
<speed>0.080000</speed>
</trkpt>
<trkpt lat="44.537205" lon="34.273491">
<ele>22.154068</ele>
<time>2011-10-12T15:46:57Z</time>
<desc>lat.=44.537205, lon.=34.273491, Alt.=22.154068m. Speed=0.216000m/h.</desc>
<speed>0.060000</speed>
</trkpt>
<trkpt lat="44.537205" lon="34.273483">
<ele>22.174576</ele>
<time>2011-10-12T15:47:02Z</time>
<desc>lat.=44.537205, lon.=34.273483, Alt.=22.174576m. Speed=0.684000m/h.</desc>
<speed>0.190000</speed>
</trkpt>
<trkpt lat="44.537197" lon="34.273476">
<ele>22.166275</ele>
<time>2011-10-12T15:47:07Z</time>
<desc>lat.=44.537197, lon.=34.273476, Alt.=22.166275m. Speed=0.396000m/h.</desc>
<speed>0.110000</speed>
</trkpt>
<trkpt lat="44.537197" lon="34.273499">
<ele>22.156509</ele>
<time>2011-10-12T15:47:12Z</time>
<desc>lat.=44.537197, lon.=34.273499, Alt.=22.156509m. Speed=1.836000m/h.</desc>
<speed>0.510000</speed>
</trkpt>
<trkpt lat="44.537228" lon="34.273556">
<ele>21.615982</ele>
<time>2011-10-12T15:47:17Z</time>
<desc>lat.=44.537228, lon.=34.273556, Alt.=21.615982m. Speed=0.540000m/h.</desc>
<speed>0.150000</speed>
</trkpt>
<trkpt lat="44.537228" lon="34.273586">
<ele>22.299576</ele>
<time>2011-10-12T15:47:22Z</time>
<desc>lat.=44.537228, lon.=34.273586, Alt.=22.299576m. Speed=1.260000m/h.</desc>
<speed>0.350000</speed>
</trkpt>
<trkpt lat="44.537216" lon="34.273605">
<ele>22.232681</ele>
<time>2011-10-12T15:47:27Z</time>
<desc>lat.=44.537216, lon.=34.273605, Alt.=22.232681m. Speed=1.512000m/h.</desc>
<speed>0.420000</speed>
</trkpt>
<trkpt lat="44.537182" lon="34.273617">
<ele>22.057877</ele>
<time>2011-10-12T15:47:32Z</time>
<desc>lat.=44.537182, lon.=34.273617, Alt.=22.057877m. Speed=0.288000m/h.</desc>
<speed>0.080000</speed>
</trkpt>
<trkpt lat="44.537189" lon="34.273621">
<ele>21.970474</ele>
<time>2011-10-12T15:47:37Z</time>
<desc>lat.=44.537189, lon.=34.273621, Alt.=21.970474m. Speed=0.144000m/h.</desc>
<speed>0.040000</speed>
</trkpt>
<trkpt lat="44.537186" lon="34.273617">
<ele>21.937271</ele>
<time>2011-10-12T15:47:42Z</time>
<desc>lat.=44.537186, lon.=34.273617, Alt.=21.937271m. Speed=0.468000m/h.</desc>
<speed>0.130000</speed>
</trkpt>
<trkpt lat="44.537182" lon="34.273609">
<ele>21.905533</ele>
<time>2011-10-12T15:47:47Z</time>
<desc>lat.=44.537182, lon.=34.273609, Alt.=21.905533m. Speed=0.792000m/h.</desc>
<speed>0.220000</speed>
</trkpt>
<trkpt lat="44.537174" lon="34.273605">
<ele>21.899185</ele>
<time>2011-10-12T15:47:52Z</time>
<desc>lat.=44.537174, lon.=34.273605, Alt.=21.899185m. Speed=0.684000m/h.</desc>
<speed>0.190000</speed>
</trkpt>
<trkpt lat="44.537174" lon="34.273602">
<ele>21.894302</ele>
<time>2011-10-12T15:47:57Z</time>
<desc>lat.=44.537174, lon.=34.273602, Alt.=21.894302m. Speed=0.612000m/h.</desc>
<speed>0.170000</speed>
</trkpt>
<trkpt lat="44.537174" lon="34.273602">
<ele>21.894302</ele>
<time>2011-10-12T15:48:02Z</time>
<desc>lat.=44.537174, lon.=34.273602, Alt.=21.894302m. Speed=0.108000m/h.</desc>
<speed>0.030000</speed>
</trkpt>
<trkpt lat="44.537178" lon="34.273598">
<ele>21.894791</ele>
<time>2011-10-12T15:48:07Z</time>
<desc>lat.=44.537178, lon.=34.273598, Alt.=21.894791m. Speed=0.252000m/h.</desc>
<speed>0.070000</speed>
</trkpt>
<trkpt lat="44.537182" lon="34.273613">
<ele>21.882095</ele>
<time>2011-10-12T15:48:12Z</time>
<desc>lat.=44.537182, lon.=34.273613, Alt.=21.882095m. Speed=1.728000m/h.</desc>
<speed>0.480000</speed>
</trkpt>
<trkpt lat="44.537178" lon="34.273617">
<ele>21.867447</ele>
<time>2011-10-12T15:48:17Z</time>
<desc>lat.=44.537178, lon.=34.273617, Alt.=21.867447m. Speed=0.720000m/h.</desc>
<speed>0.200000</speed>
</trkpt>
<trkpt lat="44.537167" lon="34.273621">
<ele>21.869400</ele>
<time>2011-10-12T15:48:22Z</time>
<desc>lat.=44.537167, lon.=34.273621, Alt.=21.869400m. Speed=0.684000m/h.</desc>
<speed>0.190000</speed>
</trkpt>
<trkpt lat="44.537159" lon="34.273621">
<ele>21.881119</ele>
<time>2011-10-12T15:48:27Z</time>
<desc>lat.=44.537159, lon.=34.273621, Alt.=21.881119m. Speed=0.648000m/h.</desc>
<speed>0.180000</speed>
</trkpt>
<trkpt lat="44.537155" lon="34.273621">
<ele>21.860123</ele>
<time>2011-10-12T15:48:32Z</time>
<desc>lat.=44.537155, lon.=34.273621, Alt.=21.860123m. Speed=0.864000m/h.</desc>
<speed>0.240000</speed>
</trkpt>
<trkpt lat="44.537148" lon="34.273613">
<ele>21.830826</ele>
<time>2011-10-12T15:48:37Z</time>
<desc>lat.=44.537148, lon.=34.273613, Alt.=21.830826m. Speed=0.684000m/h.</desc>
<speed>0.190000</speed>
</trkpt>
<trkpt lat="44.537148" lon="34.273613">
<ele>21.836197</ele>
<time>2011-10-12T15:48:42Z</time>
<desc>lat.=44.537148, lon.=34.273613, Alt.=21.836197m. Speed=0.828000m/h.</desc>
<speed>0.230000</speed>
</trkpt>
<trkpt lat="44.537155" lon="34.273628">
<ele>21.832291</ele>
<time>2011-10-12T15:48:47Z</time>
<desc>lat.=44.537155, lon.=34.273628, Alt.=21.832291m. Speed=0.936000m/h.</desc>
<speed>0.260000</speed>
</trkpt>
<trkpt lat="44.537159" lon="34.273632">
<ele>21.850845</ele>
<time>2011-10-12T15:48:52Z</time>
<desc>lat.=44.537159, lon.=34.273632, Alt.=21.850845m. Speed=0.612000m/h.</desc>
<speed>0.170000</speed>
</trkpt>
<trkpt lat="44.537155" lon="34.273643">
<ele>21.853287</ele>
<time>2011-10-12T15:48:57Z</time>
<desc>lat.=44.537155, lon.=34.273643, Alt.=21.853287m. Speed=1.080000m/h.</desc>
<speed>0.300000</speed>
</trkpt>
<trkpt lat="44.537128" lon="34.273697">
<ele>21.827896</ele>
<time>2011-10-12T15:49:02Z</time>
<desc>lat.=44.537128, lon.=34.273697, Alt.=21.827896m. Speed=1.440000m/h.</desc>
<speed>0.400000</speed>
</trkpt>
<trkpt lat="44.537125" lon="34.273727">
<ele>21.830338</ele>
<time>2011-10-12T15:49:07Z</time>
<desc>lat.=44.537125, lon.=34.273727, Alt.=21.830338m. Speed=1.620000m/h.</desc>
<speed>0.450000</speed>
</trkpt>
<trkpt lat="44.537136" lon="34.273712">
<ele>21.848892</ele>
<time>2011-10-12T15:49:12Z</time>
<desc>lat.=44.537136, lon.=34.273712, Alt.=21.848892m. Speed=0.828000m/h.</desc>
<speed>0.230000</speed>
</trkpt>
<trkpt lat="44.537155" lon="34.273708">
<ele>21.845963</ele>
<time>2011-10-12T15:49:17Z</time>
<desc>lat.=44.537155, lon.=34.273708, Alt.=21.845963m. Speed=0.648000m/h.</desc>
<speed>0.180000</speed>
</trkpt>
<trkpt lat="44.537144" lon="34.273720">
<ele>21.839615</ele>
<time>2011-10-12T15:49:22Z</time>
<desc>lat.=44.537144, lon.=34.273720, Alt.=21.839615m. Speed=0.252000m/h.</desc>
<speed>0.070000</speed>
</trkpt>
</trkseg>
</trk>
</gpx>